GFSGL_con_3kmhel_000.txt.gz
Helicity
94 73 76 66 53 68 108 179 227 268 276 241 213 223 200 133 96 69 63 62 63 74 84 86 81 74 94 104 116 137 160 187 187 143 136 121 107 84 93 90 90 53 39
52 58 50 54 48 111 198 276 314 351 296 298 314 230 179 155 130 103 86 81 74 74 72 87 83 92 100 102 115 126 149 164 178 146 129 120 114 115 106 106 87 72 42
51 57 41 52 100 180 293 341 359 352 347 316 219 115 78 83 96 95 85 83 72 75 88 101 97 108 107 110 112 119 131 130 147 149 125 120 114 119 101 97 85 69 81
68 92 96 124 128 195 249 300 313 317 240 157 118 113 84 77 88 87 101 111 96 84 77 77 82 88 89 91 93 98 102 117 123 143 134 122 126 120 107 88 69 87 74
108 148 166 149 140 149 163 189 169 117 101 106 88 53 93 101 94 135 139 118 101 90 81 82 75 60 39 63 99 101 108 117 121 119 116 111 110 114 110 88 80 68 64
172 181 180 143 135 144 180 165 107 127 125 107 114 112 99 109 115 126 113 92 84 85 90 72 67 41 53 45 64 76 102 130 128 140 133 123 107 129 118 88 84 82 45
236 287 312 289 214 153 132 109 94 87 90 97 106 121 119 113 121 103 91 93 94 95 86 78 65 63 52 90 75 52 59 54 90 112 116 118 108 115 119 107 78 78 69
211 132 125 117 107 82 75 88 101 105 101 96 96 107 106 94 96 87 79 96 102 94 76 64 66 71 76 45 42 69 86 103 109 133 146 134 127 129 132 111 97 88 91
104 113 106 103 121 107 92 73 76 78 80 91 89 82 78 65 62 59 67 83 81 64 48 56 74 62 33 -11 43 74 74 75 67 34 52 83 83 81 99 130 115 108 88
130 107 132 135 116 91 79 71 76 90 99 88 77 69 53 57 41 52 64 62 48 37 50 57 37 -10 -43 -2 60 88 87 86 78 97 124 66 52 80 74 102 110 103 110
136 137 130 98 79 84 79 86 92 96 86 80 71 59 57 47 43 46 56 45 35 31 45 56 41 -32 -5 11 39 51 32 2 13 26 112 107 93 84 101 98 99 93 80
104 119 90 86 87 87 90 87 90 89 86 68 56 56 54 52 34 53 48 36 7 6 22 9 0 4 -6 1 -55 -44 -40 -65 -55 -20 49 69 95 103 103 96 98 96 91
116 97 93 84 84 87 98 89 87 90 82 71 61 54 41 38 53 36 36 9 15 6 -9 -8 32 -1 7 -28 -1 -2 -11 14 13 8 23 46 77 73 75 104 112 85 65
104 103 102 96 87 94 106 107 102 91 95 88 74 58 40 35 29 25 -27 -10 15 -7 -23 -11 -32 -42 -21 0 12 24 25 18 14 19 35 70 82 80 83 104 103 93 63
124 119 117 116 104 108 117 111 113 110 121 108 97 81 40 15 -7 -2 -8 -11 -13 -14 -15 -42 -49 -39 -16 12 30 26 32 36 29 28 36 33 13 28 42 61 64 87 59
134 142 131 113 98 98 110 115 112 118 113 86 70 79 60 -37 -5 5 17 18 12 5 -18 -22 -30 -18 1 34 33 40 33 47 54 36 31 13 15 33 39 17 16 17 12
149 149 134 104 95 94 109 123 122 101 81 76 66 56 6 -29 -5 7 15 12 21 3 -14 -7 -2 5 19 40 43 23 18 41 64 43 20 31 45 25 31 35 21 0 -7
143 134 126 113 103 96 103 121 134 135 100 80 62 47 -21 -2 4 5 15 6 6 11 -15 -3 19 22 19 19 18 14 23 4 12 52 39 30 22 17 28 25 6 -7 5
121 108 115 105 94 97 114 119 137 133 115 106 85 -44 -53 -4 -7 4 12 -21 -5 -2 2 6 20 29 34 30 26 30 15 10 -2 2 33 26 28 20 28 19 -2 -14 -3
87 81 99 97 90 98 106 119 129 123 113 104 57 -69 -42 -37 -22 -9 -7 1 3 5 6 5 16 23 32 31 31 23 9 14 13 5 -12 9 27 30 22 17 10 -6 -4
95 86 95 98 99 97 111 127 132 127 119 110 -3 -69 -48 -37 -8 -7 -5 4 11 17 15 9 10 5 11 12 9 17 14 16 15 13 -7 -28 -7 26 34 15 14 9 2
93 89 98 91 85 87 99 122 131 122 112 114 -13 -67 -52 -34 -16 -8 1 6 16 20 19 15 8 -4 0 8 14 18 16 17 22 24 7 -16 -26 -10 12 24 32 32 20
98 103 92 80 85 83 96 108 121 115 102 111 51 -74 -71 -34 -18 -4 1 14 23 33 38 38 28 30 28 19 7 -2 3 18 23 1 -15 -24 -25 -16 -8 6 23 28 35
91 102 90 85 82 82 92 98 104 106 95 93 71 -73 -81 -50 -26 -1 4 18 28 39 44 48 29 27 26 27 23 14 4 7 0 -7 -16 -25 -15 -9 -7 -4 6 14 16
85 104 94 93 79 81 92 94 98 98 97 97 73 -18 -60 -64 -40 -10 8 14 23 41 55 51 33 26 28 37 38 28 23 22 8 -2 -7 -11 -4 3 -5 1 6 12 18
76 90 91 89 81 88 103 104 96 95 88 87 75 38 -26 -48 -46 -30 -13 -2 5 18 40 40 33 25 26 27 32 31 29 24 14 11 -8 -7 0 3 0 12 15 16 23

GFSGL_con_3kmhel_003.txt.gz
Helicity
148 132 110 73 45 80 110 141 197 246 257 269 286 296 281 229 204 44 33 38 33 37 28 22 25 29 43 56 65 77 91 97 98 84 104 124 109 101 100 91 84 100 126
168 131 70 77 118 93 144 220 260 262 276 255 255 246 137 73 29 53 81 70 55 51 55 63 68 81 83 93 98 95 108 118 125 102 107 129 107 93 104 117 115 100 118
85 31 64 89 91 115 153 213 247 255 271 243 138 57 60 81 84 97 95 60 55 49 55 62 75 89 92 95 92 95 95 98 109 121 118 114 116 111 87 78 85 88 96
75 127 148 165 133 138 156 170 194 180 152 110 103 120 118 106 91 91 88 79 77 76 72 73 76 76 74 70 74 78 84 93 98 111 120 111 114 112 106 96 90 85 83
134 148 157 117 162 156 157 149 145 140 115 99 97 97 104 108 100 85 85 95 93 85 75 70 72 68 49 51 78 70 74 83 92 108 121 122 118 133 132 100 94 87 71
149 160 140 110 69 92 106 119 114 88 92 106 113 109 97 95 119 118 127 90 75 67 65 60 61 45 41 41 48 59 76 98 100 112 107 107 93 107 107 95 75 85 74
133 113 111 97 103 119 145 113 94 88 85 80 77 84 98 115 128 107 99 77 71 65 60 55 46 54 40 46 50 50 60 62 92 92 88 82 70 71 76 90 90 82 75
111 116 131 118 115 133 110 86 74 69 64 63 76 96 92 84 85 83 76 65 68 58 46 33 36 31 40 47 50 53 56 62 74 102 87 53 45 48 70 71 62 69 71
150 158 136 122 103 103 78 72 63 62 65 81 86 75 70 66 71 60 63 61 51 39 31 31 27 31 26 30 44 44 41 41 51 53 41 36 37 46 39 77 94 91 80
232 174 125 91 91 73 73 66 74 76 83 86 76 72 65 58 48 55 62 59 42 29 19 16 18 24 14 12 11 13 55 60 68 63 57 50 47 31 50 51 56 80 83
134 82 83 82 73 77 79 82 85 81 86 82 73 67 60 58 55 57 68 65 50 19 9 11 17 23 41 12 -25 -71 -47 -44 -37 -41 -46 -47 -40 20 33 56 65 66 58
110 98 81 80 88 92 93 91 93 92 89 81 72 59 59 43 39 50 53 51 26 1 -8 -5 6 42 6 -21 -48 -39 -26 -16 -7 -7 -9 -10 -7 27 44 47 45 60 67
129 104 96 92 96 107 107 100 103 103 112 101 87 70 53 39 38 33 40 25 20 -9 -8 18 18 -9 -22 -33 -2 11 9 -7 4 5 3 3 14 12 9 41 47 60 67
131 116 117 112 113 107 122 118 113 116 125 104 94 74 54 40 35 19 1 -6 6 -23 -27 -18 -21 -24 -36 -10 10 12 4 -1 -2 -1 3 15 31 35 23 27 30 45 59
114 122 125 139 127 116 109 104 118 131 129 117 106 85 67 52 11 -12 -10 -4 -16 -13 -8 -11 -15 -19 -12 13 14 -5 5 13 14 -3 -6 6 13 19 24 20 16 28 24
100 113 133 129 125 114 98 95 115 125 129 108 89 89 74 45 -7 5 12 13 8 6 -21 -10 -5 -8 2 22 27 6 -10 11 28 37 -6 -12 1 10 27 38 36 28 4
99 110 112 113 112 101 90 97 101 97 91 100 92 70 56 -12 4 8 12 9 18 2 -11 2 3 2 8 20 18 1 -13 -14 13 28 43 -1 -3 -5 4 26 28 28 20
97 93 89 102 99 91 88 95 112 109 83 74 70 59 16 -1 2 7 14 0 5 8 -2 7 9 12 15 20 20 18 3 -16 -35 -11 23 26 -14 -17 -3 -8 -4 -1 8
66 71 79 91 94 89 82 93 114 112 95 93 78 67 -44 -16 -11 -1 6 -12 -3 9 14 9 7 13 20 19 17 15 13 5 -8 -21 -12 19 14 -21 -24 -13 -16 -20 -10
59 70 84 86 84 82 80 87 101 105 89 91 85 69 -49 -28 -14 -9 -11 -1 -1 3 11 9 10 18 20 12 5 3 -3 -1 2 2 -9 -13 7 -8 -24 -21 -3 7 1
59 70 82 80 73 75 72 74 92 101 93 87 91 59 -56 -33 -13 -5 1 8 17 18 15 12 10 12 13 12 5 3 2 1 2 2 -1 -12 -14 -7 -17 -16 -9 7 11
62 80 83 74 68 63 67 69 77 89 92 82 80 -4 -53 -48 -33 -7 0 16 28 33 31 29 23 15 12 12 11 5 6 9 10 9 2 -11 -11 -10 -17 -13 -4 7 14
61 70 79 77 70 64 63 70 69 71 77 78 70 -1 -61 -63 -38 -10 4 17 32 44 46 45 40 28 19 11 11 11 12 17 13 15 5 -4 -3 -7 -11 -10 -4 3 10
55 60 73 77 72 65 66 66 72 69 69 66 68 39 -37 -62 -62 -26 -9 4 22 39 55 61 50 47 33 23 17 11 4 4 -1 -2 -3 1 6 4 0 -2 0 4 8
57 62 67 69 69 66 62 67 69 73 66 64 48 50 18 -28 -47 -48 -23 -13 4 18 36 50 50 42 30 30 31 28 21 20 14 4 0 3 9 13 10 9 8 11 19
57 57 57 70 74 71 70 69 68 69 66 60 56 40 38 12 -13 -29 -36 -29 -14 0 16 26 38 42 33 20 25 28 28 28 20 21 3 7 9 13 9 17 22 19 28

GFSGL_con_3kmhel_006.txt.gz
Helicity
182 180 145 117 85 80 103 124 126 127 141 153 151 152 179 197 107 76 26 -0 24 66 63 34 32 36 44 56 55 37 22 35 46 66 71 72 89 108 106 100 85 75 72
160 124 94 66 92 108 119 124 123 128 120 147 184 187 102 51 54 76 80 75 79 78 84 81 73 74 81 77 88 82 87 84 84 71 76 89 85 84 76 68 78 82 91
94 90 118 98 95 109 119 104 89 109 124 107 89 87 92 93 86 85 84 92 99 104 107 104 93 95 95 93 92 93 92 90 87 83 68 78 80 80 68 62 65 74 80
97 116 119 117 131 123 111 79 65 85 102 112 103 86 103 99 89 85 97 107 104 103 98 92 92 88 80 74 74 76 75 79 81 86 80 75 86 82 81 70 64 61 61
118 119 130 130 121 101 93 98 108 121 101 93 87 86 75 70 105 125 95 113 95 86 78 71 72 86 91 70 75 68 73 76 82 90 98 95 96 93 92 88 90 95 89
112 115 123 136 140 142 111 88 106 94 87 75 77 72 70 84 191 139 117 93 84 70 67 63 64 58 45 45 55 53 72 90 92 108 121 108 75 111 117 99 94 88 71
110 119 147 173 164 148 107 99 89 77 68 67 70 79 81 74 168 107 95 77 73 59 55 56 50 50 46 41 56 63 56 59 84 78 94 106 98 104 106 106 108 105 87
109 127 178 191 157 124 98 79 63 65 66 68 80 79 72 72 127 96 73 59 64 53 46 37 34 28 36 74 57 58 54 54 61 83 74 69 75 74 82 75 70 69 80
94 144 189 158 127 98 68 65 64 67 68 79 81 78 70 79 119 99 82 76 64 50 40 32 39 25 16 36 42 38 42 40 51 61 54 42 38 37 37 77 86 88 86
120 88 121 123 103 66 59 61 67 70 78 100 92 79 92 80 102 98 85 77 54 43 35 21 6 1 10 22 31 40 28 -4 20 66 81 52 37 29 29 50 53 62 68
108 105 92 112 83 58 64 69 75 80 89 118 98 94 75 108 71 64 66 69 59 36 13 4 -0 51 84 50 29 -20 -41 -32 -43 -45 -38 -45 -38 -20 23 54 64 89 64
110 97 102 99 76 72 70 76 79 84 116 122 114 111 100 96 64 68 45 38 29 1 -14 -23 7 26 -17 -6 -28 -22 -15 -22 -17 3 11 6 -4 -10 -8 34 49 54 62
120 114 96 89 81 75 80 79 84 97 142 125 116 109 82 79 65 56 27 25 -1 -18 -22 -25 -49 -26 -20 -38 -47 -4 12 -6 -2 4 8 8 3 -6 -4 21 32 32 32
115 100 82 81 96 74 90 90 95 130 144 118 117 99 89 71 67 49 27 -20 -2 -24 -22 -28 -26 -16 -19 -21 -5 2 5 11 11 14 10 12 19 29 42 42 35 29 38
111 80 78 88 87 83 83 97 96 123 157 129 114 101 95 80 61 3 -14 -8 -15 -7 8 -17 -8 -3 8 17 6 3 4 12 23 24 19 12 13 8 15 16 24 24 26
86 67 89 90 94 89 77 70 172 162 155 133 119 118 95 71 -9 -2 6 10 4 8 -15 -6 9 12 20 24 7 -10 -13 -0 22 44 39 31 13 -14 -11 21 30 23 22
57 73 80 84 81 81 71 67 75 124 173 144 128 106 80 26 -9 4 11 12 3 11 1 9 19 25 26 22 20 16 -9 -16 9 23 31 23 16 -10 -22 -17 13 29 35
44 74 65 71 75 73 67 65 76 96 97 101 141 121 85 -25 -12 4 14 -1 -10 -6 -0 8 20 31 39 32 24 23 28 8 -10 -18 6 21 14 2 -8 -28 -39 -31 -11
34 50 58 72 75 67 58 60 72 80 89 103 92 105 87 -42 -33 -11 5 -14 -9 -8 1 -0 4 30 34 21 19 21 26 19 11 1 -8 10 20 12 -5 -20 -32 -37 -23
35 61 58 70 70 63 57 59 68 71 76 94 91 84 27 -59 -39 -18 -16 -9 -7 -9 -4 -2 3 19 21 19 22 22 18 21 21 18 11 1 11 6 1 -0 -10 -15 -21
43 49 65 64 71 64 57 56 61 66 69 78 90 90 35 -77 -43 -25 -14 -5 2 5 4 3 6 14 14 14 12 14 16 12 9 14 19 14 4 2 3 -3 1 2 2
45 57 60 71 67 64 59 54 57 62 66 67 76 86 40 -35 -61 -38 -20 -10 7 13 20 24 23 21 18 14 10 11 12 15 17 18 19 17 9 7 1 -1 5 13 14
49 56 62 73 68 63 56 57 57 58 65 69 65 61 42 -27 -41 -47 -31 -23 -2 14 24 35 43 43 33 19 14 11 16 22 21 27 29 27 17 13 5 6 8 9 10
43 52 60 75 67 59 62 60 60 65 61 60 65 60 49 23 -28 -33 -29 -26 -17 3 14 23 31 43 40 32 23 20 20 24 24 22 23 24 20 18 13 14 12 15 10
38 51 62 65 61 60 65 67 64 67 64 59 59 60 55 37 11 -15 -14 -18 -19 -14 -2 2 16 28 34 33 32 35 34 36 29 28 10 17 17 17 22 21 18 21 23
41 43 46 49 54 64 65 68 61 62 67 65 59 58 57 48 33 16 8 -3 -10 -11 -8 -6 3 15 21 26 34 33 31 32 29 34 18 18 21 24 21 26 29 27 33

GFSGL_con_3kmhel_009.txt.gz
Helicity
185 194 140 155 140 136 104 135 201 152 109 139 167 144 127 122 84 78 86 57 71 74 82 79 84 83 75 70 69 78 75 59 49 62 70 63 73 74 101 124 123 98 92
124 141 137 132 107 115 192 202 133 129 132 97 88 93 58 70 68 66 85 103 99 109 121 136 127 107 134 115 100 85 87 98 115 91 91 104 123 115 90 99 91 66 76
143 122 116 129 134 180 174 131 106 119 107 82 86 87 84 98 88 90 99 81 81 84 100 104 125 131 121 115 124 127 122 115 124 114 92 82 79 79 87 90 87 82 76
102 101 128 152 130 105 118 104 137 141 120 106 97 79 81 78 73 92 114 128 97 90 99 84 90 81 81 90 94 101 110 113 90 81 77 72 68 59 76 86 87 93 92
117 112 138 126 97 161 162 165 142 126 115 97 80 79 87 95 132 187 144 105 92 88 97 91 77 66 126 81 74 66 70 79 78 77 70 71 84 87 78 72 81 83 88
122 141 138 153 195 143 165 140 132 116 93 84 84 85 93 88 192 156 116 94 71 65 67 72 77 73 64 57 41 35 72 63 76 89 80 95 123 130 149 134 115 107 92
122 143 129 253 149 174 155 132 117 103 87 76 74 85 98 80 192 145 129 99 92 75 64 65 60 58 66 50 35 41 36 35 72 67 76 76 85 84 92 84 95 102 99
136 149 190 205 151 135 131 97 105 83 83 80 94 114 98 87 184 187 143 89 96 75 62 59 60 46 45 77 67 69 53 44 45 60 56 46 54 60 70 79 90 91 98
100 144 190 171 104 153 115 110 79 77 75 102 131 117 98 99 107 139 95 91 84 60 49 47 45 38 36 43 41 26 25 28 38 35 33 18 14 15 38 62 74 81 73
76 236 185 141 150 153 117 83 74 62 83 164 150 116 98 84 103 89 88 87 73 68 46 30 17 19 16 11 7 5 4 18 29 29 16 19 41 41 42 70 72 68 57
126 174 157 153 171 151 92 63 64 71 118 176 133 119 93 109 97 111 119 88 78 64 39 21 34 99 88 47 23 -4 -6 15 -6 -36 -47 -45 -39 -34 -36 19 50 66 69
64 198 206 125 165 110 69 56 85 87 124 137 133 127 118 115 133 139 92 56 42 48 -26 -21 -17 -4 -35 -43 -37 -16 -13 -26 -29 -8 4 18 24 8 -11 -10 26 52 68
195 194 146 139 87 66 87 79 93 93 130 131 116 136 121 128 103 93 63 12 -8 -23 -31 -34 -12 -26 -27 -15 -37 -31 4 21 12 6 14 13 3 -3 -3 -13 -14 14 34
73 113 132 96 92 72 81 91 103 119 112 110 136 123 130 113 95 77 -26 -25 -3 -18 -16 8 -29 -23 -1 9 -12 6 14 10 16 24 16 18 25 22 26 45 34 21 25
81 78 72 52 62 78 71 120 100 138 159 135 129 118 124 111 74 -21 -14 -12 -3 -1 24 -13 -16 -9 6 20 11 11 17 14 19 22 31 29 27 19 15 7 7 7 14
55 64 52 61 67 78 78 84 139 125 143 155 162 131 123 97 -2 -3 4 11 -0 15 5 -8 3 12 26 26 21 17 7 14 22 45 47 39 40 43 38 11 20 16 2
53 42 43 52 76 87 91 88 74 116 121 167 166 110 135 97 -17 -7 6 14 -10 3 -6 -3 8 23 29 22 8 17 23 11 26 30 39 44 42 45 43 11 -10 -13 24
39 45 47 53 77 90 89 87 76 79 74 98 162 155 154 102 -41 -23 -2 -2 -18 -19 -14 -8 -2 18 36 28 15 21 35 20 12 11 14 22 28 40 14 19 18 1 -11
58 44 48 59 72 75 77 77 71 73 72 81 85 112 112 68 -16 -56 -16 -20 -17 -19 -15 -10 -4 21 27 8 12 16 30 15 21 18 6 26 32 35 20 21 32 22 12
68 79 50 57 66 72 80 79 77 73 68 77 74 90 80 30 -75 -59 -29 -27 -21 -16 -13 -10 -5 7 8 10 10 12 18 9 13 26 33 25 22 24 27 26 26 23 22
67 57 69 55 66 78 74 74 81 77 66 68 79 124 92 37 -53 -63 -50 -31 -26 -16 -7 -4 -4 4 11 11 9 12 19 18 22 21 29 38 27 19 25 20 25 24 27
56 56 60 65 74 75 76 75 85 79 68 67 71 100 102 60 -3 -43 -49 -36 -31 -22 -9 -1 8 16 20 17 18 17 21 23 28 30 36 46 29 26 27 19 21 22 17
54 50 53 60 73 70 66 76 85 90 84 72 71 67 73 73 48 -14 -35 -22 -29 -25 -10 -3 3 17 24 20 16 17 23 28 30 30 30 42 35 32 29 25 24 27 28
50 46 48 57 66 63 62 74 84 90 90 75 74 78 73 67 60 40 20 4 -15 -20 -13 -11 -6 5 14 20 19 17 17 18 17 21 28 26 27 34 32 29 32 29 30
54 46 49 51 47 54 60 67 77 84 88 90 78 82 77 74 60 55 42 22 11 -13 -8 -12 -7 -6 4 10 24 27 24 23 17 20 17 20 28 33 30 28 31 27 34
60 42 44 44 41 46 61 67 72 78 83 88 87 82 82 71 66 60 51 38 22 11 7 4 -0 -2 -3 2 20 23 27 29 27 28 21 23 29 30 29 30 37 29 37

GFSGL_con_3kmhel_012.txt.gz
Helicity
301 235 177 166 118 118 158 228 225 133 123 105 124 114 108 109 112 90 62 60 65 76 81 74 89 84 116 113 85 117 109 95 71 41 55 57 24 16 3 24 86 205 163
252 213 157 141 190 212 211 203 145 94 83 93 99 124 134 135 116 91 86 76 88 90 92 106 86 69 62 83 129 133 152 145 115 62 35 42 50 31 59 98 105 99 105
195 147 192 185 246 220 134 124 105 110 127 150 148 133 113 99 98 98 102 137 159 123 114 118 137 112 101 91 82 92 102 119 137 128 71 60 49 41 37 73 95 115 117
183 178 204 314 302 187 212 181 191 180 175 153 132 122 116 111 93 140 143 111 89 69 55 68 67 109 100 82 68 98 87 80 54 44 28 37 36 34 35 47 75 80 72
244 80 162 248 229 387 252 209 211 182 161 162 130 108 93 93 135 129 96 79 80 86 75 71 73 72 94 96 77 81 80 69 55 65 45 51 57 53 60 80 98 106 115
246 99 195 206 165 369 187 168 197 190 198 146 133 108 105 125 192 169 135 98 88 91 71 68 85 79 81 101 90 26 77 89 65 73 49 42 39 50 48 66 72 91 78
69 196 301 349 246 227 141 195 200 253 182 151 122 139 192 190 212 188 142 94 80 84 90 89 74 76 79 70 98 125 76 62 65 47 30 31 45 45 36 1 13 54 64
83 144 164 119 177 71 209 195 267 243 160 124 129 188 218 175 144 145 147 115 91 70 78 62 50 43 46 62 48 23 25 32 35 44 39 38 60 63 78 74 74 80 72
61 94 134 116 282 60 178 241 276 170 128 156 163 183 165 138 102 125 113 136 103 82 68 64 58 50 38 55 47 27 18 22 32 28 52 34 21 22 31 57 53 56 38
150 65 128 185 145 227 251 223 128 130 151 168 171 115 94 134 127 162 169 147 105 73 53 33 22 44 93 92 74 59 31 21 30 7 -7 -13 3 15 15 68 84 111 103
136 104 90 103 49 81 153 168 105 165 155 158 130 110 131 129 164 143 141 136 99 61 46 36 29 25 5 -26 -25 -53 -62 -45 -30 -26 -18 -11 3 12 1 -9 40 83 71
116 80 88 91 43 107 143 123 135 152 182 156 112 135 148 171 149 137 168 85 -8 -10 -3 -1 -61 -10 -35 -22 -34 -31 -28 -32 -30 -12 13 45 51 74 84 25 2 29 85
141 116 99 73 77 120 109 98 124 181 169 122 121 139 147 130 130 141 30 -26 -14 0 22 7 36 -7 -14 -15 2 -10 -8 21 57 12 16 24 8 4 4 -3 12 20 6
137 97 83 78 80 69 87 114 152 147 123 122 130 143 149 123 127 79 15 6 13 31 29 64 -13 -31 -2 24 2 -8 19 7 16 25 15 42 46 34 32 17 48 28 10
100 81 83 65 63 69 79 116 129 125 123 118 132 144 145 132 116 -26 -12 13 28 35 47 4 -22 -9 29 16 -6 11 12 9 7 24 47 50 26 19 26 24 12 4 8
92 87 66 58 56 61 82 104 128 110 98 113 128 123 130 105 84 -33 -13 5 4 3 4 -21 -11 -2 9 24 -4 17 46 23 36 51 46 37 38 50 52 46 36 15 32
112 71 65 54 66 77 92 100 87 94 87 120 117 96 103 128 100 -43 -20 2 1 -17 -36 -21 -24 -19 11 20 9 23 53 7 27 62 35 42 38 69 38 26 32 11 15
96 73 80 67 63 65 75 82 87 86 86 91 116 114 155 109 29 -30 -34 -8 -23 -21 -35 -28 -32 -18 1 -5 -2 16 59 -5 4 40 51 69 61 69 19 18 35 36 49
84 132 113 63 71 74 77 81 84 83 86 84 94 122 156 63 42 30 -14 -30 -32 -27 -24 -24 -21 -3 2 -5 -7 6 28 2 -4 14 40 96 83 41 23 20 23 42 47
82 150 89 68 71 70 80 79 84 93 93 91 91 122 114 64 79 10 -19 -38 -42 -36 -23 -11 -7 -11 -8 -1 -8 -1 6 -5 0 13 39 76 87 53 51 12 26 29 28
90 123 98 83 73 79 81 78 84 99 106 99 95 134 111 81 74 68 -6 -26 -44 -44 -29 -14 -7 -10 -9 3 5 2 2 -2 6 16 39 71 80 39 65 12 26 27 12
116 85 75 69 74 80 81 73 81 96 112 113 108 121 107 94 107 85 73 24 -14 -24 -25 -22 -13 -3 4 10 13 12 12 12 19 29 36 63 68 35 58 33 7 8 16
89 79 67 62 63 83 73 69 79 86 99 122 113 107 102 103 115 104 88 79 38 -6 -3 -15 -20 -10 -6 -4 5 11 16 22 27 26 24 55 56 25 41 34 33 26 17
79 82 64 58 59 71 71 66 76 86 92 114 116 118 113 113 107 104 101 93 87 43 21 16 -11 -9 -11 -9 -3 4 13 11 15 20 23 49 27 20 25 33 22 67 18
88 90 76 61 59 56 56 69 82 83 83 88 110 109 116 116 109 106 113 104 94 69 50 33 14 6 -5 -14 9 4 5 18 22 21 22 33 22 24 29 42 27 57 28
153 125 90 63 56 51 54 61 77 85 83 83 88 104 106 123 126 119 126 121 100 95 57 66 37 25 -1 1 27 10 9 12 19 26 32 17 22 26 25 43 41 39 44

GFSGL_con_3kmhel_015.txt.gz
Helicity
197 151 123 129 221 253 201 219 196 121 152 72 61 105 115 126 111 83 64 56 65 79 104 112 105 111 114 60 35 -25 60 89 104 47 26 48 54 31 64 39 22 -81 103
106 133 148 164 310 238 238 258 243 144 73 100 142 148 160 130 90 75 67 75 69 53 35 31 31 19 48 71 105 71 47 28 55 59 9 1 39 77 31 61 63 39 -2
137 154 207 270 324 209 158 316 300 156 159 190 185 160 144 107 84 85 93 65 44 28 14 11 15 26 41 72 108 97 67 82 78 52 1 -27 -43 -25 27 -3 -1 33 54
204 158 159 179 204 241 265 347 385 124 188 188 180 172 156 123 147 137 125 102 66 37 27 33 34 39 66 87 100 95 85 84 75 49 12 -6 -33 -44 -25 -2 21 -4 7
157 166 199 163 228 298 304 482 233 45 159 193 179 161 174 163 171 176 149 100 58 53 44 23 21 46 76 107 128 131 125 104 68 53 17 11 1 21 28 21 28 69 84
141 112 140 228 192 209 193 155 25 141 191 159 151 186 206 167 182 165 141 116 103 95 90 67 47 57 82 120 116 138 127 99 55 44 27 15 30 30 47 30 -26 -19 3
146 131 125 68 33 17 68 75 58 225 213 168 158 224 143 148 172 142 144 162 131 114 96 78 66 67 78 77 70 65 56 71 66 31 -9 4 16 43 30 50 58 30 -4
148 130 74 17 1 49 125 45 203 267 179 199 194 138 139 121 111 111 177 150 149 113 100 74 67 67 72 67 62 57 44 39 32 11 -14 -2 24 34 37 45 54 60 61
198 164 114 79 76 115 108 139 194 159 164 192 136 130 97 69 85 207 153 140 138 118 85 60 49 47 35 60 72 56 40 35 35 28 47 40 22 -2 -0 36 52 32 22
205 158 109 61 95 82 84 41 100 157 197 157 133 84 38 90 184 164 170 191 148 93 50 36 12 10 39 67 30 -13 -18 -6 -14 -19 -21 -19 -17 -21 -10 16 61 63 56
168 120 90 89 92 85 98 102 121 179 176 127 92 58 82 134 136 161 185 137 83 72 69 67 53 -2 7 -12 -21 -44 -37 -35 -35 -35 -17 -0 9 20 31 30 40 84 87
136 131 101 103 98 102 97 100 136 142 125 93 69 39 66 104 118 128 95 63 47 77 85 84 85 38 22 -4 -14 1 -9 -29 -13 21 34 44 44 44 33 37 45 13 62
98 109 104 99 95 97 91 87 89 100 91 65 55 66 78 94 100 74 59 32 33 68 84 51 21 -15 3 23 32 29 4 8 -1 13 25 29 38 55 60 53 30 36 34
108 95 92 89 75 57 50 62 80 75 66 56 69 82 86 95 102 95 75 66 50 58 52 47 25 34 50 45 -3 14 19 12 2 17 41 73 78 45 35 31 15 13 -8
101 89 87 82 64 56 73 76 59 43 50 69 84 94 106 85 96 64 -1 7 38 43 45 49 20 -0 5 6 12 36 60 31 38 63 55 46 40 54 57 76 52 -3 -16
101 85 79 84 62 77 81 81 70 58 67 89 94 109 84 77 42 70 21 -5 22 21 17 -31 -32 -17 -1 12 20 53 61 17 41 68 61 58 59 84 72 43 24 18 -0
96 76 77 78 85 69 51 36 40 59 54 67 84 83 76 61 55 85 33 7 7 8 -18 -23 -39 -34 -15 3 10 32 55 21 19 51 62 91 103 76 54 22 24 27 39
91 77 116 114 69 65 59 57 68 63 64 74 66 111 106 63 63 78 58 15 -33 -17 -26 -19 -15 -19 -6 -3 -6 1 18 6 16 31 69 116 139 78 42 41 39 32 49
77 83 133 121 63 61 62 64 62 66 75 82 96 137 113 80 62 62 69 40 -27 -47 -38 -19 -8 -6 -0 -0 -6 -9 -7 -6 -0 20 53 85 134 118 83 43 39 38 35
61 102 117 88 63 62 67 71 62 64 75 87 90 111 108 99 64 51 61 71 18 -39 -43 -33 -15 -5 -5 3 4 1 -2 6 14 20 44 64 88 100 102 49 38 25 16
105 120 109 93 83 78 76 74 63 63 85 94 99 126 128 123 92 80 75 74 70 11 -30 -36 -29 -20 -18 -5 5 8 9 8 20 29 42 59 66 89 75 69 47 22 16
117 99 91 86 82 71 77 88 63 68 83 102 106 120 126 136 122 114 97 85 76 73 42 -8 -26 -26 -20 -8 1 6 14 15 24 31 38 51 60 76 46 46 44 34 26
116 84 79 79 69 67 75 80 67 80 80 95 110 110 125 128 133 135 123 98 98 77 76 59 -8 -15 -20 -19 -13 -8 8 23 22 19 28 40 47 47 32 32 43 43 33
108 82 76 76 70 65 79 77 74 72 80 85 95 115 118 118 123 119 122 114 121 91 86 94 45 -0 -13 -15 -8 -9 -12 -5 9 17 22 23 31 29 26 30 56 50 30
113 102 91 90 84 78 71 72 70 86 85 77 78 95 105 116 118 112 109 126 127 123 86 89 78 45 7 -5 15 1 4 10 10 15 20 22 29 30 37 31 34 32 35
132 127 132 127 101 82 76 70 69 80 82 80 78 74 84 91 101 104 113 130 134 129 119 97 86 61 29 40 21 15 13 12 18 24 23 20 19 22 31 37 37 28 42

GFSGL_con_3kmhel_018.txt.gz
Helicity
129 119 91 94 119 189 193 198 218 226 240 159 257 130 70 78 86 102 99 145 142 107 78 60 28 8 15 17 22 50 55 50 51 30 5 43 51 48 59 65 60 51 1
99 97 122 131 180 198 214 222 236 187 178 157 164 136 94 89 109 111 125 148 141 112 75 48 23 34 33 32 47 57 73 104 99 62 23 36 0 1 55 56 71 73 53
100 159 173 184 188 172 165 175 227 380 307 276 96 90 112 103 145 143 168 158 130 93 57 31 19 20 27 36 54 74 88 106 136 125 75 37 25 17 48 49 40 60 21
189 169 136 112 86 122 167 235 240 269 124 111 68 128 104 162 181 198 165 141 102 83 59 65 65 56 51 55 74 96 121 123 103 111 109 57 27 -4 -14 -7 27 47 48
178 147 123 57 100 76 58 148 136 105 106 71 108 147 146 182 169 160 144 112 90 97 106 102 88 80 74 75 110 110 106 102 93 83 83 69 49 19 -1 -6 22 17 53
165 138 60 62 77 43 43 92 88 118 185 134 178 159 153 158 147 125 110 116 130 127 114 114 114 87 82 82 80 94 113 101 81 83 75 63 37 31 33 24 28 30 12
161 67 83 109 65 30 72 108 138 103 71 223 176 177 135 128 106 108 174 153 143 130 140 124 97 86 65 94 72 57 65 63 68 63 69 66 42 17 19 27 24 24 57
109 122 131 92 40 31 81 115 134 74 147 113 129 116 123 120 120 131 140 139 145 143 109 82 85 73 73 53 66 64 52 52 57 62 56 41 35 18 13 26 30 40 50
163 131 96 70 50 54 115 91 79 91 139 136 122 142 118 88 112 129 157 140 129 96 68 68 71 71 45 27 42 85 47 44 44 56 63 65 59 28 5 29 38 41 38
128 106 95 68 78 95 100 114 120 114 135 149 142 127 115 88 101 115 138 144 109 76 69 71 48 47 26 27 31 54 22 -14 -6 2 5 5 -3 -11 3 16 53 42 40
114 102 90 87 101 122 110 129 122 137 133 119 110 74 77 89 80 93 94 127 97 74 83 88 97 36 15 -19 -6 13 13 -12 -15 -18 3 4 3 1 5 11 17 30 36
94 88 111 103 119 118 129 109 100 98 100 83 77 56 63 68 77 54 71 86 55 75 82 97 80 14 15 14 27 1 31 -15 -15 11 17 24 22 22 15 8 2 19 59
102 116 113 112 119 109 95 90 89 81 70 57 60 64 65 70 63 32 41 47 36 61 74 67 42 25 26 45 11 23 30 18 4 -5 10 26 47 62 60 26 30 31 43
142 123 100 103 95 95 98 94 76 51 45 50 62 69 79 73 62 63 71 66 23 37 46 76 72 46 49 47 57 62 43 35 26 28 41 52 53 49 50 48 26 2 -15
153 119 92 96 85 94 111 86 51 29 47 63 69 82 101 72 59 28 57 66 28 10 27 55 45 3 13 22 46 50 40 40 46 59 58 57 65 71 61 73 52 22 7
124 119 96 90 75 87 89 73 43 39 51 57 85 106 85 64 21 40 51 64 25 24 13 4 -8 -35 -41 -2 4 13 13 19 36 52 55 68 87 75 56 58 36 26 19
129 123 98 95 97 84 76 60 53 70 65 66 60 88 81 62 40 47 64 59 46 13 -12 -14 -11 -24 -31 -23 -16 -14 -9 7 30 49 67 94 101 79 60 43 46 26 48
124 99 90 109 116 91 63 64 58 58 49 52 53 76 99 75 56 54 54 57 37 14 -32 -27 -17 -21 -20 -15 -16 -21 -18 -6 7 30 53 88 105 94 69 45 33 25 28
102 87 70 99 94 72 57 69 63 56 53 56 67 81 106 78 67 69 76 69 44 32 13 -39 -32 -24 -24 -18 -13 -12 -20 -5 5 16 32 46 81 98 78 64 51 32 18
96 76 88 94 87 69 71 78 69 65 50 62 75 89 113 124 103 89 81 85 67 44 35 17 -35 -30 -28 -20 -21 -16 -10 -5 4 15 27 33 50 68 83 68 53 34 16
106 112 96 98 90 80 86 84 74 72 56 59 72 90 117 137 108 104 95 98 87 63 46 37 23 -22 -35 -33 -25 -16 -14 -5 2 6 17 31 34 46 57 45 36 37 25
138 126 111 108 95 81 81 72 79 72 55 61 63 76 93 131 118 103 103 103 96 88 74 70 43 30 -12 -28 -26 -21 -13 -4 2 12 16 20 25 34 41 36 41 30 14
135 126 104 83 74 76 64 57 74 69 56 62 70 66 86 100 105 103 107 102 101 96 92 96 68 38 29 -1 -14 -17 -19 -9 -2 7 14 21 22 24 28 25 34 27 30
132 117 99 78 64 62 71 58 63 67 66 70 68 63 70 80 90 91 90 89 98 98 103 107 96 68 45 30 9 -2 -10 -12 -8 -3 7 17 28 32 24 24 32 30 29
118 105 103 95 90 87 85 76 65 70 71 90 74 70 64 72 78 76 79 87 100 108 100 107 109 93 63 50 42 17 4 10 3 1 4 6 20 36 39 29 23 23 26
113 102 106 105 105 119 127 108 91 82 86 88 90 86 81 77 79 77 79 93 103 109 102 110 112 99 86 76 55 39 25 16 12 12 13 9 12 20 31 31 36 29 27

GFSGL_con_3kmhel_021.txt.gz
Helicity
89 124 121 143 160 144 134 143 172 186 195 196 182 109 188 139 110 94 63 70 99 120 120 115 100 92 92 88 94 100 106 109 119 85 76 53 73 41 72 77 67 89 59
137 148 155 133 106 89 103 136 150 212 233 241 219 196 82 136 113 84 92 161 152 138 120 110 99 90 89 80 85 89 109 123 143 122 112 126 92 71 76 58 68 90 87
149 139 127 109 83 69 88 134 170 194 210 256 191 148 129 94 91 121 167 205 169 139 126 114 116 120 120 102 90 87 92 96 117 140 131 130 113 91 70 71 72 99 83
134 130 120 101 88 106 131 113 132 175 175 134 124 88 138 122 147 176 161 171 149 138 133 141 151 151 141 125 110 99 96 97 102 107 113 117 112 94 88 52 57 42 67
135 123 96 80 95 97 93 91 110 133 134 109 180 177 169 157 143 142 157 137 132 141 152 154 153 143 100 112 120 113 109 112 103 112 89 90 101 108 90 75 49 29 37
114 117 95 125 118 113 85 74 81 119 141 166 110 146 147 133 123 122 127 131 143 143 148 152 147 109 105 76 64 59 68 97 98 87 63 68 79 81 77 64 65 50 29
145 154 161 129 116 94 73 83 93 111 119 93 119 164 141 134 129 142 146 142 125 136 147 135 112 113 87 104 75 63 61 41 70 72 54 52 52 63 63 67 62 51 42
183 167 122 121 126 100 92 84 86 104 116 129 157 135 126 115 139 121 126 118 117 128 119 99 96 99 96 69 79 72 57 63 62 65 55 46 40 46 58 59 64 38 27
152 128 128 143 129 105 98 85 101 102 117 136 133 125 130 120 117 104 110 102 105 111 86 83 76 75 58 40 69 75 76 43 37 16 19 30 37 59 52 57 58 33 30
137 135 140 140 129 94 88 90 107 123 147 136 122 128 137 113 87 88 85 91 108 110 84 69 58 61 41 30 65 67 61 39 1 -29 -9 4 14 13 15 29 15 25 34
141 134 121 128 119 103 99 114 136 155 142 123 117 109 109 95 76 76 71 80 96 115 84 70 82 45 41 35 44 55 17 -21 -27 -27 -10 -9 -5 -5 -7 -11 -0 34 49
143 132 131 135 130 136 138 131 140 138 126 96 94 80 82 76 70 68 60 46 60 104 75 73 77 43 43 26 36 19 8 5 -9 -13 -10 1 8 10 6 2 4 15 34
156 164 155 138 131 144 136 135 141 124 94 69 74 84 81 81 87 63 47 40 58 82 58 43 35 30 38 50 26 36 35 24 14 13 18 24 31 39 37 20 29 55 72
152 161 155 143 118 127 131 141 134 99 75 64 73 81 88 90 87 88 67 49 51 61 45 38 38 35 53 78 91 77 44 39 26 28 42 48 57 55 42 31 23 14 2
130 157 155 152 121 116 104 112 101 79 81 79 82 90 109 92 80 54 73 62 46 57 63 27 14 11 6 28 69 69 16 2 29 42 39 58 72 72 55 59 46 21 4
141 144 160 163 127 117 104 93 69 61 55 48 67 109 93 79 50 57 74 68 45 47 59 38 4 1 1 1 -14 -34 -41 -10 17 43 48 54 61 65 44 42 35 31 29
127 131 154 139 126 144 130 104 84 67 69 62 67 74 84 85 69 74 74 69 57 54 45 46 8 -11 -12 -15 -9 -17 -29 -16 14 15 33 52 57 58 51 36 42 29 32
128 133 139 123 118 136 128 104 87 93 73 66 62 65 73 87 79 80 80 88 71 57 53 39 42 -17 -25 -22 -20 -16 -18 -26 -18 -3 10 32 64 59 61 50 25 24 29
122 143 137 112 118 122 113 95 91 86 69 63 55 64 79 81 78 88 107 112 93 73 67 50 36 41 -23 -32 -31 -27 -23 -8 -16 -13 -3 6 32 49 59 46 40 28 17
126 124 131 119 124 119 108 107 100 87 69 61 52 63 83 117 106 103 107 117 114 91 74 68 45 36 37 -20 -37 -33 -28 -22 -9 -4 -2 5 15 15 23 46 43 30 18
111 148 155 144 127 116 118 114 101 92 77 69 58 65 85 114 102 108 101 111 115 110 95 85 67 58 50 37 1 -29 -32 -29 -25 -12 5 5 10 19 28 23 19 16 16
112 127 178 147 117 105 97 80 95 97 89 72 54 57 76 98 103 100 98 94 105 117 120 116 94 82 68 58 39 7 -26 -28 -28 -23 -12 -2 10 10 17 23 25 14 13
86 119 164 141 118 100 78 72 86 94 87 81 66 64 78 82 94 93 88 82 90 97 105 131 118 88 81 75 66 57 17 -21 -23 -19 -17 -8 2 10 21 15 16 20 28
105 124 132 123 112 103 95 83 85 93 87 81 80 79 75 76 82 85 82 79 80 83 98 119 127 113 99 95 79 66 52 24 3 -12 -12 -7 -2 10 16 20 32 27 28
116 128 133 124 114 108 103 107 107 98 97 104 98 107 97 74 81 83 87 91 86 88 81 102 111 116 107 106 99 84 59 37 25 5 2 -5 -4 6 11 13 22 31 35
94 124 131 145 144 124 128 131 128 126 117 116 125 130 120 113 106 97 94 97 95 92 83 91 94 104 110 117 115 105 75 56 41 25 19 11 3 7 13 15 23 24 30

GFSGL_con_3kmhel_024.txt.gz
Helicity
161 151 166 152 152 150 147 140 138 156 159 194 233 230 207 195 156 163 134 114 121 135 133 154 131 120 114 112 118 118 117 127 150 124 125 93 71 75 77 98 87 61 57
156 152 153 151 147 142 129 117 124 136 157 176 207 203 162 139 121 126 128 133 162 153 151 149 131 117 138 147 146 130 126 118 132 110 101 93 89 112 120 116 79 78 96
137 131 130 127 120 120 115 116 114 129 149 164 168 150 128 149 139 144 142 177 164 153 141 134 136 144 160 173 163 157 140 110 114 120 88 97 107 107 107 119 88 80 79
103 107 106 110 114 115 105 106 109 117 139 134 123 129 148 195 158 155 172 157 142 139 138 152 161 168 175 159 144 135 119 118 110 107 102 88 114 96 98 92 95 88 85
100 107 102 106 117 116 115 108 110 130 127 127 134 140 140 163 150 170 147 127 123 125 130 133 154 146 97 98 128 140 126 136 129 105 91 77 84 78 75 80 77 86 82
93 91 117 149 147 138 128 124 122 121 123 125 142 158 169 169 174 149 138 121 120 123 118 126 144 97 83 70 64 60 73 100 100 109 90 108 78 58 52 53 56 73 62
96 126 162 164 139 124 126 124 123 102 103 122 153 168 156 128 139 118 102 113 116 104 102 117 112 85 69 103 84 63 69 39 74 66 81 66 46 67 54 19 48 56 60
126 137 155 145 133 122 124 125 116 115 120 125 153 141 127 118 109 102 111 107 103 90 94 113 106 77 90 81 100 87 76 70 70 65 74 72 51 22 51 33 24 22 24
131 138 132 135 132 132 127 112 101 114 123 146 147 134 120 101 110 105 103 93 85 78 82 123 99 75 62 51 88 83 69 65 31 19 20 12 -5 6 3 15 19 27 46
128 131 133 142 141 134 124 109 112 128 148 164 151 122 113 105 99 90 88 95 94 88 89 100 70 63 42 54 73 74 87 52 7 0 19 20 1 -1 2 -3 20 18 58
147 144 146 160 151 133 125 121 131 157 167 165 140 106 104 106 82 76 69 99 94 87 85 93 81 29 19 22 29 66 64 41 24 -1 -10 -6 1 6 4 -6 2 24 38
159 144 153 174 165 141 139 142 159 159 157 139 116 92 91 89 73 69 67 74 74 98 77 84 81 13 13 18 46 42 41 38 42 19 2 -1 9 20 24 35 29 28 36
156 139 144 179 165 139 146 146 154 147 145 112 96 87 83 85 82 68 73 73 71 93 77 61 47 25 23 42 36 43 59 53 22 12 16 27 41 59 74 54 56 88 102
159 135 129 162 155 143 146 143 138 141 128 105 92 86 90 86 88 97 97 85 73 76 64 66 64 37 28 39 46 58 69 62 28 15 28 52 66 61 61 54 40 15 9
161 139 129 165 158 154 153 136 121 115 120 111 98 99 109 87 96 85 92 98 83 73 67 64 52 46 20 11 21 28 56 53 -9 16 29 41 51 51 50 62 48 22 3
156 154 136 145 171 162 156 135 102 94 75 72 59 113 95 93 83 67 90 94 78 78 73 64 58 41 32 3 -5 -1 10 -14 2 23 22 25 32 36 41 35 31 29 25
137 138 129 134 155 154 150 155 131 92 78 75 66 56 85 97 89 78 95 102 92 97 91 72 69 52 37 14 -10 -16 -8 -8 -30 -20 -6 16 30 20 27 12 22 20 20
127 120 126 130 153 147 135 156 149 132 112 90 77 78 57 68 85 81 95 126 108 110 108 95 73 60 48 31 -1 -26 -24 -19 -15 -32 -27 -16 -1 11 14 11 13 14 22
122 135 142 144 152 143 131 148 143 134 133 105 79 76 60 59 84 81 106 136 122 113 112 105 97 76 65 48 18 -16 -37 -33 -26 -19 -21 -25 -13 -11 5 18 20 19 9
103 109 115 147 161 159 149 147 136 126 123 113 88 83 77 98 102 106 111 126 123 116 116 114 104 99 84 69 46 3 -27 -37 -38 -30 -21 -10 -12 -16 -11 2 10 18 23
114 125 123 135 176 184 156 146 136 127 110 108 90 84 87 94 81 90 94 112 111 110 112 122 115 113 104 91 75 47 1 -24 -34 -34 -27 -18 -6 2 1 2 0 4 13
114 123 128 116 143 181 154 132 131 120 111 109 88 75 85 96 85 89 97 98 102 112 116 125 122 126 122 113 104 82 48 0 -19 -29 -28 -24 -14 -4 10 11 8 10 20
114 106 111 140 156 154 126 124 121 109 106 115 113 103 114 105 100 97 94 93 98 99 106 127 119 104 111 114 120 118 96 51 20 6 -20 -18 -13 -5 6 12 23 26 27
108 101 101 137 142 149 143 125 120 109 109 112 123 126 115 115 115 103 99 95 100 95 110 119 119 110 104 108 116 118 114 93 68 40 15 -9 -11 -2 5 10 22 23 33
101 92 98 123 130 145 154 149 140 134 137 140 129 130 129 137 142 123 111 114 112 110 102 110 109 104 101 100 108 110 118 101 86 56 43 22 -3 -5 2 4 13 21 26
86 78 84 119 134 136 146 163 166 167 173 179 173 152 138 159 173 151 131 133 128 114 100 108 104 97 101 106 104 112 121 109 95 69 59 42 22 12 11 5 12 15 24

GFSGL_con_3kmhel_027.txt.gz
Helicity
115 105 158 157 136 127 137 137 141 128 114 125 136 145 180 190 159 104 100 99 113 109 132 137 134 138 137 135 140 143 146 147 136 104 103 75 55 58 60 64 74 73 74
128 177 153 134 134 147 148 135 116 106 109 116 133 148 179 142 107 110 127 127 119 138 146 145 126 136 130 126 137 142 156 139 135 90 80 74 70 71 75 81 93 92 78
163 144 138 142 157 142 117 103 97 104 113 125 138 145 129 135 159 168 159 137 145 140 128 118 118 128 121 131 146 139 122 123 124 123 90 84 74 68 71 79 85 76 88
128 128 129 136 123 123 112 105 108 115 121 140 154 138 143 145 154 151 146 135 117 113 112 118 121 121 121 130 119 95 105 126 121 115 93 81 76 74 103 70 71 78 67
116 108 105 118 141 128 125 118 115 111 126 151 164 175 152 147 146 130 119 99 97 94 96 99 109 102 92 100 96 87 102 114 110 101 96 82 69 62 67 64 76 81 90
105 92 116 140 135 136 130 123 110 114 113 120 132 125 144 161 162 138 94 83 81 83 90 89 93 78 97 63 49 60 82 100 88 89 92 85 45 46 41 45 56 68 86
104 113 126 135 144 142 123 114 110 129 134 142 128 133 148 141 117 102 87 71 74 84 87 87 88 90 89 77 56 62 74 54 69 69 74 58 38 36 31 40 36 37 57
119 127 136 150 142 127 117 115 126 127 127 121 130 141 134 119 102 85 75 74 79 81 79 80 80 79 82 60 56 78 76 60 60 69 40 35 31 31 28 20 19 43 16
121 133 137 143 138 128 123 120 119 124 127 128 133 141 127 105 92 82 66 75 73 71 78 69 67 81 67 32 45 61 57 58 57 26 3 3 12 13 -1 -21 -15 11 13
145 133 134 143 150 147 127 123 127 127 128 145 152 144 126 91 88 78 70 74 72 75 60 57 65 68 38 23 42 65 77 61 40 26 18 5 11 17 15 -2 -6 -6 2
143 131 137 147 160 161 147 141 131 140 155 155 154 134 99 86 85 73 67 71 78 76 71 62 68 39 30 20 24 65 67 51 44 39 27 15 11 15 15 12 8 -3 4
126 129 138 139 156 155 142 138 136 148 145 145 140 115 94 86 85 72 61 64 78 81 72 70 61 33 35 26 32 32 43 56 50 36 30 21 20 25 33 34 34 39 27
118 128 150 144 137 142 132 130 132 136 134 134 122 104 89 86 86 75 66 67 79 84 85 63 42 37 39 45 26 27 46 59 48 28 20 24 38 59 81 63 48 65 89
127 148 164 147 123 123 135 140 129 125 126 121 106 97 85 79 79 79 82 86 86 80 77 75 63 48 53 58 27 21 28 46 46 28 10 21 28 32 46 64 62 30 10
147 136 128 130 113 107 113 128 131 122 117 95 86 97 83 68 70 84 70 86 82 93 80 80 69 55 46 51 47 14 12 12 32 38 19 19 23 25 35 42 37 35 8
124 112 111 111 106 100 106 112 122 109 106 92 70 88 79 66 74 73 63 82 83 97 85 80 73 63 48 38 34 23 -1 -7 -3 25 22 5 8 16 28 25 21 21 21
109 106 107 107 100 94 111 124 108 106 125 93 81 64 63 62 66 64 64 77 93 95 82 84 82 73 61 45 41 23 -3 -13 -9 -5 -19 -6 3 -0 3 1 3 7 13
90 96 96 102 99 103 106 114 116 96 107 112 104 94 71 58 66 60 68 79 85 98 91 84 86 84 74 64 47 40 7 -22 -24 -25 -20 -18 -15 -8 4 12 10 11 15
85 100 102 100 110 96 111 128 111 102 125 110 97 103 84 65 54 65 76 83 69 70 82 85 88 88 86 79 71 54 43 -3 -26 -32 -27 -24 -16 -15 -8 -2 15 27 33
88 90 86 104 114 100 98 131 127 118 111 100 100 94 98 106 90 76 84 88 88 78 75 81 81 87 88 89 85 73 50 27 -13 -24 -30 -30 -24 -17 -13 -5 1 18 28
82 90 78 85 112 92 91 100 127 119 96 79 78 90 120 109 74 67 62 87 89 81 77 81 80 84 87 91 92 87 73 49 21 -13 -21 -26 -24 -21 -11 -6 -4 4 13
105 109 86 79 90 96 95 87 106 119 101 85 77 80 125 132 98 79 70 73 81 86 83 85 85 84 86 85 84 88 86 76 46 19 -5 -15 -22 -18 -14 -5 5 9 12
116 114 97 82 78 71 77 79 99 116 102 102 92 87 99 120 121 106 87 81 82 89 98 103 97 92 93 95 92 87 85 83 84 68 20 2 -6 -9 -10 -5 6 19 32
106 103 87 77 70 69 65 70 82 109 113 104 100 103 105 107 115 114 113 109 105 98 115 118 111 99 95 99 98 95 89 86 97 89 68 29 10 4 -1 -3 6 15 23
98 97 86 81 67 63 58 65 74 94 120 131 124 124 135 138 113 114 119 139 149 130 129 137 124 102 93 93 93 94 91 93 91 95 83 61 30 14 9 3 6 11 22
81 88 91 90 73 65 54 51 54 66 83 95 103 107 120 144 174 176 142 133 165 161 135 141 127 113 109 97 88 94 104 100 90 94 87 73 51 38 27 18 12 15 23

GFSGL_con_3kmhel_030.txt.gz
Helicity
141 111 133 117 125 109 117 136 145 125 109 98 98 99 108 121 120 104 80 102 110 93 93 90 97 89 101 100 106 112 121 124 130 100 73 70 71 73 68 73 78 66 76
102 109 96 134 116 120 136 133 120 100 93 88 94 95 104 121 108 107 120 152 119 92 97 98 82 94 85 92 108 110 130 137 138 88 73 82 86 77 72 71 70 75 66
162 107 143 120 109 127 122 106 100 97 93 90 101 121 139 151 124 148 125 127 97 100 92 80 83 89 94 103 108 117 143 120 103 113 105 99 87 78 69 72 64 49 58
131 147 144 116 115 111 124 116 110 106 94 108 120 127 141 152 143 123 110 96 84 76 75 78 88 96 102 108 110 110 121 98 89 109 120 98 81 65 61 60 74 66 43
162 139 121 109 104 122 128 114 113 109 108 102 124 132 120 118 142 120 94 68 57 64 68 78 89 127 92 86 103 98 89 81 96 110 105 92 87 69 51 41 43 43 46
144 112 111 109 115 121 121 111 112 107 107 118 136 138 134 135 178 129 79 57 56 61 70 74 82 97 92 75 62 61 55 68 81 92 94 91 57 52 36 21 27 20 44
111 110 112 126 121 119 114 111 105 110 115 138 127 129 125 155 146 111 73 44 63 68 69 75 81 82 73 75 76 38 36 48 85 89 76 61 38 6 4 9 22 19 15
105 105 124 124 114 114 116 120 109 114 125 131 131 136 115 172 136 91 52 38 56 65 72 73 69 66 79 93 58 34 37 53 65 79 57 38 -2 -33 -25 -4 11 12 20
95 101 109 119 111 110 119 133 119 133 121 122 145 130 113 136 128 76 43 55 60 59 68 69 79 56 80 45 45 31 25 39 73 52 27 21 17 17 15 1 3 -20 -2
102 104 110 107 104 109 128 133 145 126 123 131 143 135 161 116 133 76 56 56 60 60 61 64 84 87 46 33 45 38 32 32 38 27 23 16 19 21 60 54 28 1 -7
90 94 88 91 106 111 129 138 128 113 138 144 151 139 121 106 98 88 69 54 62 69 64 61 65 68 34 26 32 39 32 21 43 35 25 20 9 1 4 11 14 25 15
79 74 81 101 128 134 127 127 122 116 125 131 150 118 99 95 87 84 66 59 62 69 58 63 58 39 25 23 34 26 3 30 46 41 23 9 -6 2 17 42 44 30 36
69 80 99 110 110 106 117 117 119 118 124 117 116 92 72 88 75 95 62 55 54 69 66 58 48 43 35 35 68 32 10 22 26 38 17 -0 -4 18 47 53 62 50 55
65 79 90 98 113 114 126 121 106 118 120 118 105 84 68 76 75 63 62 56 68 60 74 62 67 68 59 66 53 55 40 15 17 30 26 2 -11 17 28 36 64 69 11
76 85 89 109 105 110 110 98 103 103 115 115 103 85 75 74 71 84 63 53 56 69 58 63 66 67 64 65 61 55 46 19 -5 12 24 18 -13 15 33 41 31 36 31
76 82 106 111 116 106 91 98 107 95 135 116 88 95 78 76 72 71 62 45 54 64 47 47 52 61 64 62 60 50 44 25 -0 -14 -3 13 12 -5 20 33 29 30 23
69 84 100 116 103 93 99 98 94 99 116 116 106 95 88 62 72 60 56 45 52 66 47 40 48 53 58 65 66 62 45 36 21 -14 -26 -12 -16 5 8 6 17 27 28
72 104 102 96 103 104 99 110 101 108 97 96 95 82 95 83 64 71 63 51 49 76 56 42 42 47 53 61 69 69 64 41 17 -10 -31 -26 -20 -13 -3 4 8 13 20
110 102 107 111 104 98 105 109 110 114 116 88 72 128 96 89 86 61 49 81 49 44 45 43 49 47 48 58 70 76 72 64 36 1 -22 -33 -29 -26 -14 -5 3 23 36
120 110 112 84 87 93 103 106 97 105 107 101 91 74 66 133 112 85 81 82 62 52 47 45 48 50 51 53 61 69 73 71 66 25 -0 -21 -29 -33 -25 -10 -1 10 18
147 125 128 117 92 80 80 82 74 72 95 101 96 94 78 70 97 87 80 84 83 55 58 57 55 60 59 58 55 58 63 66 70 63 19 -8 -16 -28 -27 -23 -14 2 9
166 160 144 130 121 100 83 74 78 67 76 92 81 80 101 94 78 83 83 82 81 75 67 70 69 65 68 65 61 58 57 61 67 71 62 28 -8 -15 -16 -20 -14 -4 11
162 161 137 113 110 103 90 88 78 73 66 90 89 80 90 112 92 80 84 84 92 93 98 84 93 80 82 83 76 68 57 58 65 75 70 62 31 4 -5 -9 -9 -5 9
153 157 138 124 110 98 94 91 72 57 58 65 88 112 109 106 113 123 122 111 124 138 147 129 109 95 100 102 94 84 70 71 69 73 72 67 61 44 13 6 2 4 1
144 124 99 92 82 85 91 86 73 64 61 58 69 84 94 108 114 121 135 156 165 160 167 180 155 111 118 121 106 96 89 98 74 75 68 62 63 64 49 21 18 5 10
114 90 69 72 70 68 81 81 66 66 56 54 64 73 78 81 87 93 101 121 161 200 188 184 175 126 126 126 113 119 119 110 93 81 63 56 58 64 70 53 32 19 18

GFSGL_con_3kmhel_033.txt.gz
Helicity
320 337 242 117 113 125 135 136 136 137 122 111 101 103 102 78 91 171 92 60 92 122 153 116 77 95 110 78 86 101 120 119 149 136 109 95 88 87 89 96 89 82 73
390 335 174 47 109 132 129 137 142 127 110 95 102 92 92 139 142 112 136 184 191 171 135 127 137 95 97 94 100 111 122 116 138 123 105 83 73 77 85 84 82 77 79
311 176 103 85 112 122 133 143 136 119 102 92 89 106 120 117 120 129 176 171 120 117 112 85 77 77 80 93 113 117 114 117 139 162 114 89 94 92 82 70 63 57 47
291 236 66 178 134 129 128 138 126 117 98 87 100 129 146 85 155 143 146 150 133 89 79 77 72 75 96 139 105 114 113 128 124 120 98 85 90 71 69 64 42 46 44
198 101 148 168 133 111 119 115 123 112 97 89 105 163 126 132 154 192 138 118 105 73 70 63 71 128 118 100 90 79 80 95 100 85 81 90 87 77 67 47 44 35 27
172 126 166 146 110 104 110 124 94 101 104 93 132 140 136 152 307 210 136 100 69 60 65 73 76 89 124 121 55 98 75 71 54 71 80 86 64 53 22 23 21 26 23
148 185 152 113 96 81 105 100 100 117 116 101 125 146 126 181 277 194 126 75 52 66 68 70 79 91 110 121 121 82 56 46 82 90 76 74 62 44 31 18 -19 -14 10
238 163 115 96 80 92 86 93 104 115 121 112 149 152 139 228 284 181 103 49 54 60 67 68 78 93 141 113 78 52 45 38 35 67 81 61 38 16 11 5 -1 2 8
192 157 94 60 102 94 91 93 125 129 123 114 118 148 149 216 272 185 99 60 53 60 59 66 108 78 132 88 59 52 41 35 31 40 31 12 29 40 50 49 49 29 30
234 92 66 97 99 86 88 95 116 125 105 126 124 136 183 215 223 171 104 66 60 52 53 71 148 137 117 65 54 53 48 32 27 10 29 17 11 7 17 55 63 81 67
86 79 64 60 75 81 99 111 112 101 130 152 168 136 136 181 151 157 111 69 58 61 61 68 80 130 77 48 45 55 54 39 29 29 35 30 16 -6 -30 -43 -18 -6 -9
94 60 48 59 76 96 104 92 84 95 135 167 190 166 135 130 137 159 116 75 65 56 52 59 68 58 41 40 43 57 37 38 49 31 31 29 7 -8 -12 11 34 37 47
59 43 43 57 73 82 68 88 116 114 143 146 174 158 127 105 106 154 131 82 53 53 50 53 45 45 45 51 72 57 47 46 39 31 21 33 8 -11 -17 -8 16 59 96
31 32 49 58 77 91 106 88 137 150 120 147 150 138 133 130 108 130 127 85 40 50 40 59 47 63 70 81 67 61 68 61 50 30 14 30 33 -10 -26 -31 19 17 37
41 55 65 80 83 91 85 105 166 133 128 133 127 132 151 120 93 111 113 111 82 85 77 52 44 55 50 56 63 65 64 64 50 46 8 2 25 23 -14 -23 26 13 14
57 72 86 96 88 95 111 117 135 117 116 123 101 136 146 129 134 124 99 85 84 74 63 50 46 56 54 51 55 61 66 68 60 45 21 -12 -5 19 23 -15 8 18 17
68 77 87 90 94 126 124 120 115 108 117 124 117 115 125 115 108 93 90 74 66 75 60 51 48 52 51 45 47 60 66 79 68 49 26 -11 -18 -14 1 12 -26 13 19
74 83 83 88 131 137 109 104 113 113 110 121 117 104 100 103 96 86 89 82 77 88 54 47 53 55 54 41 45 51 61 66 68 63 39 5 -24 -27 -24 -15 -10 3 20
106 118 136 146 139 112 115 116 106 112 106 99 99 127 113 91 95 91 96 109 80 81 71 61 54 61 60 48 52 66 63 60 64 66 60 31 -14 -29 -31 -22 -16 -6 25
121 155 198 180 165 139 137 126 113 114 112 101 97 108 124 119 129 120 121 119 101 77 90 58 49 61 70 70 64 69 60 57 58 66 66 60 26 -21 -31 -27 -22 -11 -0
170 174 210 206 195 166 154 158 123 108 110 99 86 95 128 117 106 100 120 119 117 106 108 85 74 73 84 88 81 70 67 56 57 58 61 59 57 20 -21 -26 -22 -18 -8
185 215 189 166 168 155 144 150 136 99 93 89 75 83 117 122 114 82 75 101 109 107 113 114 95 98 101 94 84 85 80 68 69 57 55 64 54 45 25 -20 -19 -12 -9
191 198 165 158 154 122 116 126 128 108 93 92 77 66 96 132 129 120 98 79 88 99 116 126 136 125 126 128 138 110 93 81 79 80 60 56 53 48 45 25 -9 -11 -1
156 148 148 172 140 111 103 93 83 87 92 87 88 65 63 87 109 117 111 117 124 119 106 137 168 171 152 141 168 156 108 102 114 89 69 55 53 55 52 45 30 13 -4
135 164 176 133 108 93 86 75 66 78 94 89 85 70 54 61 71 87 99 111 118 129 147 166 184 196 175 155 188 173 119 125 117 92 86 59 52 58 55 53 48 35 26
119 111 155 137 103 82 78 76 76 86 99 85 72 76 67 57 62 67 74 75 80 98 115 160 202 237 234 156 170 188 152 178 150 128 89 69 60 53 52 55 58 54 46

GFSGL_con_3kmhel_036.txt.gz
Helicity
511 426 468 419 371 288 195 169 201 189 153 156 143 138 121 116 182 164 163 176 207 222 232 231 225 164 106 127 118 154 149 155 166 154 142 140 146 113 73 66 63 70 80
418 466 524 355 241 139 253 153 202 186 159 144 139 120 117 174 187 177 147 166 204 228 188 174 152 135 156 162 117 121 135 132 137 156 161 133 118 89 83 78 86 72 83
443 593 403 260 287 207 132 188 223 205 174 150 137 131 122 211 149 170 158 167 157 172 137 134 141 132 104 108 137 119 112 136 152 163 135 108 104 83 75 83 70 80 58
601 379 387 474 132 325 179 216 228 187 178 139 136 127 185 218 171 168 150 164 174 168 155 150 126 101 144 125 116 117 120 125 113 107 108 95 81 74 85 79 87 62 71
484 511 318 299 273 192 181 182 157 178 149 131 127 109 219 197 155 232 233 208 203 162 121 116 118 124 104 144 131 120 134 122 106 97 100 91 81 84 84 80 53 75 27
466 360 284 177 386 199 172 156 133 120 123 141 148 123 221 213 270 249 233 200 157 117 104 115 110 92 140 134 151 190 115 130 115 126 128 113 97 82 73 56 39 32 7
367 256 356 431 237 188 149 122 119 133 151 128 122 145 193 252 275 251 231 180 142 99 103 102 94 97 187 162 148 112 77 56 77 101 115 96 105 101 67 53 48 57 37
491 440 282 199 173 144 118 107 89 103 145 163 145 117 176 219 288 258 218 164 113 98 95 100 93 117 177 148 111 85 84 74 60 83 80 78 86 54 68 79 81 84 79
389 330 237 214 219 110 112 110 111 128 145 162 135 103 151 268 278 279 227 165 122 104 91 74 88 113 205 160 106 88 74 66 49 33 14 20 19 22 43 78 105 133 117
750 595 347 127 95 76 88 91 117 129 147 144 185 220 237 261 237 237 205 159 138 104 72 80 131 170 148 105 102 105 90 69 60 57 62 60 52 39 8 2 4 -13 13
389 320 123 75 74 48 63 122 134 125 118 127 182 193 193 209 223 216 172 158 126 114 100 74 113 126 87 60 82 108 97 81 61 78 66 45 43 20 -1 -5 23 37 42
229 119 87 60 56 59 70 101 103 96 100 140 202 211 206 164 207 200 164 142 131 125 89 70 81 77 36 53 72 68 62 69 94 85 62 58 34 32 12 9 15 21 33
121 95 54 38 47 66 85 88 116 120 157 175 172 198 187 166 140 184 171 144 125 121 81 54 51 44 32 60 52 98 99 98 90 84 75 58 35 60 18 -9 -18 3 23
24 10 42 68 80 83 87 101 121 131 197 199 156 150 170 193 173 212 177 150 117 118 60 55 68 70 73 75 58 67 124 113 110 109 90 68 47 38 47 14 -3 -18 4
31 53 61 85 83 88 92 103 138 152 169 171 168 155 166 166 169 190 194 158 157 137 119 97 68 57 73 68 63 73 91 95 99 101 86 84 52 5 28 55 22 -5 27
88 101 107 118 116 108 100 117 135 135 130 130 126 153 170 152 179 176 148 138 157 175 153 104 72 54 76 78 67 65 83 86 118 89 99 80 57 9 3 48 50 3 8
118 118 136 133 142 135 154 152 123 115 87 108 121 124 123 128 135 151 126 119 117 148 170 110 75 58 77 81 66 63 77 102 104 98 91 87 68 24 -15 -13 -2 29 -6
161 144 163 168 158 170 197 160 159 144 128 115 102 109 107 102 97 117 132 128 150 140 147 127 82 60 71 88 74 73 104 105 84 83 76 84 84 67 -16 -27 -22 -15 3
176 200 192 189 222 243 222 190 190 170 135 121 114 112 127 89 94 104 106 149 139 151 145 144 105 69 53 100 98 103 110 89 82 85 70 74 73 74 27 -25 -33 -24 -11
153 157 178 206 229 226 218 212 204 198 164 143 116 121 115 124 170 155 161 153 144 130 113 127 128 105 68 110 124 132 113 98 83 79 79 77 67 71 69 17 -33 -31 -26
174 173 165 178 180 158 151 136 149 137 139 176 118 111 101 117 110 179 160 159 148 132 121 117 140 127 99 107 146 142 120 103 95 93 87 70 73 58 69 61 4 -32 -28
168 171 182 187 174 151 142 143 121 114 108 152 131 92 80 108 109 153 141 139 149 154 143 135 151 156 130 137 169 158 133 125 118 113 94 84 75 49 48 50 38 7 -24
189 173 154 176 164 126 117 144 106 98 94 85 132 125 95 101 84 159 147 134 108 102 123 135 135 155 159 176 187 179 176 171 142 133 122 113 76 47 54 43 41 26 13
129 129 125 111 92 107 142 118 94 79 75 62 92 104 94 80 71 57 124 163 146 125 127 141 141 144 166 195 211 222 231 210 179 192 176 146 93 55 60 54 45 36 30
100 108 105 119 78 81 150 109 106 89 69 60 72 87 105 84 76 70 59 74 103 121 122 140 151 156 178 218 251 237 232 230 246 219 180 133 87 70 74 57 50 47 36
84 119 130 99 57 46 246 214 138 115 106 82 70 76 80 78 91 91 72 70 70 77 74 79 96 119 150 208 258 273 278 233 248 244 203 128 87 67 62 62 59 63 41

GFSGL_con_3kmhel_039.txt.gz
Helicity
503 489 511 475 437 350 339 454 479 257 234 202 168 140 125 125 174 149 134 112 168 199 208 211 190 158 160 190 213 184 147 122 118 88 85 74 78 81 53 47 66 69 75
522 575 590 511 402 326 312 428 259 242 210 179 151 137 120 149 157 153 158 152 165 166 166 167 148 179 169 160 131 113 93 71 91 89 94 83 76 74 88 82 76 75 80
519 591 558 459 336 436 484 220 262 210 224 210 165 137 143 165 188 172 153 166 174 160 167 170 146 143 146 133 116 107 88 84 114 138 118 94 106 105 99 86 81 73 65
613 562 474 457 489 473 349 411 163 205 219 179 139 120 115 197 196 165 182 240 234 206 177 157 146 173 146 125 108 91 106 122 122 122 104 93 96 96 103 80 54 58 33
616 612 567 570 601 609 351 233 254 164 122 116 100 97 127 187 204 184 209 228 209 185 157 132 155 133 108 103 137 124 129 121 118 117 107 98 95 93 83 80 70 51 50
645 675 604 636 545 410 432 417 129 139 103 122 112 110 114 201 231 228 215 205 188 166 128 114 124 127 163 170 171 155 130 109 105 132 105 102 87 77 76 77 77 65 77
603 603 613 607 644 622 358 179 200 136 118 98 111 135 132 207 232 235 215 196 188 159 121 121 124 154 148 138 136 115 92 73 107 116 112 103 89 83 99 62 63 99 129
675 709 685 729 664 448 417 444 141 111 95 93 138 151 141 196 210 218 221 215 194 160 130 134 121 127 128 131 118 93 75 80 83 95 114 81 89 91 100 89 81 108 88
781 816 899 749 818 627 279 103 115 61 90 109 148 148 150 186 201 225 243 211 185 157 129 120 123 144 122 129 101 68 63 76 64 54 43 46 45 49 52 55 44 3 -15
1076 1003 857 657 278 108 62 67 48 101 103 127 131 192 187 187 189 213 216 220 190 152 121 139 147 119 118 102 80 78 79 80 79 77 78 75 80 70 50 53 34 3 8
798 549 194 88 70 39 41 77 93 93 97 104 129 148 178 205 189 175 174 220 190 161 133 112 121 106 85 54 55 104 114 95 95 87 87 83 65 55 56 54 43 30 6
213 110 91 68 75 49 39 64 94 101 110 113 130 164 182 184 182 164 169 178 167 173 133 110 89 85 60 43 56 57 56 84 115 103 112 80 77 52 47 62 41 27 34
124 106 69 47 49 70 96 97 107 112 125 138 198 183 172 168 182 184 173 166 169 178 145 105 60 55 35 41 36 37 53 113 123 116 116 101 89 80 36 26 41 35 30
92 76 68 79 89 94 101 114 126 125 136 150 180 178 168 164 162 212 216 188 150 162 123 114 101 74 58 61 48 49 75 96 121 126 115 104 95 72 55 41 58 49 18
68 78 94 102 105 116 126 132 140 144 163 184 184 187 179 172 172 182 189 199 190 167 165 156 132 101 76 58 63 66 67 84 103 126 99 82 79 71 54 35 34 40 13
114 129 126 133 142 153 156 153 145 156 127 103 93 154 165 142 142 149 170 153 136 139 202 205 172 126 78 56 71 61 59 71 119 104 89 85 73 74 64 15 15 14 31
130 151 175 172 184 184 187 193 176 191 120 87 79 80 66 91 131 134 123 152 146 197 224 201 182 132 77 54 77 76 66 82 113 94 90 73 66 74 68 30 -11 -9 2
140 173 220 249 267 257 253 240 261 286 199 193 153 104 85 60 81 103 148 138 184 174 207 187 166 135 101 66 59 78 77 136 112 88 74 63 58 72 59 52 -10 -22 -16
183 197 207 225 241 245 237 245 230 207 171 128 181 161 122 79 59 85 119 162 213 194 191 168 166 140 118 84 60 75 129 135 106 80 77 62 56 72 55 51 53 -35 -29
139 159 173 182 188 196 209 191 183 159 186 149 165 142 162 154 125 118 107 141 206 173 182 164 161 145 111 87 76 89 142 131 101 85 73 69 66 76 57 48 56 9 -34
159 174 185 187 189 177 174 174 161 153 149 127 105 128 129 132 112 101 114 145 187 164 143 156 148 165 142 113 125 117 133 132 106 93 99 96 102 75 46 47 48 25 3
162 152 143 142 141 134 109 83 152 122 144 120 111 111 90 122 135 100 93 131 203 193 151 142 129 136 140 122 111 150 177 164 136 134 125 110 108 82 53 46 39 38 26
147 156 146 116 129 127 120 44 47 114 136 118 91 86 67 113 117 99 84 66 144 242 168 138 126 135 141 140 135 141 177 184 166 159 139 132 126 99 77 55 43 39 37
155 151 124 116 171 159 131 124 97 140 121 117 106 71 62 76 89 79 74 43 62 162 177 146 126 126 135 144 154 171 169 179 192 183 185 177 154 120 97 71 58 49 43
128 127 132 125 133 131 146 134 153 242 287 227 152 103 67 61 50 63 84 96 54 61 86 124 128 115 123 151 167 185 209 232 228 232 217 212 174 148 124 90 67 55 51
122 106 96 109 128 145 136 127 72 85 56 59 137 152 126 106 88 74 54 19 80 126 67 76 57 58 76 94 113 180 249 292 303 278 253 204 163 139 121 78 64 60 60

GFSGL_con_3kmhel_042.txt.gz
Helicity
451 483 505 487 426 402 406 380 373 601 418 323 179 166 172 138 115 129 126 118 110 100 132 145 152 171 175 169 153 155 157 146 147 103 94 61 71 67 77 96 98 105 98
508 546 549 552 514 498 469 490 401 365 308 218 213 223 183 129 93 122 111 124 114 127 145 157 151 154 150 134 144 134 122 99 100 97 97 97 85 82 96 98 96 90 86
586 582 595 577 558 538 511 335 389 373 303 286 263 214 137 94 118 129 124 123 138 142 179 181 157 144 132 141 131 113 108 108 112 120 127 122 112 95 91 94 94 80 70
544 571 565 529 464 441 484 540 540 457 367 358 270 169 143 149 118 128 141 159 176 177 182 163 138 130 133 124 124 124 116 108 109 121 123 115 107 85 101 92 67 74 78
549 582 509 515 584 589 574 593 608 515 549 370 238 133 163 171 139 146 198 200 206 182 171 156 138 118 109 112 143 116 117 104 105 105 108 101 82 72 68 73 82 75 70
657 658 666 644 650 671 650 738 696 595 567 282 136 195 137 132 98 142 226 231 203 179 174 164 145 125 137 144 136 126 107 97 95 110 117 105 84 97 84 82 84 82 51
623 629 646 669 741 707 808 775 732 414 128 145 138 96 100 118 126 169 206 231 214 188 169 172 147 157 149 142 127 111 98 89 100 122 111 99 87 79 82 73 82 99 90
800 795 791 816 930 1051 930 342 110 109 80 61 58 70 115 141 136 158 209 234 213 187 178 180 145 131 135 145 121 99 84 78 85 106 123 110 109 103 94 85 90 45 51
829 860 941 1015 742 431 110 48 54 45 49 72 85 93 126 139 144 182 227 248 217 180 172 157 132 125 130 124 116 82 66 66 72 77 81 65 55 53 75 87 70 18 -1
825 802 756 290 158 97 112 69 61 95 90 92 103 105 106 143 161 185 220 262 236 206 169 150 126 136 127 117 109 75 65 65 73 81 103 92 80 70 52 94 100 46 19
463 364 92 103 102 96 112 127 110 99 117 116 115 123 129 163 189 177 187 259 240 213 182 166 155 115 117 104 71 88 81 67 60 81 103 100 98 79 80 77 76 102 34
118 136 161 151 117 101 102 115 123 130 131 127 138 137 152 159 172 167 157 188 208 223 191 171 158 110 93 85 61 53 39 61 92 95 95 91 95 88 69 66 62 79 98
185 165 129 105 102 108 127 135 148 146 156 154 168 169 164 172 193 160 160 158 177 230 204 171 132 102 74 73 48 34 45 78 80 94 86 104 110 105 75 70 62 52 78
135 108 99 101 112 128 144 155 175 182 181 178 198 191 192 201 195 184 201 177 148 201 193 164 152 146 123 102 77 53 72 80 90 93 102 106 94 80 89 100 70 36 32
94 104 118 141 150 153 162 190 208 210 215 211 228 226 209 171 160 161 198 200 197 199 199 206 187 159 129 115 95 69 72 73 88 100 121 103 86 73 78 94 82 35 21
104 112 130 144 157 183 207 212 204 199 179 185 185 216 204 157 105 97 107 118 138 161 223 212 190 179 154 128 103 66 71 66 74 105 116 103 88 72 70 69 72 48 -1
122 131 151 174 198 210 213 234 233 192 165 149 141 188 140 113 96 97 86 95 109 144 244 235 191 188 150 134 113 90 70 52 76 116 111 90 80 66 62 54 46 45 -4
121 124 147 158 176 184 198 221 233 237 225 184 149 123 81 58 78 98 99 96 126 138 252 219 197 190 160 138 120 99 74 74 107 125 110 88 80 70 62 51 42 39 23
117 129 142 155 172 186 190 194 203 208 207 176 140 142 100 77 76 95 75 122 133 187 197 218 196 169 151 137 122 113 87 82 121 138 107 88 78 78 61 51 42 30 28
132 142 155 168 165 159 167 163 155 142 137 151 157 137 135 153 135 93 125 131 119 142 160 172 191 164 146 131 111 97 85 78 106 119 98 91 84 89 73 56 41 40 41
125 136 152 164 161 161 140 143 145 139 124 97 120 130 108 127 109 87 92 129 102 113 136 161 174 152 147 133 109 94 93 84 96 97 99 93 99 95 74 65 48 34 34
148 160 163 163 160 152 159 187 172 153 142 114 97 98 88 99 63 61 59 100 110 102 109 139 174 155 137 124 116 112 97 106 112 116 114 112 115 91 95 82 60 45 37
169 164 160 148 131 140 163 148 170 190 154 109 102 118 196 84 66 72 81 69 85 57 66 129 187 154 127 117 120 115 119 118 121 150 146 138 133 119 110 97 78 58 48
168 148 138 123 114 115 124 154 130 154 130 133 146 224 200 131 122 90 82 81 89 103 52 60 155 211 126 116 119 126 123 115 136 145 158 166 154 140 131 122 101 75 57
149 130 127 126 112 108 104 110 113 109 83 48 60 56 106 137 97 108 78 78 67 84 79 73 59 113 150 132 123 122 125 135 171 172 164 166 158 160 146 134 122 94 70
138 137 129 128 125 120 104 89 84 77 71 55 -4 45 67 52 51 88 88 105 114 104 106 83 87 53 47 68 72 76 116 148 175 220 216 197 188 172 156 149 119 102 84

GFSGL_con_3kmhel_045.txt.gz
Helicity
302 339 395 457 529 550 503 523 498 481 537 404 325 249 292 232 212 245 213 164 155 165 130 109 83 114 128 141 153 158 161 165 166 120 102 68 74 67 74 94 83 83 82
362 448 448 477 454 526 533 535 533 544 404 304 317 333 284 277 284 250 160 182 208 217 123 108 81 126 141 139 146 143 155 142 145 125 98 77 85 96 91 87 84 80 87
465 523 477 450 481 510 498 483 372 369 398 299 301 266 339 295 183 135 167 194 181 144 146 141 133 158 141 150 150 147 143 135 128 124 96 99 111 113 94 87 82 78 78
501 467 431 483 537 488 443 456 423 432 475 348 414 501 367 140 141 163 177 158 166 172 183 181 165 143 129 134 137 131 145 136 123 110 106 110 126 100 92 67 46 64 72
515 488 532 587 534 483 490 480 347 560 591 720 632 221 130 153 129 131 141 170 189 208 212 190 177 141 134 134 165 140 154 145 122 107 107 126 110 88 75 74 67 58 60
519 561 577 571 532 549 622 743 796 912 645 178 165 149 132 110 86 84 143 194 234 243 227 212 207 153 150 130 123 129 149 144 121 119 126 128 113 96 94 66 56 56 39
566 585 640 678 751 783 780 733 676 284 147 148 162 108 85 91 78 91 121 217 250 253 243 239 215 189 189 176 154 149 136 105 106 128 136 128 119 108 86 55 54 83 96
644 722 780 828 808 735 670 480 198 92 134 140 120 86 98 104 97 104 129 231 266 252 255 257 202 184 165 166 172 163 132 106 95 103 125 112 111 98 115 89 66 65 78
731 729 675 604 559 484 329 75 98 145 122 150 109 125 145 133 100 113 191 247 274 260 258 245 214 178 124 107 173 153 126 89 72 64 69 65 60 62 75 98 75 64 58
541 577 667 619 286 67 80 124 136 130 138 126 144 146 144 153 130 135 203 294 290 257 251 249 176 176 131 117 175 158 127 82 81 84 85 78 83 87 69 111 115 84 71
326 240 101 85 113 134 136 140 137 132 140 149 161 170 170 172 164 146 174 296 270 261 269 247 213 157 138 117 123 162 126 87 74 80 81 87 91 94 99 104 104 114 105
126 156 139 128 122 122 127 122 120 136 156 171 191 193 199 183 167 161 157 182 207 261 252 216 199 160 132 116 117 107 70 78 87 86 88 81 95 93 91 92 91 93 114
150 130 119 112 112 106 117 126 155 165 191 205 226 222 203 212 207 159 140 144 149 245 210 194 182 155 157 145 107 79 81 99 88 98 83 89 107 90 80 79 78 77 72
134 133 125 123 120 123 141 159 180 198 215 231 243 246 240 252 240 202 198 181 135 161 180 174 191 168 205 206 163 112 118 109 95 88 95 91 87 88 88 81 74 75 53
133 125 117 107 107 110 125 145 174 191 219 231 245 263 266 244 243 177 167 200 194 171 183 213 198 186 192 187 176 130 121 114 110 98 105 102 98 92 90 70 72 57 62
107 87 76 73 80 92 103 101 112 122 127 155 171 228 227 187 139 141 131 187 100 114 183 207 217 205 180 172 181 145 138 116 100 92 94 103 102 94 85 68 68 68 58
91 85 83 93 99 110 124 146 155 128 118 115 124 126 139 145 114 132 94 74 96 113 184 176 174 170 185 173 170 157 128 125 108 104 106 113 106 95 84 75 60 60 54
90 99 94 101 116 135 154 166 180 189 185 155 108 97 98 104 99 67 50 71 122 143 165 163 183 149 173 159 159 147 126 113 115 95 105 119 113 111 87 74 59 57 54
80 84 102 110 127 148 160 172 170 164 164 157 130 103 103 98 83 49 58 99 97 125 122 128 151 163 161 177 168 143 131 115 111 103 105 115 109 113 81 69 59 43 45
85 103 116 129 142 156 163 157 157 156 132 129 150 140 217 203 152 116 91 99 111 111 112 138 148 157 157 152 161 132 117 118 109 100 94 113 110 108 85 75 71 54 46
95 108 136 144 162 150 150 144 145 145 132 110 128 131 112 87 71 66 62 62 64 84 72 134 121 123 155 161 154 133 112 107 111 106 104 117 125 102 77 85 68 58 45
112 115 139 142 145 147 136 125 124 129 121 127 97 80 127 144 162 181 140 86 95 58 85 101 78 111 145 160 146 132 116 111 107 112 107 113 125 102 106 98 78 70 57
130 151 154 156 153 144 135 130 128 121 107 101 105 83 38 63 52 146 122 87 66 90 100 85 61 60 131 192 145 119 114 106 119 122 114 116 126 127 135 107 93 85 70
157 153 162 154 147 140 138 131 126 107 89 80 88 81 11 33 15 38 56 82 128 94 75 69 74 57 48 180 178 121 100 101 116 113 113 126 137 148 149 130 119 97 86
159 159 149 156 145 134 128 119 107 88 83 81 88 75 55 1 -5 19 46 83 114 100 114 85 88 102 80 100 197 168 108 95 115 132 140 143 150 171 164 147 152 123 104
151 149 135 145 135 123 118 99 84 74 77 83 89 79 62 38 47 50 29 38 75 98 118 105 120 165 184 93 66 76 76 82 103 134 156 168 174 182 183 155 144 137 120

GFSGL_con_3kmhel_048.txt.gz
Helicity
243 235 251 272 269 281 287 347 395 532 603 488 394 317 290 278 350 315 410 146 117 144 174 179 148 137 131 124 144 175 191 219 228 197 160 136 123 89 76 86 86 98 100
243 235 226 252 274 289 324 409 439 446 425 473 222 316 378 507 324 401 131 130 161 182 165 149 112 159 163 178 199 178 187 202 218 181 167 134 105 86 82 82 87 87 98
272 291 299 302 344 364 396 400 394 396 432 320 356 256 323 385 206 127 158 160 179 172 153 180 167 194 203 233 215 198 204 189 196 204 164 134 94 82 68 81 80 85 82
312 356 385 396 358 318 355 378 360 393 367 460 337 393 384 165 151 186 221 176 143 160 177 211 211 225 221 220 232 209 213 202 204 199 165 131 96 78 79 72 72 76 69
343 364 397 365 328 384 425 450 522 455 415 465 632 288 163 192 167 183 130 153 186 190 218 232 244 232 189 205 256 223 233 217 199 182 153 129 93 81 69 87 83 74 61
312 333 343 375 444 484 572 635 613 611 517 458 183 185 197 150 125 102 131 177 209 234 229 244 264 217 203 203 166 169 211 236 203 201 159 117 95 85 94 89 86 57 51
392 444 491 547 566 590 534 594 471 484 279 164 156 164 123 113 86 81 114 189 218 235 248 266 280 273 237 218 188 185 193 167 206 183 149 116 109 99 88 75 63 74 71
462 490 499 532 565 596 564 509 350 233 105 117 126 115 112 106 103 122 120 173 217 223 249 265 275 272 241 226 227 215 201 191 165 154 133 108 101 83 92 87 87 102 107
390 427 463 476 434 429 462 315 99 124 130 120 121 117 129 131 126 129 150 196 216 215 232 263 261 271 194 182 238 188 170 157 133 96 65 64 57 48 54 95 81 88 72
344 328 310 298 325 133 104 112 137 130 120 121 117 125 142 155 140 140 165 241 247 238 237 242 193 236 199 206 216 208 186 143 149 125 105 81 67 68 52 92 102 106 99
236 228 208 167 127 132 143 124 114 104 110 116 135 147 157 172 169 150 153 258 262 253 260 250 240 172 186 190 174 232 188 146 132 120 101 84 75 75 78 86 93 115 121
217 201 169 146 142 123 107 100 101 107 121 134 156 162 192 199 186 179 171 187 221 272 249 230 218 142 141 162 191 186 132 145 153 131 117 85 77 79 71 78 76 86 116
211 191 160 136 119 112 101 96 104 122 136 144 158 172 172 178 211 176 173 173 180 245 242 204 158 123 124 140 151 179 171 187 167 147 116 95 95 89 76 76 69 66 72
186 160 127 116 109 100 96 101 116 134 147 151 164 180 191 197 196 201 221 223 206 207 192 189 216 217 169 152 176 189 198 200 180 156 124 101 83 90 98 88 82 70 70
146 126 117 98 87 79 76 80 98 113 136 162 174 188 193 197 179 152 167 180 196 162 192 216 244 177 158 174 200 165 187 191 182 160 130 111 91 88 91 89 81 69 77
123 104 83 68 61 63 63 70 75 85 109 113 113 145 165 135 94 93 109 107 105 103 171 210 165 167 166 157 192 173 184 184 178 161 136 123 95 93 92 89 81 76 67
98 91 77 73 64 54 60 64 74 79 100 128 127 112 107 137 127 106 75 90 64 81 102 165 169 147 145 172 153 139 148 167 167 165 149 131 108 92 101 84 75 73 64
97 99 76 64 62 73 76 73 91 103 114 124 131 134 154 165 120 138 100 113 108 81 94 116 127 149 157 164 152 150 147 150 156 153 146 132 121 104 91 81 70 73 63
86 70 66 63 69 77 94 115 117 132 143 151 123 95 90 116 119 96 63 83 75 102 73 70 108 132 142 141 134 164 144 144 150 151 129 133 119 114 79 74 68 68 64
80 90 94 84 83 93 111 119 134 140 152 130 108 100 87 78 61 79 72 109 104 76 60 95 80 72 87 144 140 145 147 138 143 136 116 125 124 118 88 81 77 69 59
87 96 102 93 104 120 127 129 142 149 134 128 110 86 76 93 77 69 2 13 85 115 95 112 59 74 157 104 124 146 136 121 130 122 121 113 132 111 85 80 73 68 57
103 107 99 102 116 133 141 147 140 139 131 118 110 71 58 72 70 53 28 -1 66 91 121 88 110 97 81 64 119 151 133 110 122 121 125 118 124 117 116 91 79 69 62
106 115 108 126 140 146 148 148 145 137 117 110 87 67 64 65 65 60 5 13 32 47 61 108 99 66 51 40 52 130 158 107 112 131 131 134 133 123 131 106 98 82 65
113 115 126 139 140 147 159 157 131 119 108 98 74 64 68 72 73 65 47 32 24 54 70 89 128 112 77 62 47 49 131 137 104 110 120 134 131 129 133 126 111 93 87
124 124 129 140 149 159 158 142 125 120 113 91 74 69 73 83 79 78 69 48 49 36 72 92 106 145 118 137 102 91 102 178 109 92 112 125 133 147 145 145 149 124 121
125 138 139 140 168 160 148 129 117 114 107 90 82 79 81 91 83 85 69 55 39 87 73 63 104 143 151 121 102 185 222 101 110 88 113 130 155 161 168 170 162 138 121

GFSGL_con_3kmhel_051.txt.gz
Helicity
101 130 148 152 164 208 210 231 251 273 395 402 398 355 401 355 169 271 421 168 110 160 161 131 95 114 105 108 137 145 153 152 165 138 183 147 132 114 108 97 77 70 77
136 159 156 178 185 205 220 261 315 312 310 367 380 299 348 258 541 328 142 103 139 116 92 121 96 127 117 113 152 154 169 172 177 147 141 154 127 107 100 84 76 81 89
129 144 165 172 187 201 226 210 177 230 292 365 372 348 411 265 212 148 102 110 97 85 93 102 113 131 146 157 159 177 186 207 201 198 157 157 131 110 88 69 65 71 88
163 182 188 197 173 148 191 197 200 224 294 336 379 371 344 135 161 124 104 96 91 85 99 124 128 150 160 163 179 175 192 202 196 203 175 144 131 105 93 68 65 75 76
198 201 183 171 177 193 230 252 346 334 432 399 542 234 192 185 151 109 79 73 81 105 125 148 158 150 165 181 230 182 194 190 203 185 168 143 119 105 86 75 65 64 58
230 241 244 244 257 307 339 384 359 485 453 453 251 151 148 135 103 82 67 92 109 137 146 157 159 190 196 221 222 222 172 186 187 180 157 135 103 101 82 68 63 66 55
215 206 235 273 322 332 359 415 375 440 289 251 133 127 102 74 77 72 83 125 155 163 165 180 188 220 210 217 238 208 166 183 186 149 146 116 105 88 71 60 60 63 58
229 262 293 324 331 328 387 382 246 238 132 106 99 76 77 72 83 100 117 148 175 165 180 178 185 188 207 215 220 204 181 169 161 167 138 110 100 83 73 66 56 52 57
260 291 303 311 279 258 239 147 125 88 90 95 88 86 100 93 110 119 139 170 195 193 192 187 196 199 195 201 244 203 185 179 152 134 129 111 97 79 53 63 56 56 56
228 232 221 207 179 177 143 104 97 107 100 101 99 100 111 113 116 121 155 208 227 226 193 196 210 176 192 221 245 214 204 158 150 138 123 104 89 79 65 62 60 62 57
200 202 212 207 209 169 138 128 120 112 103 99 100 105 114 130 141 150 164 211 239 244 266 248 229 173 153 182 188 223 217 141 149 143 124 113 106 95 81 70 65 69 65
211 228 225 191 151 130 135 123 118 119 112 107 110 118 134 135 135 142 155 183 213 266 255 244 218 181 154 138 154 148 165 182 215 182 151 132 112 99 83 73 65 63 62
211 202 179 159 141 129 130 129 119 121 120 117 116 114 117 127 135 131 125 173 219 256 224 192 135 157 146 140 125 159 151 182 176 179 155 125 106 95 95 83 66 53 46
194 177 156 147 135 132 117 118 117 117 114 113 117 122 119 121 137 163 181 178 146 151 168 140 95 113 120 149 180 148 119 153 174 209 165 128 127 115 101 79 68 53 46
179 165 148 125 125 116 109 104 94 97 101 99 112 131 135 139 160 161 156 166 155 124 105 189 129 118 150 134 129 91 94 130 154 151 143 145 125 105 96 85 69 53 47
167 141 124 107 102 96 94 89 96 70 56 76 144 157 177 196 193 185 167 128 91 85 123 118 141 112 141 132 107 68 69 95 121 115 140 140 132 113 91 89 71 54 44
132 112 95 96 89 92 87 82 87 82 83 92 137 163 179 179 172 178 191 184 102 87 89 75 59 8 58 67 85 79 84 92 81 101 138 139 141 114 114 87 65 53 44
108 115 93 87 86 84 89 91 78 82 81 94 118 142 160 168 146 150 169 150 176 167 158 79 34 46 31 38 75 103 91 70 86 98 94 120 139 125 113 88 63 49 41
101 97 86 80 88 93 93 88 88 91 102 112 136 149 144 132 98 91 96 113 132 89 44 81 86 77 40 69 84 86 97 70 80 87 89 124 140 117 105 80 61 54 44
92 109 93 93 101 104 96 89 95 106 123 138 143 140 120 104 100 67 41 49 71 69 14 17 59 49 67 70 62 28 93 69 60 75 71 126 130 109 93 80 61 45 41
85 93 100 97 104 102 92 96 105 126 140 143 135 117 104 100 103 73 59 48 52 53 42 28 43 51 81 120 132 50 35 45 46 53 73 122 120 103 81 70 58 49 38
93 97 103 110 105 110 109 118 131 143 145 157 129 107 94 90 94 77 73 57 49 52 20 0 11 57 21 91 71 62 52 29 27 36 53 104 101 87 80 71 59 48 42
100 110 113 121 116 117 124 136 146 152 164 149 129 111 103 98 84 76 75 67 58 53 42 31 25 65 59 65 68 68 50 52 23 50 45 82 88 87 76 73 68 59 48
106 117 127 126 130 135 144 150 160 162 156 138 115 102 101 86 81 79 79 75 63 55 54 35 25 58 76 74 75 74 56 45 18 31 59 60 79 79 79 66 75 69 63
117 131 135 136 141 146 154 160 160 158 144 120 99 97 91 75 79 74 73 68 59 56 56 38 37 45 81 121 123 99 87 132 81 88 75 42 53 67 77 73 81 86 87
129 151 156 144 144 153 156 157 158 149 131 103 90 88 71 68 65 66 64 57 51 57 49 55 49 66 91 103 113 125 140 154 114 181 79 51 52 81 85 83 98 114 109

GFSGL_con_3kmhel_054.txt.gz
Helicity
80 71 63 69 56 108 180 203 231 257 232 232 209 349 372 482 422 457 259 236 170 54 112 122 132 90 119 112 113 121 132 142 156 135 146 109 195 169 117 117 109 105 85
72 73 87 125 132 152 187 200 228 217 187 174 312 379 367 387 357 276 312 135 52 74 97 107 95 108 108 110 121 128 142 144 171 146 136 143 137 173 145 126 108 103 80
102 126 185 177 167 171 178 176 199 183 193 232 270 263 305 368 270 189 136 61 60 82 96 103 103 108 116 125 133 154 165 169 172 182 150 140 138 158 144 125 102 89 74
162 173 176 188 185 183 172 172 188 232 195 191 273 307 350 324 295 123 50 37 73 101 107 95 102 105 115 128 143 156 195 187 165 195 168 146 145 140 173 129 99 96 71
216 239 261 254 232 219 201 192 203 213 186 306 305 338 278 242 128 98 98 98 96 90 83 101 111 119 136 145 170 167 190 210 225 228 190 184 171 151 127 139 116 89 66
267 277 258 244 242 227 236 220 275 271 281 352 252 239 156 121 131 103 85 88 80 90 112 107 125 163 182 185 161 186 165 187 214 197 211 218 145 120 138 123 101 87 66
234 238 238 229 224 213 207 242 245 223 254 178 152 139 113 112 72 84 93 94 107 120 132 162 174 174 178 208 197 209 211 263 264 140 164 169 121 115 114 109 86 82 62
222 203 189 198 201 217 218 210 154 127 76 86 91 72 75 85 122 97 107 118 135 141 156 178 189 183 183 193 212 150 196 197 194 198 147 100 110 103 112 101 92 70 53
166 156 166 177 175 163 133 95 106 88 95 93 104 109 96 84 127 112 127 153 172 177 191 195 204 212 214 244 204 174 169 146 178 250 176 213 201 200 145 109 98 75 53
175 164 157 160 160 140 126 141 128 123 118 106 101 97 109 106 131 157 179 197 202 223 216 232 239 229 230 198 204 207 195 160 135 147 161 135 134 133 129 114 90 79 56
170 175 178 175 168 147 135 132 120 109 106 119 120 130 133 159 162 196 186 223 239 248 259 249 242 218 210 183 170 172 189 129 110 132 176 122 126 108 120 120 71 66 57
176 187 203 183 152 141 133 121 118 128 128 132 142 139 145 154 165 160 160 170 191 211 203 214 202 185 152 120 135 123 115 167 148 181 188 165 127 143 106 112 94 79 63
199 202 179 159 145 135 144 138 135 132 134 140 135 136 139 138 131 170 197 161 135 169 175 153 105 99 89 82 35 86 111 139 149 162 181 136 127 133 117 111 106 83 59
231 215 190 190 160 148 130 133 142 141 129 126 134 134 137 118 143 166 145 142 138 144 150 165 137 99 79 95 76 49 108 154 169 140 105 104 118 190 158 118 111 82 63
233 211 189 169 158 140 144 145 140 142 122 118 143 125 118 108 134 126 135 159 158 154 137 157 139 98 77 65 101 65 95 123 124 83 93 121 151 159 131 111 109 71 60
221 195 175 153 143 143 138 110 124 119 102 95 113 104 99 127 144 150 159 144 125 139 140 151 108 68 40 29 18 99 127 80 74 73 88 113 120 128 122 119 115 73 50
211 172 147 135 135 135 124 122 119 105 78 71 99 100 134 143 157 161 158 126 100 124 159 149 132 78 100 33 37 52 68 53 52 68 102 100 91 127 149 137 135 68 47
186 166 136 131 131 122 123 118 110 114 101 95 102 111 145 151 145 146 143 103 117 94 128 127 105 38 33 35 86 58 40 74 88 75 86 71 103 103 134 147 115 72 44
148 133 124 124 129 122 112 109 112 103 104 94 94 112 156 151 105 124 119 138 110 79 64 85 73 23 28 44 77 51 52 67 63 84 80 70 79 95 121 135 89 60 52
127 132 117 117 116 116 119 121 118 111 105 105 110 131 148 141 148 145 125 119 101 83 65 51 76 51 39 50 68 46 87 82 16 60 75 65 80 117 133 119 88 78 50
104 114 117 112 125 130 126 121 118 116 115 117 122 153 163 134 135 136 122 117 101 88 75 63 58 60 35 37 54 56 68 97 100 43 42 42 69 107 118 101 74 59 44
113 118 119 126 122 126 129 130 132 132 127 125 133 148 142 127 132 125 121 109 97 87 85 74 62 51 30 6 25 33 61 86 81 89 34 22 40 88 97 99 74 67 44
123 120 118 127 129 128 131 150 151 146 141 140 145 149 144 132 120 118 111 88 84 79 77 71 60 55 22 18 57 35 50 67 58 55 39 32 36 67 86 85 77 62 44
122 122 124 128 145 147 160 163 168 158 151 152 152 155 143 126 109 97 91 82 75 70 70 62 52 41 17 14 36 56 66 47 44 45 43 32 28 52 83 76 65 44 44
109 113 125 138 148 161 167 182 181 172 167 170 162 147 127 107 91 85 81 81 71 64 58 59 46 28 14 4 31 81 75 91 62 68 43 26 24 36 72 73 74 57 55
109 117 125 136 155 171 183 201 207 196 182 171 152 130 108 91 80 76 76 67 70 67 60 59 40 22 11 17 43 68 89 102 92 93 51 36 33 36 61 63 50 61 60

GFSGL_con_3kmhel_060.txt.gz
Helicity
131 278 331 250 191 212 199 236 260 311 336 297 279 312 292 297 288 302 313 315 325 263 183 211 155 108 61 139 173 210 219 231 252 240 226 208 217 224 243 251 265 293 271
158 226 227 314 237 200 275 298 286 301 287 297 293 308 340 369 394 340 293 255 236 198 151 164 162 149 128 159 187 174 176 198 241 225 242 262 253 240 258 290 302 260 263
214 321 435 365 387 362 318 318 326 325 303 288 303 338 365 368 325 282 262 250 176 168 192 179 121 134 162 152 160 179 204 206 246 271 290 312 303 304 303 313 323 321 226
425 474 368 384 339 308 300 302 298 309 325 329 309 291 311 250 238 241 216 161 145 163 143 117 127 96 113 126 135 162 183 233 242 262 288 305 324 298 306 323 334 354 299
371 387 328 300 288 301 319 324 321 327 311 278 283 286 201 262 227 239 187 197 189 156 119 105 101 94 90 124 164 202 221 229 245 252 267 269 284 303 291 287 315 271 275
333 299 273 286 274 283 275 284 284 260 253 248 252 231 257 239 214 184 166 162 138 114 111 101 98 100 104 100 116 154 188 250 294 343 340 320 280 211 229 271 288 285 256
326 287 248 282 297 247 220 214 241 265 245 250 224 208 188 183 163 124 134 123 109 110 109 115 114 118 125 135 159 206 218 225 296 314 294 265 214 189 185 251 259 239 190
261 271 286 243 233 266 294 301 268 247 234 192 174 155 151 207 215 196 131 87 131 144 143 143 159 172 182 214 208 208 222 245 261 277 272 204 160 162 171 234 195 156 188
256 225 223 273 284 275 273 282 270 217 169 141 138 168 299 293 249 195 178 182 167 152 140 154 165 148 158 193 197 210 223 240 219 180 167 124 54 106 241 249 289 235 223
214 251 222 219 259 280 246 193 170 165 226 239 252 246 237 240 227 196 155 140 173 155 137 114 117 141 157 166 188 210 224 203 179 145 113 40 51 135 178 245 296 232 281
240 242 276 253 236 216 253 216 225 276 306 269 262 234 246 258 233 218 202 160 166 141 133 129 127 110 117 124 136 178 193 191 180 168 139 102 56 87 189 176 163 218 227
320 302 251 234 221 233 256 277 301 284 279 259 233 240 221 238 208 246 223 210 170 141 133 126 125 96 96 116 149 150 136 176 202 154 130 89 80 41 93 202 232 172 174
301 290 264 234 248 265 296 276 296 273 270 256 236 228 246 230 191 270 224 188 157 145 132 107 76 73 95 119 117 122 131 150 177 155 165 120 94 50 105 190 146 180 139
330 287 256 292 302 342 314 291 296 286 250 219 232 232 231 211 228 187 158 142 137 134 124 120 115 103 125 127 122 124 115 115 72 161 147 107 67 95 157 147 149 176 175
362 348 341 320 325 392 400 338 285 268 253 262 257 229 207 196 203 171 138 130 128 117 115 128 123 145 137 131 116 115 91 85 93 93 86 109 80 117 84 97 141 167 177
437 435 384 395 358 322 289 297 293 184 182 195 198 188 176 188 177 149 132 111 106 102 127 132 157 164 163 145 125 99 74 75 25 63 62 32 38 58 82 129 140 199 197
528 436 418 397 365 372 335 247 217 175 126 112 125 135 143 148 150 140 121 110 106 98 157 164 182 187 172 147 123 96 77 51 -69 -19 24 72 58 63 66 92 144 175 165
501 467 480 433 350 308 266 259 240 205 146 111 81 60 103 130 146 131 111 119 168 184 185 184 189 178 155 136 110 90 76 58 -2 -57 5 98 88 83 85 92 108 162 172
650 649 527 429 343 264 212 181 188 165 149 168 172 111 173 212 173 135 133 174 175 170 181 190 179 162 138 116 104 92 82 63 38 63 129 140 125 76 68 97 69 172 183
607 528 396 253 206 201 180 180 167 162 166 174 191 205 225 181 133 149 170 188 193 190 194 183 165 144 120 108 98 88 75 51 49 69 79 63 37 146 67 54 54 72 191
454 272 232 225 216 194 179 157 170 173 178 184 193 200 186 156 148 145 189 194 202 193 180 171 157 129 108 102 91 77 70 48 49 55 54 55 41 89 133 106 41 66 190
241 222 205 202 173 153 171 177 186 186 178 181 195 197 157 155 154 192 190 199 184 174 170 158 138 117 106 101 83 79 66 45 55 34 44 51 70 79 56 61 91 144 142
176 169 146 145 165 166 148 156 180 179 209 215 201 192 196 202 206 194 191 179 169 165 144 129 117 106 99 97 94 75 57 47 32 49 47 49 84 103 72 55 92 43 101
136 144 149 158 170 178 173 195 192 182 173 178 190 202 205 210 198 185 180 175 160 144 125 116 102 89 94 81 64 54 51 53 68 54 32 33 77 105 86 35 1 117 111
125 151 169 181 178 163 179 172 186 207 207 217 212 212 206 192 185 189 177 161 140 124 119 85 91 83 69 55 62 71 58 40 48 51 57 64 84 105 100 68 13 52 56
151 154 158 166 172 188 202 211 216 222 231 226 225 220 206 206 203 183 169 145 143 120 87 84 77 69 63 71 65 68 77 91 87 82 62 63 79 91 77 66 49 15 41

GFSGL_con_3kmhel_063.txt.gz
Helicity
181 135 85 100 146 356 288 140 74 118 277 372 343 328 299 300 281 292 289 256 282 291 205 236 247 177 207 180 168 151 186 210 229 221 217 194 215 197 182 230 251 328 377
216 167 251 389 202 287 142 232 317 284 289 316 318 293 297 301 298 317 319 283 326 265 185 252 174 199 181 153 149 167 169 156 201 193 245 254 245 226 261 266 286 330 353
17 265 348 433 311 378 460 365 295 299 302 300 298 315 333 335 312 330 232 213 230 273 235 150 144 185 152 140 136 144 151 155 202 249 231 286 285 285 263 281 292 215 239
97 389 440 462 381 358 368 336 323 290 298 303 297 319 331 337 307 292 189 302 289 252 189 153 151 143 148 140 135 144 155 213 237 259 286 303 314 283 337 342 331 356 321
433 410 392 388 367 351 325 321 317 302 303 311 350 366 337 325 312 249 294 274 248 216 167 139 134 130 121 128 164 178 202 212 239 263 285 290 357 374 366 313 327 284 257
346 359 365 356 336 315 315 320 332 344 342 348 351 337 334 303 266 264 275 245 203 179 148 141 124 123 180 223 202 191 200 218 234 265 292 335 332 376 376 350 244 235 200
375 347 355 378 358 335 350 360 341 344 340 322 296 293 263 268 245 228 203 201 174 157 177 190 177 169 155 139 130 116 126 156 177 228 248 272 300 319 303 282 260 166 196
328 343 359 353 354 342 350 338 353 321 288 255 235 252 302 240 241 207 190 199 200 196 188 182 168 145 142 152 137 137 148 159 175 213 261 267 284 280 249 235 171 125 191
405 376 360 383 381 350 315 302 272 241 205 191 227 331 329 326 295 269 234 209 198 186 159 153 168 160 159 178 155 146 144 141 154 120 122 129 141 143 145 176 164 142 206
375 379 349 310 304 300 290 243 209 184 214 333 352 347 330 304 250 224 207 165 191 167 137 136 150 154 155 155 158 159 154 143 159 162 167 157 125 125 89 118 129 145 207
347 323 308 314 300 269 245 220 255 363 428 426 378 285 280 243 238 242 217 173 148 140 150 152 147 146 144 150 158 158 159 169 155 165 159 172 165 128 110 105 124 141 193
332 317 318 312 309 275 316 391 408 419 372 353 369 357 293 261 240 237 234 212 181 152 147 129 127 136 133 132 130 154 175 187 183 173 153 157 171 139 132 93 94 103 153
386 368 376 389 408 408 432 407 409 364 340 330 348 364 323 278 260 250 236 205 185 149 128 125 129 134 136 123 143 153 155 171 171 167 147 156 123 135 112 70 78 92 126
411 422 475 511 469 428 440 407 379 357 382 370 357 336 316 262 221 195 168 157 163 143 131 148 143 134 116 124 127 136 154 158 157 150 130 144 102 81 89 38 141 116 86
490 504 514 558 602 594 512 403 424 450 365 374 331 291 276 248 213 179 165 141 126 117 122 139 149 132 129 118 120 139 147 141 128 127 137 113 94 83 90 52 57 103 111
547 545 572 576 550 546 507 526 509 406 352 310 259 218 206 182 179 167 158 145 142 141 149 153 140 134 132 132 145 144 138 132 115 101 114 89 93 66 93 40 79 102 95
629 660 629 593 513 482 456 459 459 360 253 193 172 159 128 136 152 160 161 152 171 206 178 161 156 149 126 150 172 160 147 126 103 88 85 71 74 64 114 86 73 108 117
656 655 656 634 607 550 480 411 340 307 283 212 136 104 90 115 139 165 138 138 165 172 171 169 163 151 149 164 175 163 140 113 101 88 88 83 64 -6 66 84 61 65 97
677 617 572 568 565 516 469 454 321 257 246 214 148 128 154 126 160 161 173 172 164 167 174 181 161 156 163 165 168 154 137 111 98 89 85 76 70 97 112 111 129 10 90
608 564 607 573 484 360 281 253 234 235 227 207 200 195 195 180 147 146 203 201 209 198 184 164 154 168 162 159 156 142 122 104 96 100 87 68 50 31 56 112 168 191 75
550 372 261 263 239 225 220 220 215 206 189 192 200 192 183 182 163 172 191 199 188 177 158 156 157 147 147 153 143 139 117 112 102 90 70 58 59 44 67 50 148 101 73
258 241 216 192 167 168 166 170 166 175 194 220 241 198 165 162 160 180 188 186 164 157 150 155 143 146 146 140 129 127 115 102 83 78 77 68 66 69 81 119 97 85 83
178 163 144 140 139 129 129 138 176 204 220 220 221 216 217 223 219 211 201 183 173 168 150 145 151 145 125 124 122 96 90 81 81 80 77 56 52 95 100 102 107 94 86
140 141 133 118 127 140 161 190 202 210 209 212 217 219 229 227 218 216 201 180 165 147 135 151 135 112 109 92 93 97 89 86 90 78 63 59 72 94 96 111 116 97 102
113 129 145 155 165 176 189 200 210 221 223 227 232 235 228 227 228 212 192 163 157 155 165 117 102 106 94 89 87 82 86 72 79 73 76 51 64 126 104 114 114 91 52
123 131 141 153 174 191 198 199 209 218 236 239 235 228 217 210 208 199 188 176 163 152 114 92 97 95 89 77 62 53 49 54 68 97 88 51 63 102 99 101 114 80 57

GFSGL_con_3kmhel_066.txt.gz
Helicity
201 169 148 108 118 180 260 257 241 308 88 41 148 200 251 266 298 299 257 304 301 289 238 231 251 260 161 243 162 205 224 217 243 212 227 187 185 165 158 189 215 257 276
147 104 172 311 288 287 333 278 124 55 -71 3 145 187 282 290 313 315 340 314 342 327 249 208 286 228 253 175 166 217 190 174 217 178 177 200 207 198 213 220 231 259 310
228 241 294 303 214 76 249 214 120 219 183 182 238 314 327 311 341 339 307 326 313 248 192 273 241 235 150 185 199 178 166 175 177 199 172 195 214 232 245 244 255 282 303
328 286 272 317 197 40 214 260 215 267 305 294 283 318 331 352 368 353 334 253 284 212 239 263 241 254 167 205 212 215 206 200 188 201 204 212 224 205 253 282 276 320 304
260 274 241 248 216 340 413 347 358 315 307 315 355 369 353 352 343 287 345 236 301 208 296 262 236 283 321 267 228 233 228 206 200 203 211 220 225 246 262 268 326 318 329
355 331 365 354 372 411 415 409 401 363 378 388 384 356 352 329 311 335 307 351 292 319 315 292 266 282 253 242 222 186 150 173 176 192 219 229 224 233 254 253 262 286 317
394 388 409 424 437 422 421 409 386 400 413 403 362 357 347 355 349 361 365 356 341 303 287 268 248 237 218 200 191 190 185 198 191 218 229 228 230 221 218 214 233 258 280
372 383 396 425 446 440 419 400 388 385 358 338 381 390 413 374 361 354 349 328 323 295 265 234 222 223 213 209 190 181 172 164 183 204 204 184 189 194 211 204 195 189 204
386 398 404 448 451 415 381 369 362 382 411 441 407 408 407 352 349 343 334 308 289 269 237 228 225 232 230 222 186 161 152 137 122 123 116 107 105 102 113 187 169 176 191
427 373 436 441 392 376 385 360 348 381 424 402 401 356 374 402 363 329 302 274 304 273 259 250 242 207 184 184 176 155 148 146 142 131 118 114 132 144 125 158 172 185 172
405 383 397 387 390 349 314 320 379 437 435 393 403 403 424 378 345 317 277 277 269 260 234 215 189 184 184 182 180 149 163 157 138 127 130 148 163 177 170 157 141 160 155
382 381 374 351 324 287 320 375 392 386 396 414 460 470 417 365 312 290 274 279 238 229 226 194 170 175 183 184 166 188 185 151 151 150 151 163 172 178 167 158 125 173 154
397 387 383 369 331 329 335 358 418 424 433 438 441 433 414 398 366 329 292 252 225 194 165 161 179 188 184 159 193 184 154 156 158 165 177 175 169 155 129 87 48 97 62
413 413 396 384 427 455 447 408 390 401 430 412 405 415 400 362 338 286 236 189 171 152 148 166 165 159 155 147 135 144 156 158 166 172 195 186 165 152 119 85 58 89 131
455 469 500 528 533 559 590 491 457 427 370 411 409 380 377 339 261 207 183 168 166 137 145 154 158 151 151 153 139 150 143 156 171 186 204 200 175 137 111 38 25 70 42
503 503 521 567 577 584 593 630 596 497 463 432 391 335 314 258 221 196 219 193 169 149 141 150 147 144 151 151 150 147 138 149 161 177 203 191 171 139 107 51 76 128 116
544 543 562 578 566 556 530 487 502 512 462 409 335 265 209 197 218 228 220 186 170 160 157 158 153 157 144 156 158 153 154 146 148 175 180 179 158 126 96 83 80 113 103
740 689 650 621 598 576 542 527 480 453 421 314 215 222 255 254 272 271 224 166 167 170 162 176 186 175 172 181 170 164 159 155 165 176 173 170 146 118 103 84 45 56 58
833 804 781 717 643 578 509 467 404 296 251 273 228 185 190 196 192 176 164 146 163 185 181 186 173 176 174 167 163 162 155 158 174 176 163 163 138 125 95 72 52 93 110
883 721 564 504 502 502 420 344 286 246 240 225 216 208 208 193 174 160 162 173 174 180 179 172 164 171 171 168 167 153 165 175 176 163 162 140 133 113 81 65 27 65 98
433 411 397 376 365 357 339 298 260 233 215 200 192 183 170 185 184 184 187 184 191 185 165 170 179 174 167 160 155 171 182 186 165 149 134 121 112 93 79 53 24 69 88
352 346 339 306 266 243 222 207 193 190 191 194 201 197 201 207 199 190 191 189 188 176 167 171 177 167 160 159 159 178 167 150 147 133 114 103 91 80 61 59 77 74 80
263 227 209 194 177 173 167 151 161 169 173 181 198 209 213 216 219 229 227 207 188 187 188 180 161 164 156 152 149 149 146 131 114 100 93 92 86 83 79 70 98 105 111
170 173 160 143 135 129 130 150 167 180 192 206 221 229 242 243 242 240 227 210 210 191 168 161 161 167 164 145 136 128 108 100 93 79 67 65 72 87 86 80 95 103 115
117 121 134 141 147 158 174 185 191 201 208 208 214 236 246 246 249 241 234 221 190 187 176 173 158 148 143 138 127 111 94 65 60 54 63 45 51 89 91 101 110 103 107
157 163 166 172 187 198 207 214 228 239 235 227 245 251 246 244 228 218 196 189 181 174 166 137 129 133 133 123 99 82 72 60 55 59 49 24 45 86 89 114 118 103 112

GFSGL_con_3kmhel_072.txt.gz
Helicity
206 214 196 164 130 95 65 42 37 27 43 46 65 62 58 124 145 119 109 126 154 236 233 206 211 250 252 271 263 300 225 187 242 252 223 186 138 133 122 113 103 107 113
283 298 252 227 208 157 176 139 171 119 130 115 143 97 109 227 277 124 87 170 187 222 255 272 252 269 276 303 293 311 275 271 265 236 216 192 156 138 125 117 103 93 99
294 238 218 189 173 158 314 124 164 183 172 140 177 88 160 142 61 36 112 186 206 266 301 326 354 273 340 350 270 351 285 286 238 254 224 187 149 135 120 97 98 112 107
317 260 206 200 170 204 271 228 206 257 217 156 72 158 202 155 116 129 161 202 294 315 312 360 333 356 371 351 329 325 273 308 256 249 213 177 154 126 106 108 100 89 100
303 282 262 223 130 126 188 226 249 240 184 122 55 134 155 120 156 207 256 326 369 390 362 432 485 455 390 323 318 311 246 255 252 248 211 190 162 153 140 109 122 110 112
265 243 220 194 157 126 169 211 216 241 228 229 205 211 181 179 184 235 307 341 361 415 541 539 498 510 441 454 428 315 253 248 250 230 208 199 171 143 118 132 128 121 132
231 199 198 207 182 158 132 201 236 268 317 284 280 285 223 223 229 281 335 387 448 514 503 527 439 428 421 317 366 276 265 233 190 187 205 186 164 136 131 122 126 137 154
237 194 184 215 228 298 301 281 316 350 318 304 302 322 349 309 340 420 488 517 548 520 478 437 441 408 344 280 284 272 244 208 205 194 166 144 128 125 132 128 117 128 149
272 281 237 266 311 350 315 304 310 334 323 301 332 357 393 412 442 464 516 520 529 517 485 448 410 390 328 278 274 261 251 256 220 214 196 163 136 122 123 151 139 163 154
321 303 316 357 323 273 287 310 310 311 381 415 464 431 426 485 438 422 435 467 497 473 449 436 394 353 294 255 278 274 305 280 236 213 188 180 162 135 131 159 164 176 176
332 348 291 250 252 256 295 303 349 443 502 506 537 536 546 432 421 411 418 418 400 409 419 397 357 333 311 288 265 270 269 204 207 205 195 162 131 128 145 151 155 174 184
292 277 263 259 291 335 398 397 423 462 489 496 547 582 522 504 461 429 409 389 363 392 404 392 343 296 252 249 254 250 229 243 250 230 194 158 148 139 131 136 127 146 159
292 299 335 361 355 351 380 428 451 417 471 478 482 499 518 510 481 427 398 377 372 386 336 296 264 247 255 275 273 258 345 310 249 257 215 158 134 125 114 122 124 128 135
278 315 343 368 400 394 401 375 388 389 405 413 453 469 449 432 425 416 404 377 371 361 328 316 301 303 304 305 348 307 242 242 262 217 158 146 138 128 130 129 143 155 157
301 299 327 356 383 431 449 375 328 314 285 322 347 373 415 417 381 387 408 424 414 397 387 368 367 371 339 304 267 250 284 274 209 184 185 174 148 148 143 132 154 168 173
240 235 247 282 314 337 362 428 414 327 366 398 442 488 501 492 466 422 393 386 368 342 376 344 327 299 272 260 275 297 257 220 218 189 180 157 159 156 147 141 161 173 169
283 264 234 283 333 361 377 420 508 578 582 554 567 557 485 391 376 383 372 295 291 308 305 277 287 279 278 292 282 238 226 211 188 176 174 167 158 156 151 155 169 167 182
409 409 406 472 498 527 513 512 493 446 429 427 426 357 321 281 255 236 222 238 294 294 279 263 247 244 245 244 227 210 201 189 176 178 170 156 149 156 174 181 183 180 176
504 479 524 533 535 525 510 448 342 285 263 240 216 222 219 260 284 296 293 264 239 213 196 193 201 202 208 205 204 195 182 176 176 175 174 171 178 183 177 167 166 161 139
538 537 538 493 456 411 350 326 278 237 208 195 220 250 283 278 260 242 215 189 174 172 181 182 187 203 208 192 185 176 172 177 178 181 181 178 178 178 170 170 167 142 129
464 528 532 503 460 391 334 297 271 273 286 305 301 259 243 214 205 190 169 158 171 191 196 216 231 217 198 181 170 184 183 183 181 186 190 187 189 178 154 137 126 124 97
474 436 379 316 266 267 261 255 257 251 237 221 208 209 222 205 207 216 242 250 249 255 249 233 218 209 195 202 193 190 192 198 202 199 189 173 151 135 134 130 124 117 99
250 239 235 232 221 223 223 210 199 189 187 189 193 206 217 226 236 244 247 250 246 236 227 221 225 219 207 198 192 181 186 186 175 161 154 140 125 118 121 115 107 96 91
191 186 176 167 157 155 158 164 170 190 188 196 203 207 207 202 204 208 213 216 227 223 211 203 191 178 177 174 166 157 147 140 125 117 112 108 100 97 93 85 78 68 74
124 123 132 131 139 143 161 177 187 190 187 182 181 170 164 173 189 189 171 156 155 150 146 141 138 132 129 122 114 106 99 91 101 80 82 72 67 62 68 68 70 61 53
112 128 130 132 140 142 137 144 156 159 161 152 143 140 135 129 121 111 102 100 96 90 85 83 80 79 75 66 58 57 70 62 59 54 56 53 54 56 58 51 46 50 62

GFSGL_con_3kmhel_075.txt.gz
Helicity
132 123 104 98 83 54 22 2 6 -19 -7 17 26 18 19 65 78 71 55 57 44 69 145 85 124 210 209 208 228 261 218 276 233 297 250 223 176 190 172 173 179 153 136
181 168 130 81 117 129 116 94 92 68 74 59 67 71 103 176 229 159 160 201 185 103 167 92 166 236 255 260 291 259 252 297 316 273 280 190 159 213 220 184 169 141 139
173 165 145 122 61 31 18 -25 46 68 63 99 108 122 128 131 169 166 161 189 225 128 97 159 221 286 307 311 338 273 340 334 331 310 288 174 184 184 222 191 168 158 131
206 188 178 155 147 122 80 96 73 107 136 63 117 104 179 148 142 126 171 147 46 57 137 214 274 291 387 340 404 406 367 375 293 318 295 199 168 206 215 212 195 147 120
200 204 226 198 171 139 146 155 173 159 183 141 134 157 295 118 103 145 153 194 184 229 250 307 333 373 418 298 413 377 367 356 310 290 273 210 210 216 230 215 169 159 123
150 157 166 165 180 208 186 201 184 185 187 169 172 208 274 142 95 85 149 213 257 290 382 418 488 505 427 475 402 459 369 377 320 252 263 214 220 228 221 203 174 174 173
117 112 126 144 144 164 195 189 167 147 155 160 166 201 197 197 196 188 214 261 307 389 443 521 581 573 526 532 460 476 412 396 298 234 259 265 256 233 207 183 173 199 159
106 94 110 141 140 127 146 167 176 176 176 214 203 204 227 218 203 256 295 371 415 419 434 469 451 449 430 421 381 399 380 338 294 259 277 251 211 191 166 156 182 157 153
129 150 119 123 124 196 193 222 247 226 216 229 243 247 258 240 277 366 496 495 502 527 462 485 457 435 369 364 390 389 367 303 257 261 228 201 186 173 167 191 224 216 241
148 128 165 220 302 285 284 244 243 248 272 276 281 270 281 343 381 461 482 527 584 547 535 437 440 409 346 336 331 316 301 285 263 240 208 198 196 193 213 254 235 261 182
260 274 269 264 255 274 293 287 298 314 329 355 400 400 388 398 447 421 477 512 423 439 425 426 368 302 288 282 288 301 311 261 246 234 237 253 243 216 296 251 273 199 177
171 191 236 268 280 281 311 335 333 342 381 406 455 506 507 537 474 446 438 362 359 415 376 313 267 220 248 274 310 316 301 266 254 242 276 342 275 289 291 315 190 178 150
190 222 253 280 286 289 297 308 333 322 349 361 475 538 533 548 623 537 385 423 389 357 313 291 265 270 300 328 309 301 247 262 305 296 265 251 266 301 303 208 190 139 131
198 229 245 296 341 313 278 260 292 320 343 419 466 564 513 421 446 443 436 387 363 379 371 364 362 353 366 351 274 262 271 236 222 230 244 262 266 215 189 168 141 148 148
191 223 245 256 284 338 380 331 323 328 278 322 339 350 366 401 347 351 341 379 382 374 381 376 355 307 269 243 243 231 209 209 227 233 212 201 187 160 146 153 155 157 163
187 187 193 220 243 302 381 479 490 397 393 397 374 353 366 343 320 325 321 314 281 260 282 236 214 221 244 242 230 221 212 207 203 197 187 173 163 161 167 174 167 172 173
256 293 277 280 307 344 397 433 508 480 362 324 311 297 290 275 302 281 238 178 143 179 219 248 246 241 236 223 218 216 213 201 183 164 165 171 177 184 185 183 180 177 186
391 363 308 321 358 388 377 378 345 375 433 341 318 260 237 226 183 149 148 185 224 254 238 223 216 209 206 208 206 200 190 188 185 183 181 186 191 195 216 216 208 206 204
283 328 350 419 410 388 387 375 335 322 304 271 248 242 207 217 235 255 245 226 230 224 210 196 184 181 187 196 204 208 206 197 193 189 191 211 221 228 228 211 203 185 177
593 560 562 513 478 450 430 394 367 329 275 238 217 203 197 204 230 236 229 218 205 194 187 187 193 210 226 223 216 210 205 218 218 219 229 230 221 219 215 208 194 183 163
491 432 452 501 470 386 376 343 269 225 217 231 252 250 247 217 211 200 186 191 200 216 231 242 245 249 245 240 231 247 245 239 227 223 223 225 226 225 200 178 156 136 124
341 299 288 335 290 266 244 221 225 230 230 222 219 234 234 203 198 202 219 236 252 261 261 261 256 248 233 233 223 216 211 209 209 207 206 201 185 167 150 134 119 106 92
223 226 228 228 208 213 214 203 195 186 185 185 184 196 213 225 234 237 240 237 230 221 214 205 201 200 186 179 176 175 176 179 175 166 163 154 140 123 112 100 89 83 77
148 147 145 152 149 142 144 151 165 197 195 202 203 202 200 195 196 198 186 178 170 161 149 151 141 135 130 122 121 123 117 117 110 98 89 94 84 77 73 66 62 56 49
95 100 106 109 121 133 153 170 175 177 178 176 171 164 158 153 162 158 147 137 128 119 114 102 98 92 82 74 61 55 55 55 58 61 57 43 41 40 46 45 43 38 25
113 127 125 123 132 137 140 150 163 160 158 150 144 139 133 126 119 110 104 97 94 86 80 79 72 64 53 50 42 44 36 28 30 29 37 36 38 40 37 31 22 25 27

GFSGL_con_3kmhel_078.txt.gz
Helicity
69 73 69 80 99 83 111 131 120 108 105 102 87 63 58 65 63 69 45 63 85 139 138 136 154 190 202 191 214 156 187 186 209 305 265 329 318 238 284 226 175 155 194
107 105 101 86 96 97 86 119 140 136 133 118 96 80 74 65 69 89 115 189 215 292 145 127 135 274 226 167 191 163 204 253 299 273 301 269 310 344 312 259 189 188 179
113 94 98 119 128 111 77 44 46 44 49 78 78 92 105 107 87 105 188 226 207 152 191 239 301 337 213 189 322 434 348 382 289 267 362 380 347 349 253 248 204 199 191
146 140 116 126 160 132 99 89 79 81 70 59 87 131 101 104 129 145 153 178 193 112 125 192 181 144 152 271 345 392 363 501 371 328 366 384 324 338 340 258 216 221 217
128 131 145 122 93 71 67 89 119 119 104 82 106 127 134 110 146 231 280 239 177 85 157 217 260 248 261 328 422 491 616 495 346 387 342 381 343 400 304 266 237 235 206
91 96 83 105 121 122 121 115 123 133 112 92 104 131 166 164 179 221 262 265 38 109 190 256 317 323 360 441 450 491 487 436 380 369 372 357 339 381 260 259 234 252 251
71 60 67 82 88 102 112 119 118 111 107 98 104 119 108 127 170 188 256 140 137 203 286 375 441 447 494 563 641 562 675 563 462 435 377 339 332 337 305 243 227 239 219
77 77 81 72 59 66 81 92 116 126 134 131 91 81 102 146 178 176 199 227 340 351 377 403 481 548 584 644 651 617 540 491 411 355 368 360 324 243 191 224 243 231 207
107 98 110 115 93 90 110 114 112 141 159 127 164 139 153 218 223 273 367 475 496 499 482 470 487 535 526 535 504 495 436 363 391 406 391 378 304 253 251 271 247 267 253
126 139 148 119 110 132 149 184 264 245 235 294 335 300 288 292 246 321 439 499 532 568 573 609 590 553 568 437 396 270 304 286 288 291 293 252 239 263 229 204 259 279 223
124 162 193 198 218 180 217 302 350 363 384 378 377 348 316 293 343 426 481 454 508 582 632 652 646 491 373 373 287 329 310 265 326 300 305 311 285 243 245 250 264 240 205
322 327 292 222 271 256 265 343 394 397 446 437 423 416 382 392 440 473 467 450 473 606 635 549 441 337 380 322 378 360 358 334 322 336 336 309 260 251 259 263 217 186 206
223 333 382 372 415 378 310 289 340 355 418 400 400 402 417 475 509 498 528 593 619 639 541 393 308 284 334 365 330 344 329 369 356 275 253 267 284 276 239 200 184 176 180
283 382 418 466 421 473 428 323 282 320 388 382 382 396 429 476 529 572 601 568 563 542 334 266 235 282 393 427 395 280 233 231 246 251 257 257 236 217 211 214 214 206 189
342 356 363 390 417 470 451 324 301 304 255 293 333 373 453 508 468 439 430 385 321 275 249 270 254 235 200 147 151 182 189 181 205 238 238 230 218 205 199 204 189 174 171
329 296 303 350 388 411 443 527 496 332 358 388 388 404 410 357 306 263 228 214 225 215 191 140 108 102 118 122 116 144 181 206 223 227 220 208 203 197 188 182 179 179 193
308 327 331 352 378 420 570 417 444 473 446 395 397 381 339 306 339 333 281 227 188 133 128 121 115 112 133 152 184 201 225 272 223 183 195 192 192 190 197 200 209 215 235
209 251 276 262 294 342 327 335 360 416 471 497 483 375 357 313 273 232 200 165 120 126 133 141 161 178 206 229 233 227 222 207 195 201 206 219 225 224 246 246 252 266 269
450 440 408 385 438 414 408 410 408 378 383 366 326 342 314 296 248 196 158 188 182 190 193 209 218 218 219 209 223 215 221 226 235 220 229 235 239 258 264 265 273 262 247
595 586 599 536 524 471 442 362 333 315 289 286 273 223 160 146 176 187 211 219 224 219 203 211 208 213 216 215 212 209 203 217 227 240 250 246 240 244 246 250 249 246 229
383 430 495 492 465 389 378 358 252 260 271 273 255 237 221 184 206 228 222 229 219 209 207 202 200 198 190 190 190 199 192 200 199 207 211 214 217 226 218 217 207 191 171
289 302 336 287 230 210 208 203 186 184 174 174 188 223 230 199 196 200 210 212 212 206 192 193 186 180 169 163 155 159 153 149 148 149 152 156 156 152 154 153 144 129 115
209 190 184 181 178 190 198 199 190 184 188 191 189 196 208 215 216 201 190 183 178 174 171 164 147 140 132 124 111 108 102 96 96 93 86 82 83 86 92 92 84 76 68
160 157 158 157 160 157 153 154 171 207 196 198 204 202 197 189 178 177 170 161 150 136 122 115 104 100 109 94 87 85 77 81 76 63 38 39 44 43 47 46 43 36 37
98 100 114 126 134 141 150 161 168 174 176 173 167 160 152 146 142 133 122 111 104 97 92 76 75 84 74 74 54 49 56 60 54 49 45 29 22 20 32 34 29 26 20
121 131 135 137 147 145 140 143 151 149 149 139 130 121 116 120 122 115 110 103 101 85 78 76 68 65 54 49 52 71 62 44 35 29 35 33 32 35 34 23 10 17 5

GFSGL_con_3kmhel_081.txt.gz
Helicity
86 73 80 98 85 69 73 102 110 134 157 114 113 92 58 42 19 -6 -34 25 25 62 82 117 130 162 172 233 234 262 244 218 271 216 133 287 295 236 349 287 333 279 264
96 105 99 96 98 111 77 91 109 136 144 142 143 80 68 56 36 44 48 64 69 85 112 172 233 294 340 449 432 335 302 288 224 179 247 323 328 327 324 319 302 327 305
105 127 135 139 139 155 128 105 115 120 128 115 104 124 126 114 103 93 120 134 138 129 149 209 248 263 303 332 452 361 396 293 216 269 335 404 422 429 379 404 430 365 323
119 146 154 166 171 175 181 153 151 143 134 129 137 122 121 113 125 133 133 147 149 158 199 247 247 216 219 250 307 238 210 238 277 404 525 602 467 367 390 395 398 331 296
163 175 199 208 190 166 177 154 175 176 176 171 163 149 143 137 131 150 183 171 177 220 268 210 293 249 176 197 290 290 366 418 496 533 684 674 504 388 392 427 351 379 368
145 182 186 203 218 204 181 191 186 180 179 190 192 197 186 184 185 215 199 221 240 254 295 345 362 372 207 171 264 330 364 448 501 680 711 608 573 429 414 438 407 362 346
110 100 121 164 192 209 193 189 211 221 216 208 232 225 210 210 230 232 238 234 302 296 230 318 432 341 268 369 535 634 680 647 614 608 655 581 405 427 448 375 346 360 331
99 95 106 132 144 162 172 195 217 248 247 232 238 240 207 232 272 274 292 294 255 276 319 414 361 391 439 537 626 676 724 728 722 814 518 621 371 375 393 362 312 306 346
109 114 115 143 138 139 166 162 167 209 214 208 236 228 218 212 272 304 352 315 402 492 548 487 446 470 479 538 660 742 728 754 800 713 618 414 338 376 393 321 322 362 347
105 123 129 164 218 194 167 139 166 173 182 207 244 342 353 291 323 290 345 416 496 523 518 488 438 455 529 579 603 621 684 599 520 426 461 289 267 252 275 350 358 360 303
72 106 106 181 184 146 217 255 233 380 531 501 440 428 407 363 346 347 385 408 459 527 534 537 516 566 603 659 729 686 642 591 342 238 179 230 211 243 277 256 247 292 308
207 155 151 171 188 258 324 492 622 517 524 529 489 464 413 427 451 438 416 418 421 493 533 563 588 647 689 652 627 575 505 298 324 257 247 292 243 210 214 245 270 280 268
224 374 463 527 594 562 465 456 428 457 481 540 502 452 482 502 495 466 459 459 483 512 559 587 568 622 683 709 618 437 326 242 280 278 197 181 210 260 283 266 241 224 236
280 301 365 441 484 501 502 484 442 404 432 413 542 570 426 467 483 444 449 490 529 574 543 541 579 494 455 274 210 181 125 156 197 168 172 212 246 243 243 252 260 247 248
214 277 348 444 527 581 649 569 490 382 358 417 448 502 483 443 397 379 380 402 403 383 359 340 293 233 154 93 67 99 115 118 153 201 219 218 231 259 256 241 225 214 215
198 269 309 338 440 515 579 653 611 573 384 327 383 371 385 366 339 343 370 391 374 268 239 251 221 160 118 104 91 92 137 150 206 230 226 216 215 219 216 207 199 192 202
29 117 283 376 323 312 306 325 378 497 552 659 635 647 578 411 420 355 328 313 273 250 280 247 203 191 210 198 191 192 219 245 189 173 177 185 190 196 210 210 212 226 235
228 217 193 97 115 188 321 343 330 391 479 529 545 435 388 319 287 265 192 188 226 246 233 221 208 198 208 223 224 221 220 213 208 211 198 200 210 209 212 219 233 239 253
340 388 392 386 426 325 323 383 397 431 463 447 435 409 349 303 278 263 273 207 203 198 172 182 195 205 208 211 211 204 196 187 170 150 166 172 196 190 198 208 221 230 245
367 371 396 373 427 391 387 441 445 451 358 322 254 183 131 150 191 208 217 209 196 194 202 200 208 202 190 186 172 170 160 164 165 156 161 148 154 158 161 180 188 208 217
345 402 411 400 400 354 331 321 277 250 248 248 275 274 263 215 197 193 199 220 209 206 210 187 176 170 166 166 162 157 141 131 128 126 124 119 124 115 106 110 116 125 140
336 321 302 300 296 298 269 236 198 180 171 181 200 218 206 174 162 151 157 163 172 179 169 161 153 143 142 131 126 121 115 125 118 119 110 98 83 71 58 53 60 71 78
185 192 180 180 180 199 204 181 166 162 163 159 152 154 162 170 171 164 167 161 146 142 135 138 135 130 129 124 102 96 104 106 106 96 78 66 53 44 48 44 34 32 35
144 145 149 149 150 145 150 150 150 169 147 152 160 165 165 157 148 145 138 135 132 122 118 117 115 125 116 97 95 91 82 91 78 64 53 42 41 41 40 30 27 22 26
115 121 126 129 134 138 147 157 157 161 163 150 140 136 130 127 127 123 114 111 111 112 111 96 97 96 94 92 65 54 84 106 81 60 49 31 23 18 23 29 28 23 18
130 140 139 135 138 144 147 147 148 145 144 138 134 128 121 114 110 107 107 117 104 85 86 86 76 80 66 55 70 109 89 60 47 40 41 32 28 31 34 23 9 17 6

GFSGL_con_3kmhel_084.txt.gz
Helicity
197 162 130 146 191 216 204 239 249 265 226 219 241 230 201 186 161 82 60 41 46 42 124 119 120 160 194 210 223 225 291 361 352 294 344 293 199 285 302 274 273 284 280
216 220 176 155 129 172 195 178 192 214 226 230 191 166 150 141 143 97 86 44 26 57 59 80 106 159 173 208 292 278 334 349 428 364 468 383 331 281 356 357 359 331 312
203 243 243 187 181 178 180 185 181 169 177 182 192 215 196 177 137 114 69 60 38 66 103 125 119 134 165 230 302 324 339 343 369 310 322 386 308 252 391 459 420 421 425
135 219 277 260 243 199 187 175 165 202 187 201 204 202 188 182 139 80 83 100 96 90 91 141 158 171 246 323 371 353 344 301 261 264 241 350 382 534 610 619 623 534 463
165 183 253 291 266 249 242 242 202 204 233 246 258 233 199 197 173 168 167 161 166 171 191 211 223 232 328 427 399 414 397 300 259 305 374 533 526 633 671 812 622 621 477
200 198 233 293 310 297 295 311 279 239 257 248 264 283 263 237 238 240 237 223 208 206 209 209 229 306 341 333 412 398 399 356 327 338 379 475 524 688 799 887 792 801 601
224 191 187 226 272 311 306 289 296 286 278 293 288 295 279 258 262 276 259 244 229 226 225 250 344 439 419 414 399 475 533 488 394 358 456 651 710 781 876 756 874 834 421
186 194 190 203 222 264 308 303 284 301 305 311 302 295 266 250 270 297 295 279 249 232 269 306 352 402 406 425 413 488 614 629 606 674 720 699 698 672 689 713 643 411 288
165 177 187 199 169 193 232 266 279 279 280 296 287 272 261 218 223 250 335 340 289 425 539 549 482 509 490 490 589 646 697 754 744 749 796 821 696 732 783 594 562 322 231
225 89 191 187 164 172 193 201 218 239 237 235 217 301 319 253 344 264 292 448 555 590 596 573 513 497 522 519 508 523 646 623 613 718 589 587 566 558 456 274 351 300 265
158 86 172 229 197 161 196 228 246 237 328 457 548 566 485 447 462 393 420 477 546 627 617 605 566 554 584 590 560 553 589 616 689 740 670 673 510 386 301 259 174 161 213
126 146 262 439 371 278 287 542 631 616 613 700 627 633 655 577 512 461 466 493 515 571 558 562 561 592 594 596 687 701 705 627 635 675 582 639 370 236 188 169 216 230 217
149 148 192 356 486 569 563 516 518 456 468 401 412 512 540 600 573 479 392 459 526 589 618 620 616 617 672 716 613 593 514 444 383 364 323 251 204 158 157 141 150 165 198
27 172 163 259 364 453 469 473 455 487 517 584 646 476 622 622 580 536 513 506 668 639 592 505 442 511 527 447 396 365 358 407 335 245 181 162 159 138 135 176 184 198 210
-24 -42 82 127 253 373 547 449 398 445 453 566 637 582 603 597 416 498 455 478 592 505 462 467 462 460 372 290 269 186 149 161 171 158 156 177 194 195 191 195 197 204 212
12 -66 -97 -5 55 208 389 518 663 632 632 600 763 775 664 562 428 321 250 317 358 308 396 463 472 350 192 138 136 128 112 154 152 153 160 175 181 187 198 194 199 208 219
167 175 52 70 71 79 63 84 218 325 445 483 398 554 445 421 411 511 493 502 475 409 362 349 271 220 200 182 181 175 150 150 167 175 186 188 189 190 200 199 200 202 210
216 279 239 229 227 253 238 234 255 317 349 379 471 454 478 454 430 450 441 397 365 324 255 224 214 184 167 178 192 194 188 184 179 176 180 189 200 199 192 189 181 188 191
241 242 229 243 248 232 214 252 257 239 228 247 296 372 412 439 483 382 309 232 189 200 195 216 210 207 196 183 176 178 193 191 189 191 179 169 143 133 136 124 112 115 124
348 382 367 329 311 313 315 328 337 307 253 252 273 207 190 218 241 230 220 206 202 180 162 173 183 193 188 192 192 192 191 187 166 153 142 137 123 106 80 68 76 84 85
301 324 319 291 263 263 243 261 250 246 258 267 246 196 188 165 165 183 189 205 201 209 200 167 171 189 187 190 182 169 153 145 137 126 112 98 83 81 80 75 65 50 54
242 248 251 250 229 232 215 191 190 201 201 196 190 205 194 152 143 142 145 144 163 206 209 215 195 168 166 160 145 129 117 104 99 99 103 105 102 88 70 53 52 56 56
203 206 207 211 212 223 221 207 194 189 187 181 165 161 178 187 182 183 185 160 134 129 142 151 119 121 112 111 107 113 115 133 129 116 114 90 69 62 57 54 52 49 46
129 129 138 157 164 163 164 166 162 176 157 153 148 146 142 127 119 126 122 123 125 95 90 94 101 100 107 114 106 106 109 101 94 91 92 71 58 55 50 45 44 41 44
117 125 131 140 142 149 159 173 178 182 180 176 171 156 141 137 120 117 109 114 107 98 88 91 90 105 109 83 85 147 118 97 76 63 65 56 48 39 35 39 39 22 15
126 137 143 148 158 160 167 162 163 165 162 153 135 123 129 118 108 100 96 93 87 87 99 95 102 96 84 92 115 75 54 53 62 55 59 53 52 46 30 21 22 35 31

GFSGL_con_3kmhel_087.txt.gz
Helicity
185 171 155 192 187 180 190 181 212 203 186 165 135 77 51 43 49 52 76 90 61 82 116 129 148 165 173 204 193 179 167 223 218 142 202 255 324 374 336 335 346 369 278
203 190 152 162 204 201 186 180 178 185 191 201 178 168 142 104 88 69 94 99 96 94 92 111 76 179 146 172 193 180 212 219 271 193 238 255 261 259 338 319 405 315 261
265 217 197 168 195 221 205 188 186 197 196 196 199 205 190 160 141 126 103 93 121 117 154 148 127 178 148 181 219 206 235 271 322 276 267 279 214 277 337 303 365 397 297
279 279 254 228 196 193 229 227 225 221 208 222 230 207 172 156 155 175 183 157 134 129 143 133 149 213 188 190 236 236 245 305 319 306 262 260 299 273 315 331 368 450 422
245 288 333 312 267 221 204 250 246 248 251 224 221 204 186 171 182 201 201 186 160 128 107 118 163 243 286 298 295 267 313 332 312 346 366 371 425 407 435 460 393 477 707
259 231 295 345 358 356 320 300 280 277 278 237 230 219 206 204 212 226 218 203 179 167 161 196 225 222 202 259 309 306 350 345 324 301 320 347 370 374 384 518 575 744 778
320 304 272 336 332 345 359 335 346 342 303 306 282 249 250 233 228 256 285 264 220 183 193 214 222 235 262 275 257 407 592 580 503 353 334 372 334 438 557 695 906 903 845
122 213 302 302 294 332 329 379 380 370 368 343 329 348 328 315 323 288 301 280 247 218 231 246 289 290 313 353 461 579 606 562 488 484 554 621 599 635 582 523 568 640 719
335 403 253 140 232 284 274 307 359 389 389 378 367 353 346 302 318 313 318 271 255 240 308 405 326 342 385 475 527 566 591 642 630 535 613 654 761 749 738 635 719 867 682
194 191 282 242 163 235 291 301 356 364 345 354 328 352 345 307 356 311 330 311 298 466 516 505 504 485 508 522 601 680 713 620 710 803 767 741 721 737 688 611 623 729 589
117 88 94 189 242 359 250 225 335 352 329 348 461 553 553 517 501 465 301 390 448 588 617 638 612 605 615 648 669 688 679 764 762 696 579 639 575 559 570 486 379 309 346
54 62 63 72 189 297 394 343 375 401 482 533 596 609 585 589 564 571 472 495 525 660 758 793 767 666 669 713 736 746 713 667 617 649 630 532 502 410 372 312 239 212 198
23 15 14 -29 19 230 322 408 454 448 465 530 546 646 684 682 739 672 670 740 743 783 822 934 994 1027 920 905 709 649 631 512 421 442 309 474 251 216 211 157 151 173 173
33 38 1 -11 -25 -7 175 253 262 378 354 476 580 737 703 743 638 730 840 911 1034 1022 1036 902 713 679 745 465 474 573 494 376 344 319 326 301 221 213 209 179 162 159 145
80 81 46 18 19 3 -30 107 66 73 207 344 430 578 568 488 693 554 459 609 661 558 613 724 641 670 364 488 403 347 318 330 278 244 223 211 187 167 164 159 161 166 185
107 118 132 128 105 81 84 120 219 192 102 51 152 355 583 522 579 551 557 617 596 521 605 534 452 316 299 248 182 194 188 164 141 140 142 145 155 163 164 179 191 204 209
134 137 169 182 188 198 152 130 97 278 446 476 428 383 351 334 359 310 303 309 292 301 323 305 313 259 227 188 158 145 152 134 112 104 114 131 149 170 178 180 182 185 202
206 227 212 236 235 227 252 230 232 241 273 320 433 291 264 310 327 334 276 289 313 289 235 195 184 171 157 146 129 115 110 110 126 141 154 160 149 147 150 160 166 164 183
228 221 242 278 301 291 285 288 277 291 258 270 283 356 302 318 343 332 302 244 214 221 219 221 200 188 171 171 161 163 161 171 160 159 150 147 146 139 146 137 145 162 152
310 318 302 299 316 336 316 310 270 251 237 234 241 211 209 255 261 277 283 260 234 209 194 194 193 198 192 189 181 166 156 150 142 134 126 119 115 103 120 118 120 118 108
342 299 274 256 256 254 249 245 233 233 241 232 224 218 223 208 212 222 233 249 246 234 201 192 195 193 180 169 158 145 139 128 120 112 108 100 96 104 100 95 90 83 73
193 214 227 228 221 236 225 218 211 199 184 174 165 183 194 178 175 179 185 193 192 193 158 145 154 151 144 143 139 123 125 116 100 89 90 89 91 94 86 82 80 72 69
189 185 167 164 168 174 174 161 160 154 152 150 142 147 156 154 159 174 179 166 164 147 129 112 104 105 100 104 110 94 96 86 69 63 90 93 86 84 80 71 73 82 89
124 122 122 132 143 157 161 163 168 183 166 159 151 139 134 134 138 154 145 139 129 111 84 73 84 100 90 97 93 83 70 65 54 61 68 82 82 72 74 75 76 70 50
146 150 158 158 165 169 180 181 175 176 177 153 147 144 127 120 126 133 131 137 144 120 107 90 68 66 86 104 89 78 73 80 74 78 84 88 82 71 66 58 45 45 53
136 143 137 136 145 153 161 163 149 139 148 151 121 114 106 102 108 96 109 125 125 108 98 88 85 98 66 74 59 67 84 92 89 86 75 71 56 46 45 45 45 63 58

GFSGL_con_3kmhel_090.txt.gz
Helicity
211 162 153 139 123 89 93 88 113 129 144 140 133 109 56 53 35 15 9 -3 11 21 61 85 80 94 112 162 198 220 218 218 183 80 143 117 166 193 210 264 223 241 252
207 206 158 142 132 122 102 86 80 119 133 137 137 157 145 83 47 53 35 27 51 80 105 104 62 114 148 179 194 171 186 210 217 140 123 169 239 284 267 261 249 263 237
183 195 190 164 163 149 127 111 112 95 108 120 132 132 124 107 85 58 46 51 56 41 61 84 74 132 119 151 210 177 204 222 236 204 140 155 246 347 344 314 345 276 222
175 171 181 183 207 193 174 164 153 165 157 151 142 128 117 107 104 111 90 66 54 65 68 80 103 143 152 163 233 225 211 219 220 248 242 221 243 314 376 319 332 309 229
257 230 202 191 192 209 206 194 190 180 182 184 182 159 128 131 150 162 163 152 143 148 167 181 201 183 165 172 210 200 202 232 233 225 217 226 299 428 358 310 266 258 247
193 244 247 270 219 198 206 234 227 237 237 231 237 226 208 199 166 176 182 179 179 163 143 167 182 200 187 237 269 232 249 276 227 231 204 209 227 295 308 292 272 394 336
114 177 129 165 198 220 244 247 241 259 275 303 295 278 254 230 230 238 237 202 173 174 175 161 152 184 189 200 220 271 316 397 367 220 198 224 266 297 371 443 546 561 512
243 252 225 161 134 192 264 301 306 309 278 274 297 297 273 260 282 287 284 238 201 177 181 180 181 152 197 230 230 292 379 434 401 430 415 441 509 579 639 555 551 649 656
226 198 197 227 159 179 147 229 277 302 320 355 308 270 234 217 263 304 336 267 239 222 232 235 236 219 204 290 363 449 535 542 493 513 599 754 872 1058 584 736 605 544 610
225 190 160 157 151 153 212 236 136 234 292 352 335 342 314 260 270 275 341 345 293 294 251 392 414 339 321 381 372 511 618 693 788 838 916 1034 913 869 860 653 519 615 617
105 111 125 132 106 113 116 147 237 302 206 293 345 503 533 515 465 454 295 369 360 373 412 536 514 501 519 582 612 636 675 1009 1178 1149 1031 934 898 855 728 684 570 475 464
85 102 100 92 82 97 104 73 130 246 351 429 480 552 503 476 510 497 547 377 421 710 732 730 715 719 764 768 873 885 1005 1200 1193 1064 904 788 719 574 612 577 472 440 394
59 74 94 101 95 92 151 169 100 86 183 297 401 493 615 649 561 572 608 759 636 672 823 963 961 1039 1113 1198 1189 1127 1024 999 915 804 755 561 497 392 290 287 308 271 249
64 66 72 70 66 99 88 124 160 153 79 78 110 192 292 362 395 397 519 668 938 928 962 849 754 784 879 760 774 747 693 511 505 546 433 364 301 307 273 229 220 182 183
60 74 70 58 60 74 128 137 104 190 171 118 62 77 162 202 160 238 52 247 335 583 634 844 665 695 701 603 548 663 547 468 408 333 319 276 219 168 166 158 158 163 174
80 93 108 95 96 71 18 100 335 295 314 302 252 159 107 151 178 230 209 311 280 277 336 334 313 284 204 269 297 334 303 271 213 187 175 160 155 140 138 160 168 179 199
108 102 105 119 125 105 72 78 99 297 495 456 422 392 336 250 246 256 285 326 304 318 296 286 287 281 264 239 232 224 182 158 150 151 140 135 134 141 147 164 180 173 156
202 241 209 207 214 240 239 225 220 255 281 303 419 366 368 346 307 278 305 345 343 340 267 236 225 225 214 188 170 163 154 153 155 155 169 169 166 157 157 151 135 120 133
239 271 280 305 342 318 308 314 288 291 291 276 263 308 283 317 325 329 325 288 249 243 242 234 220 208 188 167 152 152 148 146 142 145 140 128 108 98 115 127 134 157 165
250 272 299 334 369 388 358 325 298 283 289 276 276 234 210 248 296 281 270 244 229 211 200 202 193 185 162 139 128 123 133 130 122 124 127 131 122 124 138 149 141 125 121
203 240 274 283 261 238 243 252 217 207 206 212 217 201 206 206 207 217 210 211 189 176 169 171 172 164 150 143 141 149 149 142 130 119 113 108 116 128 108 119 117 105 92
201 215 211 230 215 192 172 156 151 145 145 148 149 176 200 185 178 178 182 181 170 156 136 129 144 143 135 128 113 117 123 123 110 99 98 95 98 114 108 96 94 79 64
181 182 188 186 182 165 158 150 142 128 125 131 137 155 175 184 181 175 170 159 146 142 125 114 112 124 122 118 109 89 84 70 54 57 79 98 104 103 91 79 70 63 61
161 159 150 154 159 158 151 145 143 149 133 132 131 135 141 146 151 151 144 132 138 127 107 96 96 100 86 93 89 83 74 71 73 80 81 89 90 86 75 64 74 67 64
153 153 153 143 138 138 143 142 140 135 130 122 113 109 114 114 121 131 141 139 126 120 118 106 84 85 93 100 93 87 77 79 74 70 67 80 80 80 79 74 77 77 72
125 129 124 123 129 128 129 131 125 115 111 104 100 110 104 109 107 112 118 122 118 114 114 100 87 68 70 61 57 61 76 79 64 58 68 82 85 83 87 87 82 75 69

GFSGL_con_3kmhel_093.txt.gz
Helicity
144 120 135 130 115 105 98 80 62 72 76 80 116 108 99 103 137 120 103 -0 6 61 101 72 30 30 76 138 179 194 174 157 168 70 118 117 139 177 173 211 205 227 238
173 129 110 142 131 124 86 93 106 89 110 120 121 128 129 127 101 57 57 73 55 39 6 11 -50 44 61 110 174 166 190 169 195 169 174 159 192 204 189 201 257 270 272
137 127 104 131 124 139 107 86 109 111 121 113 121 122 115 120 131 125 106 72 82 83 89 72 63 121 92 116 162 183 220 235 269 253 173 180 176 200 176 193 189 202 241
144 143 120 145 155 148 144 119 107 110 112 125 138 130 127 134 149 142 132 118 119 115 114 126 133 144 100 107 149 169 220 251 237 274 229 157 185 177 202 163 153 195 223
160 163 156 159 142 139 144 137 137 125 122 117 125 132 147 158 155 161 159 152 143 122 100 95 105 128 130 167 217 194 232 255 239 226 196 176 146 144 152 134 167 180 198
89 109 132 148 147 153 160 171 171 171 179 175 162 157 155 170 163 188 212 207 201 193 177 172 166 151 144 193 216 200 235 235 201 197 192 185 181 214 205 256 228 219 229
155 132 96 106 122 131 148 181 192 200 219 212 208 205 180 167 190 207 211 212 204 200 191 184 184 185 172 177 182 197 188 228 245 189 167 199 208 228 240 271 320 324 329
228 208 207 210 206 133 94 125 146 203 222 262 276 294 265 238 245 231 243 226 209 192 201 195 207 185 205 222 200 189 205 209 244 270 219 172 202 317 363 370 336 565 819
222 229 217 191 172 168 173 198 107 190 179 213 222 248 303 356 371 391 316 277 268 225 217 228 237 229 194 218 256 227 247 380 498 442 447 494 525 521 461 494 540 648 741
185 176 161 166 181 186 183 165 141 160 147 173 208 210 291 266 430 406 299 328 294 303 251 249 268 249 211 250 301 306 294 444 613 637 627 669 675 736 845 760 643 679 796
109 125 146 148 136 145 149 151 165 155 136 218 441 519 569 556 456 414 389 279 290 298 309 321 475 432 345 329 395 370 386 724 781 829 880 849 838 809 805 770 821 845 939
84 92 114 127 118 125 141 150 162 169 138 157 242 365 393 377 370 243 124 142 257 334 366 391 439 545 615 588 541 614 728 1041 1072 1064 997 922 858 828 894 834 841 749 671
88 88 92 89 95 95 128 148 140 152 146 150 151 192 234 214 175 223 191 153 128 205 451 793 784 755 708 840 882 873 942 734 636 771 784 787 803 566 493 536 394 360 361
80 93 103 108 102 112 91 84 84 105 108 107 115 135 148 193 210 233 189 163 203 177 312 326 365 516 515 488 532 720 743 768 644 506 457 403 429 414 407 359 361 237 218
87 95 113 110 105 130 211 175 100 131 128 131 166 182 180 206 220 216 198 235 286 259 328 529 568 620 547 656 602 538 562 564 517 408 376 341 280 223 244 191 167 147 145
86 94 93 89 90 102 108 175 381 337 395 371 299 238 236 238 257 297 310 318 352 324 405 423 389 382 417 414 455 422 427 392 320 255 252 211 190 142 114 117 112 111 111
128 130 131 140 149 148 141 156 147 237 414 437 415 388 358 302 293 278 294 337 317 328 326 299 275 278 252 249 219 202 188 177 167 155 136 124 114 117 113 122 127 128 136
152 203 193 211 217 220 196 167 148 179 206 235 366 349 313 305 291 257 239 295 310 312 260 235 210 186 166 159 156 145 140 137 139 134 128 117 115 114 122 131 133 120 110
157 164 187 210 227 227 225 251 280 306 325 324 307 299 286 268 297 330 321 268 229 224 195 189 168 150 127 111 108 113 108 103 95 104 123 120 109 90 90 86 86 104 94
185 215 215 216 226 229 226 234 243 264 299 304 292 255 211 222 289 265 249 209 192 178 162 155 143 128 117 112 111 109 120 124 112 105 103 99 99 93 84 83 85 87 89
146 168 183 193 205 201 201 211 203 215 214 192 167 155 146 121 132 142 143 154 138 134 135 139 146 148 137 128 121 125 119 113 104 93 81 78 87 83 80 85 93 92 90
173 180 191 199 189 200 191 176 171 162 155 138 129 146 155 123 122 128 136 150 151 149 136 127 139 140 129 111 95 101 104 99 93 82 81 85 85 93 94 100 112 110 95
167 173 178 177 167 168 168 146 133 120 117 117 115 123 132 133 135 136 132 126 119 119 109 104 102 115 118 115 106 86 83 77 68 64 71 79 100 109 106 111 107 97 82
141 147 142 143 139 137 131 127 121 123 107 106 112 117 119 118 117 116 110 104 101 101 95 86 81 82 86 95 88 77 66 56 55 64 70 93 108 112 109 98 86 76 69
137 138 143 136 129 118 117 117 116 116 119 117 115 116 116 112 118 121 118 105 99 96 89 76 65 63 73 75 74 73 80 92 88 84 83 92 110 108 96 83 77 64 58
130 129 119 108 109 107 104 106 112 113 111 108 103 103 94 94 94 99 101 105 101 96 96 93 96 95 89 78 68 82 92 94 88 93 90 103 103 95 84 71 62 61 47

GFSGL_con_3kmhel_096.txt.gz
Helicity
172 128 138 115 106 101 97 95 81 77 109 124 122 136 141 124 131 123 137 122 113 124 127 143 168 78 89 143 141 118 143 181 135 147 180 178 209 197 165 205 228 183 178
125 107 93 96 92 86 72 74 83 60 56 83 102 119 142 151 163 124 115 85 90 117 175 106 131 115 94 97 226 121 121 162 200 119 175 219 176 201 218 205 197 208 206
98 117 111 76 89 86 80 81 84 82 73 68 102 122 129 127 141 129 138 147 132 111 126 108 81 97 146 163 147 68 78 122 170 154 125 196 173 176 218 219 183 190 199
75 81 114 106 90 102 106 97 99 101 96 95 98 106 117 130 147 149 156 156 138 108 97 119 91 110 107 118 139 97 118 172 211 239 217 164 186 235 290 178 146 216 203
82 79 98 109 101 113 117 118 112 119 110 115 123 134 143 147 144 163 173 164 170 147 119 105 96 76 72 114 128 103 146 185 191 188 183 200 196 230 269 244 240 191 200
27 59 70 83 89 92 89 94 133 133 140 148 145 147 155 167 164 176 197 204 215 204 171 166 144 117 101 133 153 146 207 212 182 196 188 197 201 234 246 272 258 247 172
225 207 171 126 79 79 102 111 111 118 138 158 166 167 161 170 189 202 199 199 194 201 202 215 226 233 217 216 194 211 203 250 262 224 244 249 251 269 254 198 220 228 240
207 205 199 210 219 239 219 94 77 119 120 104 121 143 172 198 228 230 224 212 193 187 205 219 231 207 231 250 234 230 242 236 283 307 287 257 254 310 397 391 352 332 512
182 171 167 165 162 170 191 218 213 235 201 149 151 125 97 130 372 266 195 217 230 213 203 212 240 243 249 268 279 245 235 259 488 452 520 607 660 589 435 376 390 424 463
162 151 133 130 139 157 171 173 170 165 198 216 305 396 396 383 309 259 211 220 194 209 137 152 256 284 268 249 244 245 254 282 583 658 609 628 621 633 660 524 405 374 594
118 135 160 160 130 128 116 128 140 135 151 188 230 274 336 419 370 321 256 155 189 263 261 270 282 320 271 219 168 325 402 565 534 631 646 699 559 566 554 585 621 633 638
92 108 148 160 151 146 137 133 151 139 146 152 145 178 204 228 300 267 276 269 213 191 267 324 393 519 436 451 299 326 412 632 755 756 825 690 666 540 472 546 497 527 673
70 86 127 160 164 169 182 174 148 151 140 151 159 171 168 164 149 191 259 286 324 278 314 413 472 468 405 681 678 693 674 688 685 774 807 787 680 580 569 551 477 448 490
88 93 100 121 128 145 153 174 143 107 91 100 118 128 133 145 140 129 131 150 220 246 302 332 348 365 405 370 546 619 558 594 603 587 541 524 488 480 451 391 335 277 278
92 98 108 93 59 98 222 223 159 173 111 104 160 188 195 216 217 203 184 183 176 180 212 257 306 321 342 369 397 434 445 412 390 302 281 254 222 213 211 179 155 129 105
95 101 120 125 122 122 155 206 408 356 313 305 288 225 257 298 299 291 291 290 306 292 332 330 330 322 316 278 264 270 287 277 236 201 188 154 130 92 78 86 94 91 91
104 110 125 144 151 145 148 144 140 206 378 381 350 329 328 301 291 301 311 361 356 343 354 322 292 263 237 225 207 191 174 142 114 111 103 99 79 77 75 77 65 63 71
157 192 166 169 173 176 171 164 160 171 199 200 281 270 301 338 377 362 319 351 356 335 251 213 189 172 162 145 129 110 104 111 121 119 114 102 88 77 81 96 108 99 88
144 152 163 179 195 196 191 202 202 206 220 225 223 259 251 286 333 357 334 264 222 219 182 163 134 115 95 85 82 91 100 109 99 97 104 104 106 99 107 98 95 116 101
156 167 160 155 159 166 164 166 167 173 186 207 235 221 190 202 299 278 237 178 148 129 112 100 102 100 97 95 96 97 105 113 113 107 104 99 97 98 96 88 81 85 90
152 166 177 181 188 180 178 184 172 176 185 197 207 196 181 173 175 182 171 165 142 130 112 96 106 112 109 105 98 101 96 91 93 90 86 80 72 71 64 64 64 64 78
158 172 182 187 180 186 180 175 174 169 165 157 155 179 182 157 136 131 129 128 121 126 119 109 111 113 108 93 78 75 83 82 80 73 67 63 61 60 60 73 79 83 85
147 154 157 159 151 153 160 146 137 128 127 129 128 140 146 134 128 132 137 139 141 135 113 106 98 101 99 94 87 80 80 78 67 53 58 62 68 77 73 80 83 82 77
128 137 136 137 135 135 132 126 117 115 102 102 100 97 96 102 112 119 118 110 106 105 98 88 85 89 83 78 71 68 69 65 64 67 60 58 72 75 80 81 81 78 70
109 111 122 120 117 111 111 108 98 87 80 75 79 83 94 98 104 102 98 91 82 86 84 77 73 74 72 69 70 73 74 77 70 62 63 73 93 100 93 86 78 70 66
111 113 110 105 105 93 82 77 74 72 70 71 73 80 76 78 80 86 84 84 74 71 73 70 68 66 55 51 54 71 80 81 82 83 82 91 96 94 86 83 79 70 67

GFSGL_con_3kmhel_099.txt.gz
Helicity
146 137 103 97 92 78 54 44 42 27 33 36 69 85 76 65 96 118 123 170 186 205 79 17 36 72 48 99 70 19 59 72 75 58 82 76 184 205 235 176 173 110 153
132 125 80 94 88 77 52 41 36 32 34 24 43 56 78 80 77 88 108 88 94 86 44 22 11 55 4 29 54 71 24 66 64 -17 53 81 126 188 161 193 222 198 182
130 109 92 75 74 65 55 48 40 38 37 47 45 71 84 91 100 104 133 154 157 123 121 110 94 86 70 109 75 145 144 105 144 111 20 55 62 118 178 188 179 200 238
106 113 93 66 57 58 60 56 49 39 43 51 63 70 92 114 141 139 126 117 105 109 108 105 109 143 156 192 181 118 161 189 159 157 99 65 86 111 110 84 124 189 192
87 72 78 70 89 89 57 54 56 53 45 43 52 49 59 78 93 107 142 161 155 137 115 93 102 110 129 138 173 121 166 156 156 131 107 75 62 112 145 175 154 155 178
130 145 96 73 77 86 82 50 47 46 40 39 43 56 71 89 110 130 106 109 128 121 109 96 93 128 152 190 187 166 185 180 129 147 155 157 113 120 132 167 199 181 153
354 340 248 170 124 116 90 75 57 37 32 28 24 31 40 57 100 122 128 92 94 109 117 129 132 152 170 154 169 187 201 203 234 213 236 252 249 257 233 187 231 273 290
285 210 216 175 185 179 182 181 159 89 35 66 74 87 69 176 163 18 93 134 135 128 128 117 133 112 121 151 154 156 169 180 184 225 240 237 283 421 467 460 405 362 432
177 140 171 199 196 187 185 196 204 195 238 283 314 373 320 368 350 291 197 154 127 121 105 106 172 183 193 196 141 173 186 206 366 367 432 435 437 447 371 316 290 308 381
139 136 159 158 163 178 185 192 175 176 209 224 261 339 381 365 393 293 151 134 154 202 296 288 317 226 171 141 178 212 214 247 322 373 405 471 484 510 533 456 334 174 239
74 77 96 117 132 140 134 151 145 148 161 194 213 239 276 325 314 320 273 176 191 304 355 334 344 384 345 313 292 216 233 434 522 593 591 606 550 442 384 463 590 507 461
74 91 119 135 124 118 126 139 146 133 143 161 159 172 185 194 256 259 270 272 279 283 313 295 288 322 350 371 374 517 619 674 674 714 748 712 669 600 500 491 448 465 414
88 109 131 148 145 156 171 167 155 161 140 143 151 164 175 165 152 211 252 260 251 218 225 254 263 263 303 349 379 360 415 418 478 524 532 532 439 323 268 283 293 296 357
65 95 121 146 138 132 144 164 145 119 91 82 100 125 139 152 143 138 133 141 184 185 224 275 289 287 310 305 348 384 351 341 341 331 311 283 258 272 269 226 199 165 190
57 51 62 63 62 92 180 166 130 172 126 92 104 106 118 152 175 186 146 133 126 155 174 210 249 266 282 288 294 291 265 253 251 217 208 196 183 171 180 151 143 136 127
74 67 67 59 54 46 58 104 245 202 209 195 181 146 158 188 195 208 218 236 251 248 280 296 300 283 276 253 256 253 258 245 198 155 139 130 129 124 119 123 120 121 114
102 102 93 99 93 85 81 79 68 151 254 271 237 202 194 172 180 187 201 239 240 235 237 244 261 273 271 259 228 197 182 150 119 117 113 107 99 100 102 103 102 94 97
128 158 134 144 154 168 160 161 150 156 174 191 269 252 227 204 177 159 157 167 216 242 189 185 182 162 150 147 143 138 121 106 105 105 109 114 113 108 112 118 118 115 110
125 131 138 152 166 171 174 182 185 189 192 187 171 199 209 224 243 271 251 219 195 196 181 178 163 149 133 114 101 95 93 101 101 105 119 121 118 111 115 108 106 117 95
148 165 145 137 146 161 165 172 183 195 200 202 213 208 176 166 237 246 231 205 189 176 158 150 140 133 127 117 111 109 111 115 113 111 112 113 112 108 107 102 96 93 92
144 158 177 171 181 180 182 189 186 187 193 194 200 195 178 162 169 172 170 177 167 156 149 143 134 132 131 130 127 126 127 120 117 110 107 105 104 106 98 93 90 90 92
136 146 155 162 157 162 161 154 152 149 148 143 137 151 158 143 141 137 137 135 125 120 112 109 111 113 114 113 109 110 112 113 108 101 96 90 87 88 87 88 93 100 101
126 129 130 135 132 128 131 128 124 120 120 121 116 121 127 127 124 124 123 122 120 117 111 105 99 100 100 99 96 92 92 93 86 74 71 72 75 78 81 96 100 98 99
113 120 122 121 116 114 111 113 113 121 113 106 101 96 97 95 99 108 106 103 101 102 96 95 95 95 82 79 78 79 80 75 70 71 66 69 79 80 85 85 87 90 88
95 99 107 107 107 106 105 110 105 100 96 91 87 87 89 93 99 101 98 92 93 89 89 81 75 77 81 78 80 80 76 79 71 59 60 66 81 83 89 90 91 89 85
97 103 103 99 100 93 87 90 89 84 83 82 83 87 87 88 88 87 86 82 76 71 67 65 67 67 58 57 65 77 77 78 74 70 67 71 84 89 88 93 91 82 82

GFSGL_con_3kmhel_102.txt.gz
Helicity
153 120 120 132 106 91 60 76 73 80 59 30 18 19 31 57 63 64 98 135 134 190 229 326 355 371 320 191 117 90 96 127 121 98 77 39 63 50 78 98 156 177 143
194 142 129 127 113 93 71 67 64 56 59 34 24 32 32 21 36 53 68 68 76 110 135 157 128 33 25 26 26 -11 -26 30 61 31 22 27 6 61 -12 22 116 202 199
210 158 155 134 103 95 83 71 57 47 41 33 21 36 50 48 46 42 48 45 63 78 86 69 5 24 46 79 59 22 -3 12 24 45 -26 -5 20 21 71 49 61 66 144
171 169 151 128 104 113 99 86 70 54 37 18 7 13 18 31 33 27 32 42 26 31 41 47 79 112 94 69 88 67 79 96 49 50 78 94 87 46 89 77 97 116 82
195 210 205 151 128 120 113 98 85 68 50 36 26 17 27 31 40 54 61 61 58 64 75 70 62 74 95 85 117 123 157 188 185 230 156 129 150 114 121 132 132 129 136
430 381 245 160 133 100 108 107 91 73 60 51 42 32 35 43 59 71 39 60 69 78 87 117 124 115 121 159 178 128 116 151 152 173 186 208 195 204 175 180 172 146 143
382 407 417 368 301 293 146 141 100 82 66 62 58 53 63 120 184 71 46 22 69 78 76 82 98 110 120 88 115 139 120 86 127 121 124 129 114 109 147 117 129 163 174
402 429 399 366 377 397 278 162 173 174 172 159 163 121 199 200 156 107 57 18 -40 -20 53 99 130 125 159 174 125 119 151 149 155 122 134 152 205 238 227 256 266 232 244
369 385 333 262 295 309 209 196 181 123 144 165 179 249 289 249 271 211 154 104 94 94 208 248 177 137 153 149 137 116 138 247 368 438 524 569 513 534 366 195 201 205 231
354 338 250 217 236 207 180 166 182 198 210 194 232 277 311 306 339 281 178 138 186 286 308 281 328 278 211 170 116 137 123 227 327 412 433 484 389 398 482 303 272 276 273
102 130 83 95 97 155 162 159 168 173 187 225 239 247 269 282 289 308 298 256 311 384 410 401 330 328 282 326 288 288 229 404 532 476 459 439 493 390 344 347 328 245 196
70 95 132 142 139 129 132 139 147 142 153 162 162 165 157 177 245 266 257 233 237 263 263 221 230 297 303 296 276 340 460 367 398 441 466 480 444 407 341 283 267 255 268
97 106 94 96 111 139 140 133 136 153 151 156 156 164 163 151 142 204 234 224 216 196 193 194 186 215 245 275 313 311 300 300 328 366 369 370 345 284 235 248 238 236 246
99 103 113 134 123 136 141 159 146 120 108 108 113 123 132 145 141 133 128 127 144 150 159 178 182 201 244 250 265 300 289 280 262 266 278 280 265 270 271 226 203 153 178
87 94 100 101 105 133 220 210 153 188 146 100 104 110 109 137 162 157 129 126 132 130 122 138 157 166 169 179 194 217 224 231 245 234 231 228 233 221 210 161 151 142 153
79 87 97 99 100 96 103 147 282 258 258 252 231 154 154 167 152 156 148 143 135 116 129 157 178 185 194 189 191 197 210 215 200 181 184 186 191 174 154 145 137 141 138
105 94 81 88 88 92 94 90 101 151 278 310 254 236 221 206 221 225 233 250 220 170 199 205 204 202 198 196 196 195 202 203 186 188 179 168 156 159 162 161 154 144 148
104 130 112 118 114 114 112 105 109 106 112 137 226 223 238 231 221 203 167 151 202 230 215 203 196 189 186 185 184 185 182 176 183 189 192 186 174 164 161 164 159 153 143
134 127 123 125 133 133 127 129 134 141 149 153 145 180 194 214 246 271 263 220 207 196 177 169 162 159 160 164 173 181 191 200 192 178 174 166 161 150 153 148 142 156 134
143 167 160 152 161 170 175 180 184 188 195 207 222 235 204 196 227 230 211 188 173 160 147 145 146 148 152 151 146 140 132 128 125 124 131 134 138 138 140 138 142 136 134
131 142 157 155 167 172 176 184 184 185 190 196 207 217 226 185 181 173 163 164 157 149 142 139 137 141 136 133 132 130 130 127 130 128 126 123 123 128 126 125 123 115 114
133 143 154 163 166 178 178 178 178 176 176 175 166 164 168 151 149 145 146 145 138 135 130 132 132 135 137 136 136 130 129 130 127 125 123 119 120 123 121 122 116 110 111
128 133 139 146 146 147 154 154 152 151 152 152 150 152 157 157 154 146 140 134 132 133 140 133 132 131 128 126 127 131 128 127 122 114 108 110 110 110 110 112 117 112 117
118 123 129 136 142 133 131 129 129 151 144 142 144 141 137 128 125 126 123 123 120 124 123 120 125 138 121 115 113 110 111 110 99 100 98 100 100 97 102 108 110 111 106
104 102 106 109 111 110 109 120 123 125 125 121 116 113 107 105 104 108 110 110 112 113 116 110 110 105 105 102 104 108 107 111 105 94 86 87 100 102 111 106 117 108 110
106 110 109 108 109 108 105 102 103 97 101 95 92 91 91 93 97 99 101 104 104 100 96 92 91 89 81 76 90 97 92 94 94 91 83 84 98 102 106 111 113 108 107

GFSGL_con_3kmhel_105.txt.gz
Helicity
185 213 217 140 155 127 135 118 144 100 84 87 96 100 93 91 86 80 102 112 82 65 123 163 175 226 294 333 339 382 328 220 160 70 62 77 162 143 72 117 111 104 113
174 170 138 160 148 125 130 121 127 98 75 81 92 96 48 39 61 79 76 77 70 80 83 104 126 211 185 277 326 262 239 187 158 41 36 24 47 114 104 36 72 107 109
116 132 193 203 182 153 118 137 149 88 78 82 62 70 56 36 29 33 52 56 58 59 79 124 121 152 163 152 128 99 108 127 94 82 29 13 59 83 70 80 98 70 97
101 81 278 288 201 146 113 151 127 108 95 88 72 72 59 40 23 23 21 31 30 30 46 56 64 58 48 27 48 76 68 72 86 77 70 56 53 43 70 63 79 131 155
143 220 331 290 243 194 176 162 130 129 112 90 92 77 62 43 18 18 24 25 8 32 45 31 28 20 28 50 80 74 71 88 85 108 87 123 81 58 83 88 123 126 133
476 563 427 270 236 220 192 177 170 154 121 106 98 84 73 71 147 53 32 32 22 24 34 31 24 58 52 54 29 6 43 73 92 123 104 92 101 129 123 139 122 107 76
616 642 679 527 441 404 281 204 163 154 139 135 137 111 188 182 217 174 113 39 57 56 61 60 58 62 96 77 63 76 74 60 129 135 135 133 124 150 179 158 137 131 116
614 590 549 481 474 439 386 367 323 313 442 244 257 280 231 223 226 198 172 84 51 61 93 121 138 175 225 203 176 195 229 255 198 146 163 255 229 156 121 114 73 64 72
482 622 512 475 453 426 478 422 384 437 361 286 291 305 244 211 232 188 132 89 123 191 180 160 130 131 118 88 77 113 142 230 330 358 468 516 502 434 304 165 158 164 136
537 303 371 316 298 401 391 367 386 448 294 339 342 338 291 224 277 251 182 201 275 288 295 272 244 228 210 222 124 152 183 233 300 333 325 396 390 411 384 331 287 212 265
91 90 71 159 212 163 262 252 169 147 204 214 182 268 311 308 285 271 238 261 267 298 276 266 238 207 223 270 261 302 274 365 353 395 353 343 373 349 298 310 326 271 225
61 74 62 85 125 121 123 92 86 84 52 39 60 66 76 125 210 214 213 192 191 193 184 171 177 205 215 229 216 250 266 261 287 304 306 300 291 253 232 225 236 242 257
70 100 145 119 98 108 164 154 112 105 123 132 125 125 129 124 122 217 240 238 238 213 203 197 208 231 235 261 272 220 192 181 182 207 212 212 209 196 158 163 147 131 183
69 94 100 159 193 203 155 165 183 160 112 107 95 95 121 150 159 139 143 146 174 167 173 173 173 206 253 248 258 278 265 269 239 222 217 207 192 197 204 184 167 147 167
69 74 67 40 77 118 188 208 166 199 187 134 158 185 142 178 201 195 168 171 176 172 167 190 219 237 248 250 263 273 260 250 246 226 203 186 182 174 180 171 167 167 193
86 74 79 71 72 70 81 117 258 240 254 265 252 180 191 198 197 204 211 218 219 211 222 235 247 254 261 254 245 242 250 256 238 218 221 212 206 196 178 179 175 185 180
105 103 93 102 100 97 88 91 103 149 263 277 264 260 265 249 238 232 249 296 261 225 241 252 262 257 241 233 227 222 219 217 204 208 209 210 199 195 196 196 179 167 164
87 115 105 109 108 108 116 126 120 125 144 159 219 223 249 257 280 254 182 173 199 228 231 234 234 232 232 227 217 208 199 185 180 177 181 180 173 163 165 163 163 154 138
126 114 106 108 121 127 125 134 136 142 152 152 140 165 182 205 242 272 268 227 222 219 212 210 205 201 194 184 178 170 169 173 175 170 166 165 165 156 155 145 119 125 129
115 148 136 121 122 130 134 140 142 152 164 175 190 219 189 182 201 216 217 207 208 204 193 187 182 178 175 161 157 163 150 158 149 138 136 137 133 132 132 135 137 141 139
134 134 146 132 139 140 144 153 153 152 153 166 186 219 236 180 184 184 182 190 183 175 173 162 159 167 165 162 150 147 147 139 145 137 142 135 126 134 126 125 127 130 129
131 133 139 148 155 169 161 160 164 167 161 146 139 158 180 165 163 160 160 161 162 159 151 148 142 139 144 144 144 137 132 138 141 139 128 123 124 121 116 118 121 118 119
123 128 129 132 124 126 141 152 146 137 142 145 139 142 145 149 150 140 140 139 136 135 146 139 134 127 126 123 126 133 137 138 128 121 124 121 115 123 111 116 114 128 131
113 128 120 113 145 135 121 113 111 140 140 130 129 130 134 129 123 126 126 121 115 119 118 107 105 124 125 129 130 127 125 121 111 115 114 108 108 116 116 115 112 114 112
111 108 111 113 122 111 104 116 118 123 126 128 125 123 117 113 113 114 107 105 107 105 103 106 114 117 114 108 112 125 119 128 121 116 106 96 106 94 98 106 123 114 116
110 113 108 107 109 110 110 108 109 110 112 108 106 105 102 98 100 94 91 101 101 93 102 98 106 107 102 99 124 112 104 109 107 107 95 86 95 103 116 124 110 116 111

GFSGL_con_3kmhel_111.txt.gz
Helicity
217 325 318 356 354 380 298 273 226 216 191 163 210 198 214 201 194 169 139 124 116 109 108 123 78 171 170 206 195 166 164 236 198 189 207 199 185 126 134 105 98 78 100
300 375 317 332 358 349 267 341 284 270 208 192 191 207 179 171 177 165 172 125 107 133 119 108 101 192 140 165 162 126 108 155 192 164 209 207 155 140 112 115 89 79 73
329 211 296 312 270 290 332 351 362 324 234 212 187 197 182 179 172 156 150 125 97 113 129 93 79 130 105 161 155 121 157 197 169 210 186 201 158 184 107 80 76 80 121
258 261 295 237 201 261 324 333 303 245 200 179 156 154 149 160 166 160 143 128 95 71 89 79 63 70 69 89 110 107 140 154 155 145 158 149 171 149 133 109 67 78 52
301 288 254 291 158 223 291 335 242 210 171 182 170 154 146 145 172 135 143 137 115 88 72 54 49 49 47 67 74 74 95 87 89 110 116 81 67 82 77 101 102 67 74
347 303 290 359 506 411 255 244 213 125 155 186 162 178 256 251 225 167 111 109 87 66 46 35 34 22 19 32 42 47 60 51 45 45 75 88 80 106 125 122 108 125 113
375 356 323 306 526 642 634 444 357 219 290 326 365 316 313 273 278 188 166 140 138 163 146 105 107 127 111 77 32 141 171 197 189 157 134 160 156 178 174 165 200 199 223
371 360 335 317 415 462 648 695 581 533 466 473 475 491 384 363 324 228 211 264 282 256 259 254 207 202 194 180 205 243 237 210 171 176 188 199 179 180 172 206 226 235 238
194 369 257 238 311 392 555 682 661 667 723 695 618 567 484 411 379 280 325 344 321 305 282 284 249 222 244 198 255 326 355 351 295 335 376 372 357 324 227 203 211 194 197
132 129 251 167 204 263 171 227 471 630 798 700 836 696 588 451 362 364 343 370 384 365 336 323 350 273 266 253 234 279 339 313 336 323 367 356 351 391 358 280 214 261 264
45 83 91 138 96 84 184 217 220 138 448 509 628 580 620 479 358 338 367 408 310 353 390 368 349 330 296 340 353 343 330 286 289 286 299 326 386 354 370 338 354 292 280
26 40 66 94 103 94 84 128 93 110 166 179 243 390 436 474 550 531 444 365 290 256 285 304 331 315 377 352 339 399 391 377 331 358 328 334 323 302 311 281 268 283 283
13 40 64 93 114 114 115 109 110 105 68 60 107 49 93 104 131 219 246 343 317 272 292 210 243 299 330 369 395 350 303 326 321 297 293 310 276 201 199 230 236 237 249
44 25 30 49 88 123 133 144 129 89 79 76 73 89 69 74 81 71 80 86 117 141 145 160 201 238 278 294 292 286 282 276 268 253 241 237 256 275 259 195 164 170 230
67 76 23 15 35 54 95 119 127 156 115 105 109 94 103 111 110 123 126 129 125 119 111 136 162 189 219 254 293 303 289 288 263 230 224 228 241 265 287 249 215 225 216
74 71 86 53 37 31 42 79 178 172 204 223 196 142 177 204 187 200 214 206 215 216 242 237 238 221 216 218 240 267 276 263 254 242 237 236 236 241 255 261 237 204 211
89 84 78 91 94 58 44 55 100 168 214 235 260 262 232 170 166 177 187 212 206 213 202 190 196 206 208 212 231 237 233 234 236 253 242 227 208 213 232 266 273 267 240
103 100 86 90 91 99 105 79 78 102 144 183 231 216 232 229 202 180 182 206 228 241 209 190 186 188 189 193 201 208 215 214 232 252 276 250 235 225 236 259 264 250 257
88 90 92 106 108 96 93 103 117 135 148 169 191 150 177 216 232 241 232 200 179 190 194 213 203 193 194 195 204 219 226 214 209 224 246 259 226 195 208 227 214 228 226
84 114 107 105 106 116 113 93 100 121 147 177 198 157 132 156 198 211 224 216 202 184 185 209 224 239 228 193 190 196 221 231 227 229 244 241 216 179 200 218 224 183 187
101 94 99 99 121 124 122 89 74 75 107 153 176 156 143 133 146 167 184 213 212 199 182 179 194 198 202 201 183 178 187 197 206 225 249 242 206 210 175 172 195 170 158
103 90 103 112 95 113 130 123 107 69 75 116 133 149 156 129 131 140 149 150 155 159 160 162 184 195 167 168 163 164 178 197 210 209 223 227 204 209 197 168 147 138 128
120 102 87 101 96 96 109 136 122 111 101 99 94 98 106 112 122 129 130 123 128 137 133 138 142 154 145 138 135 129 138 155 152 156 188 201 181 177 175 158 153 165 136
118 126 117 110 92 81 84 106 108 108 99 84 75 74 70 70 79 96 105 101 100 99 103 108 114 105 91 106 97 105 113 119 126 135 149 164 164 150 156 142 139 139 141
95 108 118 125 130 136 99 84 85 92 92 88 85 86 75 70 73 83 89 91 86 76 83 85 89 81 106 104 99 109 120 131 124 132 137 157 162 161 148 138 147 145 153
90 94 87 85 111 120 128 120 116 105 94 99 97 91 80 76 65 76 80 89 98 71 65 72 93 81 104 89 95 109 112 116 119 138 140 133 126 135 121 132 151 135 131

GFSGL_con_3kmhel_114.txt.gz
Helicity
313 321 142 153 278 419 359 312 330 278 165 198 215 209 221 185 203 215 194 169 159 131 118 127 116 171 184 174 137 140 101 129 70 61 91 132 166 213 194 112 162 143 99
301 287 241 243 251 327 311 279 321 287 205 180 213 172 184 174 202 205 200 173 170 154 115 117 99 153 128 143 170 173 163 186 180 114 133 187 210 276 238 132 108 129 111
286 274 296 390 264 220 253 265 301 312 245 204 187 166 136 160 189 154 169 175 152 126 114 97 100 108 108 133 172 194 222 206 182 182 173 180 228 274 157 123 110 103 107
253 280 239 296 305 167 183 263 314 268 223 225 202 158 143 159 137 143 172 174 154 132 115 126 107 126 99 113 143 115 188 153 154 132 154 229 208 202 191 146 118 75 89
143 258 252 277 315 294 164 212 292 274 240 251 211 172 158 170 173 160 169 143 137 137 111 118 112 117 39 99 92 117 132 122 157 143 160 193 175 183 152 162 131 129 177
157 269 248 247 290 367 442 360 267 313 286 264 188 174 245 242 229 238 160 151 144 126 112 103 98 86 60 83 65 76 92 80 89 118 100 85 84 107 120 127 135 131 156
206 257 373 306 301 333 362 632 579 549 447 435 369 311 283 261 217 228 218 152 149 143 128 104 103 128 90 89 151 178 199 203 155 88 67 61 79 121 132 115 130 144 165
237 230 298 322 262 266 420 618 778 705 638 556 485 399 329 348 318 183 247 279 293 278 255 234 198 163 169 139 159 187 167 175 145 158 178 219 195 153 146 144 172 230 273
162 195 241 225 248 280 328 339 368 468 641 697 532 537 446 408 406 331 331 378 396 357 336 316 261 208 194 181 235 265 269 250 236 314 355 342 301 269 210 203 219 272 252
62 84 125 123 87 190 178 163 91 302 264 447 481 578 588 502 490 478 527 498 468 415 410 388 380 281 245 204 240 294 346 314 301 314 349 338 340 352 363 296 260 263 303
19 23 28 63 91 75 70 146 192 183 172 192 295 423 593 531 608 465 450 522 554 570 421 339 333 345 354 350 348 351 351 412 444 428 377 369 407 408 374 284 289 273 273
16 24 42 57 41 40 57 88 125 114 146 146 190 232 275 237 335 385 335 270 195 310 431 528 427 280 335 398 369 394 449 435 455 377 346 342 297 282 324 252 327 353 327
7 19 36 48 63 80 105 95 87 84 100 105 103 93 163 159 104 235 270 275 286 336 274 293 447 556 583 465 472 466 390 345 333 309 335 269 226 159 196 269 274 301 349
41 9 22 41 61 83 77 100 116 124 122 111 98 91 86 97 116 102 102 102 121 130 151 169 205 233 253 274 290 285 259 233 202 171 169 190 174 162 183 186 220 226 259
49 47 18 11 24 38 68 105 111 136 117 106 120 127 114 104 87 91 86 106 139 152 146 159 169 169 178 200 230 253 248 231 234 245 221 223 236 229 228 201 207 237 240
62 56 55 23 21 21 32 66 152 151 206 211 173 130 138 153 150 146 163 161 150 138 143 152 181 199 206 171 150 180 223 227 214 199 210 228 227 224 219 222 202 190 201
55 63 57 63 52 31 43 65 87 123 195 221 217 202 156 141 150 154 153 183 181 188 176 172 169 178 177 184 193 206 216 230 223 233 210 205 203 208 203 206 195 181 183
78 83 61 58 60 67 75 83 90 110 132 164 203 202 188 177 169 148 129 168 198 214 202 201 196 197 202 205 203 199 202 219 231 222 221 203 198 202 217 226 229 212 200
77 81 83 82 76 70 72 94 114 127 133 134 137 162 176 186 200 228 227 191 178 190 186 194 190 192 188 182 190 197 213 227 224 225 216 200 200 203 219 209 207 225 208
68 75 81 94 103 96 79 74 86 120 155 161 156 147 144 171 213 214 212 196 188 183 177 171 174 178 176 167 178 185 202 229 233 237 234 206 188 181 181 183 183 191 201
74 73 60 63 90 105 89 71 56 82 112 135 142 130 143 140 151 167 172 184 173 167 167 167 182 185 185 180 175 182 190 207 220 219 212 202 197 171 156 153 159 166 168
96 82 76 66 66 83 93 75 62 75 84 85 88 104 111 103 120 133 142 149 152 149 136 124 154 167 169 164 150 148 165 182 196 200 197 200 193 184 155 152 153 156 169
93 98 92 80 50 54 86 89 90 80 71 67 61 68 74 81 89 89 88 96 109 118 121 125 123 135 134 123 123 125 138 151 149 153 173 180 178 178 168 169 161 168 161
73 78 92 90 85 73 61 65 64 65 60 56 49 49 54 54 59 67 69 68 76 78 84 85 94 94 94 106 112 122 123 121 122 136 145 149 148 143 149 150 146 135 149
78 80 83 91 101 99 90 80 77 73 71 67 61 60 51 53 53 57 68 71 62 66 79 73 78 90 101 106 107 119 131 137 136 135 136 141 147 137 130 137 142 137 135
72 72 80 81 93 95 89 84 84 75 80 81 75 70 58 67 68 64 63 77 77 67 68 58 58 60 62 71 81 108 110 113 120 140 133 118 124 130 127 132 142 132 133

GFSGL_con_3kmhel_117.txt.gz
Helicity
281 308 288 302 173 190 271 281 270 310 300 267 254 237 218 245 266 241 232 234 203 168 168 147 107 143 155 220 240 213 249 232 159 150 69 85 71 94 136 126 124 110 93
263 270 263 279 368 151 198 222 262 286 271 223 221 222 216 200 257 213 209 213 182 163 141 140 127 147 162 194 198 164 128 179 143 39 67 85 103 67 109 183 200 146 134
288 288 266 293 309 339 195 197 245 259 239 229 236 220 203 211 225 161 184 205 189 168 139 139 132 140 143 115 137 112 160 146 123 108 82 146 172 196 225 249 266 181 149
302 252 278 274 239 232 249 137 177 205 207 224 242 226 175 175 173 147 175 185 169 154 156 143 127 160 109 166 149 145 176 186 209 202 231 254 229 210 241 217 231 214 175
290 283 217 246 216 202 200 227 185 135 174 220 249 204 146 108 136 150 162 169 171 155 154 134 132 127 110 154 152 178 184 194 187 158 266 336 275 245 217 239 185 192 250
209 290 268 322 280 243 193 212 290 324 266 212 231 280 152 295 325 145 129 147 152 164 152 139 141 112 90 63 90 91 87 150 172 177 175 178 210 209 182 190 151 217 212
182 268 324 314 326 296 186 163 216 372 535 642 660 489 348 335 317 248 147 146 157 149 167 148 145 159 126 155 183 278 296 291 217 138 118 151 127 164 159 163 175 198 175
109 144 209 284 349 333 247 271 190 210 437 745 647 606 421 407 292 178 210 195 242 271 289 265 205 179 217 199 193 179 240 235 203 184 191 206 193 161 182 164 173 217 240
54 89 125 141 184 212 262 255 202 134 184 321 449 465 388 439 333 339 289 320 358 373 359 343 279 228 219 216 236 252 237 241 195 230 254 267 243 252 227 196 217 264 246
43 32 14 37 49 81 108 178 186 227 239 216 388 574 492 304 326 256 307 404 505 500 524 423 398 268 202 227 255 277 301 256 230 242 293 308 282 278 336 270 222 254 325
9 18 43 44 37 36 27 38 81 121 200 204 131 182 222 288 290 276 287 323 392 514 568 595 513 420 320 268 293 349 346 377 364 359 318 376 405 418 411 349 350 321 305
19 31 42 38 33 43 54 61 59 49 72 139 172 170 192 188 266 268 297 447 391 356 327 280 295 457 507 396 299 277 288 297 341 421 381 399 402 411 414 435 473 507 427
2 17 32 46 51 63 73 89 62 71 70 44 51 112 165 181 173 214 217 266 281 213 212 220 259 257 265 331 418 388 339 348 378 369 365 374 350 352 292 307 242 266 332
13 9 3 -1 21 48 54 70 85 91 68 59 71 75 62 63 101 114 126 138 163 137 187 303 283 264 273 255 302 408 426 514 460 375 410 286 287 162 169 158 130 165 203
27 20 14 0 -9 -11 25 72 61 99 85 58 83 83 75 74 51 67 80 97 113 117 116 148 184 206 242 271 279 252 241 229 244 181 160 156 134 139 160 143 156 185 183
25 25 24 14 -1 5 10 24 88 133 187 206 152 95 93 124 122 115 117 107 105 109 134 164 193 196 195 194 223 257 250 237 223 190 182 171 175 173 177 189 173 163 173
28 34 21 28 19 29 37 51 67 78 109 192 201 188 172 156 146 135 131 157 171 186 176 168 169 185 182 178 178 185 191 209 205 228 219 196 198 211 194 186 175 168 193
56 58 38 35 32 31 31 40 47 64 86 113 141 172 177 178 177 175 143 165 178 208 173 185 202 210 208 206 207 209 211 220 226 221 214 200 201 193 214 236 232 219 217
65 59 58 58 61 60 55 58 69 85 90 88 104 124 158 174 188 220 210 158 147 170 172 180 176 176 177 179 186 190 195 205 202 204 211 204 198 184 202 198 204 220 195
82 86 66 56 61 69 70 67 73 82 95 111 121 131 107 115 163 177 181 173 174 167 165 169 175 179 181 177 179 180 189 206 205 200 193 180 178 161 153 158 165 168 170
62 58 60 50 55 42 44 59 63 73 70 68 77 87 97 78 104 118 127 144 142 143 145 145 155 164 167 169 162 164 167 171 177 175 160 145 139 139 136 138 143 148 150
72 64 60 47 42 50 43 37 44 49 59 53 41 50 67 56 70 80 91 100 107 106 104 102 123 139 141 138 129 129 146 164 168 167 158 153 139 132 123 123 134 133 134
103 93 82 67 53 51 50 48 41 37 39 37 33 38 42 42 49 53 58 73 84 92 93 90 90 105 112 112 110 108 115 123 126 124 126 124 119 114 113 110 99 108 110
102 96 88 84 75 65 65 61 51 46 35 26 24 30 31 22 32 37 40 51 72 85 87 81 77 75 74 86 91 90 84 86 91 104 101 93 106 108 113 110 106 106 103
99 87 88 85 87 84 80 73 63 54 52 47 40 35 28 26 32 37 38 45 65 72 66 69 72 71 74 77 89 100 106 113 110 114 107 101 109 110 112 104 108 120 125
88 85 75 73 81 79 78 76 68 62 62 53 48 51 54 52 41 32 36 40 59 58 49 43 52 64 68 69 88 104 113 118 122 134 116 106 111 121 116 116 119 119 120

GFSGL_con_3kmhel_120.txt.gz
Helicity
304 280 275 291 301 267 188 133 163 253 213 210 210 212 249 256 316 264 255 266 255 242 215 220 188 156 125 119 147 170 191 250 267 376 311 189 149 111 50 19 92 109 94
280 288 268 254 255 221 245 301 167 164 216 247 242 188 189 259 290 271 277 265 267 231 187 194 180 169 145 119 121 140 194 304 245 207 185 170 122 114 48 85 100 101 103
307 334 290 246 245 213 209 218 194 140 174 190 192 185 194 231 265 256 250 250 247 205 186 187 199 176 139 148 132 152 177 146 183 224 150 119 112 100 116 92 94 130 164
272 331 358 325 280 239 216 201 222 279 168 155 129 120 140 194 231 247 235 214 217 177 170 180 182 175 152 159 131 139 146 176 157 160 157 152 139 119 168 140 145 169 254
270 328 310 324 243 250 305 228 193 182 224 276 149 142 133 189 240 203 162 150 166 155 166 174 162 160 152 144 154 112 148 158 150 152 181 170 199 212 187 230 185 208 310
152 214 268 336 282 308 321 291 218 176 130 204 300 309 294 359 422 275 167 108 135 138 150 155 156 151 135 132 147 134 162 134 182 179 175 227 188 195 293 300 220 268 322
116 131 168 238 249 288 286 302 310 257 253 199 247 310 374 385 576 309 196 89 109 135 143 145 145 162 150 145 170 170 241 257 215 141 149 199 262 180 211 193 181 260 269
60 68 110 131 164 196 237 272 235 233 219 252 280 274 303 354 364 392 366 189 255 298 309 278 144 157 173 219 244 276 273 265 194 255 276 238 210 217 214 185 200 267 337
86 69 72 51 70 88 127 199 211 146 201 273 283 395 374 436 609 241 272 412 349 357 299 287 240 232 249 252 283 306 322 325 288 322 365 354 328 310 271 218 239 266 235
88 58 37 43 55 64 37 48 55 59 127 103 176 261 405 387 417 228 191 305 384 336 321 320 375 339 292 298 290 312 320 295 287 280 334 325 319 317 356 285 226 281 309
22 20 20 20 19 42 48 59 49 40 52 82 104 135 202 326 319 323 340 245 153 258 337 357 304 250 318 422 441 342 319 364 355 337 343 365 358 365 346 334 320 287 303
1 18 18 22 16 29 56 69 78 73 67 58 63 88 115 114 181 289 356 410 292 103 187 303 365 376 370 458 481 428 373 350 377 442 433 456 432 435 389 397 426 446 474
5 14 29 14 14 21 34 47 56 74 47 49 52 59 81 91 83 131 145 192 224 188 173 168 228 283 411 480 491 463 309 285 345 452 431 438 457 431 377 405 432 496 544
4 7 2 14 10 14 6 20 30 47 35 36 47 72 68 65 99 97 84 87 104 124 162 203 227 247 281 302 349 428 436 386 309 282 299 324 357 351 406 441 412 420 432
-8 -5 -1 -22 -7 -5 -15 -1 10 46 67 32 51 47 57 72 83 93 91 73 71 98 85 141 212 249 253 269 273 304 325 331 313 275 277 336 371 372 534 467 435 483 490
-2 -13 -25 -33 -30 -18 -0 10 41 74 121 143 153 98 71 114 119 126 140 131 138 132 113 141 152 164 193 218 225 226 241 235 213 211 207 200 196 186 207 228 239 235 235
-15 -13 -31 -19 -23 -12 -7 8 42 47 81 137 155 157 158 158 157 126 114 153 205 183 174 184 183 193 180 174 179 194 202 202 186 192 190 197 190 182 174 175 181 177 188
14 10 -13 -26 -21 -14 -17 -19 -12 20 59 86 99 146 161 156 159 176 132 153 161 202 168 178 188 189 191 191 200 198 199 195 186 177 171 159 152 142 161 180 189 181 173
33 30 22 12 -1 -8 -11 -3 -6 -0 17 40 70 95 124 133 162 185 179 112 112 143 143 153 158 165 170 164 164 167 176 198 196 195 199 187 185 172 178 171 174 194 186
71 68 54 39 34 28 16 8 7 3 3 9 31 60 66 66 93 118 128 114 117 115 114 116 123 128 139 147 153 153 155 176 178 174 177 165 159 155 157 163 168 169 172
76 83 83 75 78 49 28 18 -6 -9 -16 -20 -18 -13 8 -2 38 55 70 93 102 107 106 100 113 125 129 129 131 133 135 147 161 160 152 149 148 155 158 157 157 157 151
84 87 84 80 76 81 66 50 37 8 -4 -12 -20 -19 4 -20 -0 20 45 66 77 82 86 78 89 106 116 120 120 115 128 141 155 161 150 137 131 122 121 129 135 136 142
96 99 96 89 84 82 79 62 52 42 24 13 -0 -7 -10 -12 -4 6 21 46 57 66 68 70 75 90 101 107 110 114 118 126 130 131 125 116 111 107 102 106 106 115 126
94 92 87 80 82 81 79 72 57 50 41 34 29 20 7 -7 -7 3 16 25 42 51 52 56 57 63 69 83 92 94 99 99 100 114 108 98 104 106 103 101 102 98 100
95 94 99 90 83 75 70 66 56 48 43 41 36 34 31 26 21 11 14 23 30 34 33 40 48 55 66 83 92 100 103 110 109 106 99 92 98 98 93 89 87 93 95
92 96 84 80 81 76 70 59 45 41 42 41 42 38 36 40 37 30 29 27 33 39 31 31 34 36 39 53 57 73 86 92 97 105 87 77 80 90 91 91 97 91 93

GFSGL_con_3kmhel_123.txt.gz
Helicity
424 242 168 195 202 208 186 184 182 137 108 114 104 106 122 179 203 208 219 262 274 258 252 254 236 208 203 225 183 146 126 128 123 136 253 294 323 275 157 103 110 144 126
279 302 293 275 331 302 254 251 263 263 122 129 135 120 109 125 159 214 214 249 257 299 281 231 227 190 162 201 186 162 131 116 139 133 258 352 281 177 137 124 112 120 54
318 341 358 350 328 321 310 287 268 276 283 159 149 147 135 136 155 175 190 229 250 260 290 243 228 143 148 207 185 162 140 123 143 212 231 289 268 200 168 133 83 -3 -2
288 322 388 401 341 296 280 237 244 284 271 249 269 207 180 159 170 177 195 200 229 243 265 220 189 125 114 153 183 159 154 146 144 166 198 209 212 192 140 126 83 70 117
195 264 318 331 291 317 253 216 232 234 283 253 259 286 356 408 373 305 209 193 183 231 256 220 150 99 101 136 203 174 169 148 163 156 159 192 231 215 158 156 103 117 196
124 175 177 205 242 260 289 250 241 215 199 233 311 302 300 324 425 383 270 187 217 242 250 198 132 154 137 146 151 132 130 146 168 164 153 162 173 200 208 216 194 244 248
89 85 106 114 148 237 259 226 255 249 218 132 175 190 240 245 321 264 259 221 207 253 230 165 137 151 141 134 124 151 190 204 130 122 135 137 173 188 185 177 182 244 259
72 65 85 82 78 85 104 159 191 205 193 199 214 280 180 260 352 252 178 317 505 341 325 393 218 170 170 157 200 210 238 212 193 215 197 165 177 185 200 181 203 302 336
114 80 70 52 58 63 71 78 77 77 125 149 145 217 272 258 404 385 266 358 367 378 503 464 329 255 319 282 252 249 264 289 313 331 370 356 361 314 256 247 294 313 272
97 64 36 33 45 49 46 42 26 16 30 40 73 87 148 183 291 280 213 226 235 291 373 417 452 372 318 232 250 245 288 274 290 323 345 366 364 365 413 336 269 265 359
25 24 40 36 25 35 34 45 38 41 47 50 42 64 95 124 152 259 290 207 241 190 142 191 351 326 221 266 276 276 324 410 471 478 479 464 383 380 382 392 344 276 344
5 27 27 19 9 15 27 30 47 54 61 73 79 83 98 117 151 170 172 160 172 166 232 171 176 331 202 294 369 383 374 331 368 537 532 530 445 434 439 407 438 405 389
16 13 15 9 1 -3 9 29 20 21 18 19 19 39 70 99 121 157 143 126 119 66 79 165 251 268 311 294 318 311 412 457 511 542 477 541 533 446 457 519 519 517 592
17 16 4 4 1 2 -16 -22 -15 -3 -3 7 20 22 30 55 94 128 119 98 106 77 98 105 119 134 185 213 285 344 329 308 409 487 482 446 454 505 628 510 544 532 536
8 4 1 -12 -9 -22 -29 -21 -23 -16 -10 -26 -18 -3 37 58 68 88 102 85 86 93 87 117 152 164 174 187 192 218 253 298 329 328 334 361 418 412 444 413 425 410 396
1 -8 -13 -15 -13 -12 -19 -41 15 40 87 119 112 44 18 94 114 120 136 143 138 122 93 136 154 162 162 160 175 175 190 198 185 189 212 230 258 265 284 294 281 301 312
7 11 9 16 11 10 7 14 26 17 42 105 159 158 142 121 157 134 101 123 181 137 127 136 138 150 162 176 176 175 178 185 170 162 155 165 167 182 200 219 218 201 212
31 40 28 25 19 18 19 25 31 50 58 59 93 122 152 155 154 166 145 98 120 151 133 146 154 154 154 153 163 175 174 176 181 177 169 156 141 139 152 168 174 170 171
54 55 47 41 36 30 34 39 40 50 55 60 66 91 114 118 134 162 172 105 104 120 129 131 135 144 149 148 143 139 148 162 167 165 163 157 150 140 151 152 158 163 147
58 68 63 64 67 66 63 68 73 70 64 60 61 61 63 69 85 90 87 94 101 104 105 104 113 123 135 142 143 142 141 154 157 158 162 160 162 156 160 158 164 164 170
74 80 81 80 87 79 75 79 71 65 55 45 30 23 27 27 39 41 54 66 78 86 97 101 104 107 111 115 122 129 139 148 160 158 152 150 147 148 149 149 151 155 146
86 85 87 94 89 96 87 78 67 69 60 55 40 30 24 13 25 31 40 38 44 51 58 70 79 95 109 119 127 127 135 145 158 162 153 147 142 145 145 150 151 155 155
101 106 108 109 102 98 96 86 78 72 65 55 45 40 33 21 15 17 24 32 37 37 44 49 57 65 73 80 89 101 112 120 125 133 133 132 130 130 134 140 145 152 161
110 114 116 110 116 105 98 87 77 74 67 60 49 41 34 25 21 19 15 23 31 35 37 43 52 68 70 71 73 75 79 88 91 102 106 104 102 106 111 120 128 134 135
111 110 123 111 99 90 81 78 72 69 65 60 54 47 38 30 29 27 23 19 28 37 44 40 45 54 69 81 86 95 100 105 101 94 95 102 106 108 108 107 112 122 129
109 110 97 87 82 79 73 67 63 56 55 53 49 43 39 36 32 29 31 24 23 28 33 42 47 55 67 72 86 94 97 101 99 104 82 81 85 90 92 99 103 99 107

GFSGL_con_3kmhel_126.txt.gz
Helicity
500 451 408 333 304 280 269 254 258 156 159 92 55 90 116 150 165 171 236 204 216 171 226 240 251 229 263 227 235 225 212 211 170 130 138 94 107 187 234 217 281 223 148
290 321 369 308 286 253 278 285 161 9 106 194 250 90 125 157 149 167 159 173 206 182 202 213 227 260 260 227 229 191 152 198 168 158 161 163 149 194 253 304 339 299 246
295 290 329 291 187 195 208 239 224 250 308 351 340 313 357 249 191 150 143 138 151 150 183 226 229 275 283 273 237 181 141 185 171 167 164 183 203 229 283 253 217 191 166
309 300 335 365 354 337 348 343 340 321 317 340 354 355 384 352 414 407 356 234 169 164 191 217 212 249 268 288 252 136 122 166 203 192 182 231 222 242 223 245 201 167 152
211 209 228 226 217 233 234 257 248 229 269 251 271 268 317 272 314 326 261 228 216 175 208 222 206 223 230 258 257 167 116 183 237 233 232 231 234 295 211 189 181 212 221
81 130 105 126 170 177 159 152 136 156 142 212 212 261 232 216 383 309 201 115 138 146 151 201 216 220 226 243 163 143 126 146 203 228 212 209 191 208 219 249 235 235 228
48 65 77 60 62 80 77 111 150 130 123 83 116 120 172 210 404 320 325 168 235 235 355 396 283 187 266 328 156 114 167 151 159 179 179 171 194 142 185 234 263 277 234
78 76 66 61 54 43 39 40 40 53 79 104 122 155 129 248 428 412 245 224 223 213 269 377 342 427 528 435 143 140 166 197 183 189 204 140 142 104 147 146 196 295 393
96 95 99 80 65 60 65 58 26 14 18 13 19 65 107 144 280 321 268 221 194 291 295 312 377 442 456 291 216 297 251 292 252 235 265 300 342 334 338 272 326 343 322
80 52 25 14 25 28 27 31 12 7 10 -8 4 15 42 42 138 182 186 129 174 191 216 210 344 150 210 411 378 183 169 276 299 282 288 375 387 363 453 418 322 288 398
6 19 30 30 24 22 13 15 14 7 6 14 12 8 26 33 56 109 110 40 72 55 73 76 118 206 249 280 303 254 201 212 338 347 355 358 375 410 407 434 433 385 390
17 18 25 23 19 11 20 22 24 30 22 20 18 5 5 31 86 100 105 78 61 21 49 61 89 154 75 92 74 229 202 141 270 318 373 481 431 474 496 471 523 490 477
26 31 30 38 28 27 39 39 32 24 9 1 -5 2 15 27 42 122 107 99 92 25 9 40 91 127 134 155 219 182 146 144 163 284 443 541 452 539 531 539 533 609 708
17 18 9 15 15 22 14 20 26 33 35 33 20 8 -1 5 47 80 94 91 96 79 74 67 71 64 86 107 136 161 158 188 223 302 346 367 426 449 498 555 490 462 552
20 18 17 6 5 -7 -5 -7 -13 2 15 12 20 11 21 30 33 29 51 70 93 84 73 77 108 123 130 135 138 153 150 138 178 204 244 312 302 332 451 472 447 495 530
14 6 8 10 22 33 39 25 53 42 72 93 92 63 32 79 112 114 92 123 143 126 107 129 143 148 160 179 174 176 183 185 176 159 168 185 214 256 289 338 361 375 366
18 28 32 44 50 54 54 58 69 70 66 89 123 132 136 128 150 162 143 106 152 125 114 153 177 185 186 186 197 206 199 190 183 165 158 165 161 175 196 215 239 251 292
35 60 51 61 71 77 85 93 94 100 106 112 118 120 138 133 140 176 200 149 152 168 146 162 174 185 196 195 199 207 205 209 199 194 190 180 172 174 185 203 201 193 198
52 72 58 65 76 71 81 87 91 96 101 103 100 112 129 133 126 146 178 152 167 163 160 163 170 169 170 173 181 185 189 196 194 188 190 183 177 158 162 168 180 183 176
63 82 65 70 83 91 97 106 114 116 113 110 105 109 104 102 116 118 111 119 127 126 131 131 135 140 150 158 155 162 160 175 185 180 181 181 183 177 178 180 173 167 163
73 72 66 82 97 108 112 120 116 114 105 108 81 84 64 65 88 79 80 84 86 91 100 109 106 112 123 130 144 149 153 156 173 169 177 165 179 172 165 162 161 165 161
87 87 95 112 122 141 140 135 130 117 116 103 88 73 48 57 67 68 71 61 63 63 66 74 81 87 94 113 125 135 134 144 153 173 156 152 154 154 157 163 165 171 167
108 113 127 144 151 143 147 136 135 119 110 98 86 77 70 64 56 57 57 54 56 57 55 63 69 71 72 73 81 96 112 123 128 134 153 142 143 144 145 152 157 162 171
140 139 147 152 163 160 155 128 113 104 96 92 87 81 75 63 53 50 46 46 48 56 58 55 53 64 73 76 74 77 79 91 96 104 120 120 116 115 118 125 134 145 143
149 144 139 156 154 139 116 104 94 89 86 84 83 80 74 65 56 50 46 41 43 47 57 52 56 61 66 75 82 91 94 103 99 106 91 90 96 98 109 107 114 113 140
139 137 140 139 128 110 96 85 81 79 78 77 76 74 70 65 56 50 46 41 46 43 45 49 55 63 66 66 80 92 99 103 99 107 87 83 89 95 94 105 112 109 115